[[{"header":{"parameterUnit":"m.s-1","parameterCategory":1,"la1":30.6,"la2":29.2853,"lo1":-89.7004,"lo2":-87.6739,"dy":0.0162,"dx":0.0183,"nx":112,"ny":82,"refTime":"2024-08-09T00:00:00:Z","depth":0,"parameterNumber":2,"parameterNumberName":"U-component_of_WINDS"},"data":[0.0,0.0,0.0,0.0,0.0,0.0,0.0,0.0,0.0,0.0,0.0,0.0,0.0,0.0,0.0,0.0,0.0,0.0,0.0,0.0,0.0,0.0,0.0,0.0,0.0,0.0,0.0,0.0,0.0,0.0,0.0,0.0,0.0,0.0,0.0,0.0,0.0,0.0,0.0,0.0,0.0,0.0,0.0,0.0,0.0,0.0,0.0,0.0,0.0,0.0,0.0,0.0,0.0,0.0,0.0,0.0,0.0,0.0,0.0,0.0,0.0,0.0,0.0,0.0,0.0,0.0,0.0,0.0,0.0,0.0,0.0,0.0,0.0,0.0,0.0,0.0,0.0,0.0,0.0,0.0,0.0,0.0,0.0,0.0,0.0,0.0,0.0,0.0,0.0,0.0,3.0374,3.2244,3.5875,3.8233,3.8442,3.76,3.6241,3.4251,0.0,0.0,0.0,0.0,0.0,0.0,0.0,0.0,0.0,0.0,0.0,0.0,0.0,0.0,0.0,0.0,0.0,0.0,0.0,0.0,0.0,0.0,0.0,0.0,0.0,0.0,0.0,0.0,0.0,0.0,0.0,0.0,0.0,0.0,0.0,0.0,0.0,0.0,0.0,0.0,0.0,0.0,0.0,0.0,0.0,0.0,0.0,0.0,0.0,0.0,0.0,0.0,0.0,0.0,0.0,0.0,0.0,0.0,0.0,0.0,0.0,0.0,0.0,0.0,0.0,0.0,0.0,0.0,0.0,0.0,0.0,0.0,0.0,0.0,0.0,0.0,0.0,0.0,0.0,0.0,0.0,0.0,0.0,0.0,0.0,0.0,0.0,0.0,0.0,0.0,0.0,0.0,0.0,0.0,0.0,0.0,0.0,0.0,0.0,0.0,0.0,0.0,0.0,0.0,3.2077,3.7868,3.9788,4.0981,4.1772,4.0559,3.8288,3.4889,0.0,0.0,0.0,0.0,0.0,0.0,0.0,0.0,0.0,0.0,0.0,0.0,0.0,0.0,0.0,0.0,0.0,0.0,0.0,0.0,0.0,0.0,0.0,0.0,0.0,0.0,0.0,0.0,0.0,0.0,0.0,0.0,0.0,0.0,0.0,0.0,0.0,0.0,0.0,0.0,0.0,0.0,0.0,0.0,0.0,0.0,0.0,0.0,0.0,0.0,0.0,0.0,0.0,0.0,0.0,0.0,0.0,0.0,0.0,0.0,0.0,0.0,0.0,0.0,0.0,0.0,0.0,0.0,0.0,0.0,0.0,0.0,0.0,0.0,0.0,0.0,0.0,0.0,0.0,0.0,0.0,0.0,0.0,0.0,0.0,0.0,0.0,0.0,0.0,0.0,0.0,0.0,0.0,0.0,0.0,0.0,0.0,0.0,0.0,0.0,0.0,0.0,0.0,3.1417,3.4617,3.9305,4.0643,4.1418,4.1909,4.0902,3.9128,3.6482,3.2506,0.0,0.0,0.0,0.0,0.0,0.0,0.0,0.0,0.0,0.0,0.0,0.0,0.0,0.0,0.0,0.0,0.0,0.0,0.0,0.0,0.0,0.0,0.0,0.0,0.0,0.0,0.0,0.0,0.0,0.0,0.0,0.0,0.0,0.0,0.0,0.0,0.0,0.0,0.0,0.0,0.0,0.0,0.0,0.0,0.0,0.0,0.0,0.0,0.0,0.0,0.0,0.0,0.0,0.0,0.0,0.0,0.0,0.0,0.0,0.0,0.0,0.0,0.0,0.0,0.0,0.0,0.0,0.0,0.0,0.0,0.0,0.0,0.0,0.0,0.0,0.0,0.0,0.0,0.0,0.0,0.0,0.0,0.0,0.0,0.0,0.0,0.0,0.0,0.0,0.0,0.0,0.0,0.0,0.0,0.0,0.0,0.0,0.0,0.0,0.0,0.0,0.0,3.4518,3.6789,4.0019,4.1018,4.1658,4.2193,4.1147,3.9584,3.7623,3.3337,0.0,0.0,0.0,0.0,0.0,0.0,0.0,0.0,0.0,0.0,0.0,0.0,0.0,0.0,0.0,0.0,0.0,0.0,0.0,0.0,0.0,0.0,0.0,0.0,0.0,0.0,0.0,0.0,0.0,0.0,0.0,0.0,0.0,0.0,0.0,0.0,0.0,0.0,0.0,0.0,0.0,0.0,0.0,0.0,0.0,0.0,0.0,0.0,0.0,0.0,0.0,0.0,0.0,0.0,0.0,0.0,0.0,0.0,0.0,0.0,0.0,0.0,0.0,0.0,0.0,0.0,0.0,0.0,0.0,0.0,0.0,0.0,0.0,0.0,0.0,0.0,0.0,0.0,0.0,0.0,0.0,0.0,0.0,0.0,0.0,0.0,0.0,0.0,0.0,0.0,0.0,0.0,0.0,0.0,0.0,0.0,0.0,0.0,0.0,0.0,0.0,0.0,3.4758,3.7858,4.1631,4.207,4.2848,4.4611,4.2503,3.9989,3.7294,3.3141,0.0,0.0,0.0,0.0,0.0,0.0,0.0,0.0,0.0,0.0,0.0,0.0,0.0,0.0,0.0,0.0,0.0,0.0,0.0,0.0,0.0,0.0,0.0,0.0,0.0,0.0,0.0,0.0,0.0,0.0,0.0,0.0,0.0,0.0,0.0,0.0,0.0,0.0,0.0,0.0,0.0,0.0,0.0,0.0,0.0,0.0,0.0,0.0,0.0,0.0,0.0,0.0,0.0,0.0,0.0,0.0,0.0,0.0,0.0,0.0,0.0,0.0,0.0,0.0,0.0,0.0,0.0,0.0,0.0,0.0,0.0,0.0,0.0,0.0,0.0,0.0,0.0,0.0,0.0,0.0,0.0,0.0,0.0,0.0,0.0,0.0,0.0,0.0,0.0,0.0,0.0,0.0,0.0,0.0,0.0,0.0,0.0,0.0,0.0,0.0,0.0,0.0,3.6215,3.9214,0.0,4.2391,4.3359,4.417,4.3384,4.1187,3.7348,0.0,0.0,0.0,0.0,0.0,0.0,0.0,0.0,0.0,0.0,0.0,0.0,0.0,0.0,0.0,0.0,0.0,0.0,0.0,0.0,0.0,0.0,0.0,0.0,0.0,0.0,0.0,0.0,0.0,0.0,0.0,0.0,0.0,0.0,0.0,0.0,0.0,0.0,0.0,0.0,0.0,0.0,0.0,0.0,0.0,0.0,0.0,0.0,0.0,0.0,0.0,0.0,0.0,0.0,0.0,0.0,0.0,0.0,0.0,0.0,0.0,0.0,0.0,0.0,0.0,0.0,0.0,0.0,0.0,0.0,0.0,0.0,0.0,0.0,0.0,0.0,0.0,0.0,0.0,0.0,0.0,0.0,0.0,0.0,0.0,0.0,0.0,0.0,0.0,0.0,0.0,0.0,0.0,0.0,0.0,0.0,0.0,0.0,0.0,0.0,0.0,0.0,3.3579,3.728,4.0212,0.0,4.2831,4.3818,4.4535,4.3836,4.1677,3.7762,0.0,0.0,0.0,0.0,0.0,0.0,0.0,0.0,0.0,0.0,0.0,0.0,0.0,0.0,0.0,0.0,0.0,0.0,0.0,0.0,0.0,0.0,0.0,0.0,0.0,0.0,0.0,0.0,0.0,0.0,0.0,0.0,0.0,0.0,0.0,0.0,0.0,0.0,0.0,0.0,0.0,0.0,0.0,0.0,0.0,0.0,0.0,0.0,0.0,0.0,0.0,0.0,0.0,0.0,0.0,0.0,0.0,0.0,0.0,0.0,0.0,0.0,0.0,0.0,0.0,0.0,0.0,0.0,0.0,0.0,0.0,0.0,0.0,0.0,0.0,0.0,0.0,0.0,0.0,0.0,0.0,0.0,0.0,0.0,0.0,0.0,0.0,0.0,0.0,0.0,0.0,0.0,0.0,0.0,0.0,0.0,0.0,0.0,0.0,0.0,0.0,0.0,3.4375,3.7741,4.0774,4.3246,4.3561,4.434,4.6149,4.3919,4.1287,0.0,0.0,0.0,0.0,0.0,0.0,0.0,0.0,0.0,0.0,0.0,0.0,0.0,0.0,0.0,0.0,0.0,0.0,0.0,0.0,0.0,0.0,0.0,0.0,0.0,0.0,0.0,0.0,0.0,0.0,0.0,0.0,0.0,0.0,0.0,0.0,0.0,0.0,0.0,0.0,0.0,0.0,0.0,0.0,0.0,0.0,0.0,0.0,0.0,0.0,0.0,0.0,0.0,0.0,0.0,0.0,0.0,0.0,0.0,0.0,0.0,0.0,0.0,0.0,0.0,0.0,0.0,0.0,0.0,0.0,0.0,0.0,0.0,0.0,0.0,0.0,0.0,0.0,0.0,0.0,0.0,0.0,0.0,0.0,0.0,0.0,0.0,0.0,0.0,0.0,0.0,0.0,0.0,0.0,0.0,0.0,0.0,0.0,0.0,0.0,0.0,0.0,0.0,3.4669,3.8789,4.2019,4.341,4.4096,4.494,4.6187,4.5118,4.3232,4.0555,0.0,0.0,0.0,0.0,0.0,0.0,0.0,0.0,0.0,0.0,0.0,0.0,0.0,0.0,0.0,0.0,0.0,0.0,0.0,0.0,0.0,0.0,0.0,0.0,0.0,0.0,0.0,0.0,0.0,0.0,0.0,0.0,0.0,0.0,0.0,0.0,0.0,0.0,0.0,0.0,0.0,0.0,0.0,0.0,0.0,0.0,0.0,0.0,0.0,0.0,0.0,0.0,0.0,0.0,0.0,0.0,0.0,0.0,0.0,0.0,0.0,0.0,0.0,0.0,0.0,0.0,0.0,0.0,0.0,0.0,0.0,0.0,0.0,0.0,0.0,0.0,0.0,0.0,0.0,0.0,0.0,0.0,0.0,0.0,0.0,0.0,0.0,0.0,0.0,0.0,0.0,0.0,0.0,0.0,0.0,0.0,0.0,0.0,0.0,0.0,0.0,0.0,3.5319,3.9508,4.291,4.4442,4.5048,4.5874,4.7194,4.6302,4.4687,4.2392,0.0,0.0,0.0,0.0,0.0,0.0,0.0,0.0,0.0,0.0,0.0,0.0,0.0,0.0,0.0,0.0,0.0,0.0,0.0,0.0,0.0,0.0,0.0,0.0,0.0,0.0,0.0,0.0,0.0,0.0,0.0,0.0,0.0,0.0,0.0,0.0,0.0,0.0,0.0,0.0,0.0,0.0,0.0,0.0,0.0,0.0,0.0,0.0,0.0,0.0,0.0,0.0,0.0,0.0,0.0,0.0,0.0,0.0,0.0,0.0,0.0,0.0,0.0,0.0,0.0,0.0,0.0,0.0,0.0,0.0,0.0,0.0,0.0,0.0,0.0,0.0,0.0,0.0,0.0,0.0,0.0,0.0,0.0,0.0,0.0,0.0,0.0,0.0,0.0,0.0,0.0,0.0,0.0,0.0,0.0,0.0,0.0,0.0,0.0,0.0,0.0,0.0,3.6221,4.0088,4.3521,4.5861,4.6177,4.691,4.8656,4.73,4.5712,4.4151,0.0,0.0,0.0,0.0,0.0,0.0,0.0,0.0,0.0,0.0,0.0,0.0,0.0,0.0,0.0,0.0,0.0,0.0,0.0,0.0,0.0,0.0,0.0,0.0,0.0,0.0,0.0,0.0,0.0,0.0,0.0,0.0,0.0,0.0,0.0,0.0,0.0,0.0,0.0,0.0,0.0,0.0,0.0,0.0,0.0,0.0,0.0,0.0,0.0,0.0,0.0,0.0,0.0,0.0,0.0,0.0,0.0,0.0,0.0,0.0,2.6603,0.0,0.0,0.0,0.0,0.0,0.0,0.0,0.0,0.0,0.0,0.0,0.0,0.0,0.0,0.0,0.0,0.0,0.0,0.0,0.0,0.0,0.0,0.0,0.0,0.0,0.0,0.0,0.0,0.0,0.0,0.0,0.0,0.0,0.0,0.0,0.0,0.0,0.0,0.0,0.0,0.0,3.7209,4.0948,4.4137,4.5969,4.6184,4.691,4.8656,4.7262,4.6191,4.5875,4.1871,0.0,0.0,0.0,0.0,0.0,0.0,0.0,0.0,0.0,0.0,0.0,0.0,0.0,0.0,0.0,0.0,0.0,0.0,0.0,0.0,0.0,0.0,0.0,0.0,0.0,0.0,0.0,0.0,0.0,0.0,0.0,0.0,0.0,0.0,0.0,0.0,0.0,0.0,0.0,0.0,0.0,0.0,0.0,0.0,0.0,0.0,0.0,0.0,0.0,0.0,0.0,0.0,0.0,0.0,0.0,0.0,0.0,0.0,0.0,0.0,2.9609,0.0,0.0,0.0,0.0,0.0,0.0,0.0,0.0,0.0,0.0,0.0,0.0,0.0,0.0,0.0,0.0,0.0,0.0,0.0,0.0,0.0,0.0,0.0,0.0,0.0,0.0,0.0,0.0,0.0,0.0,0.0,0.0,0.0,0.0,0.0,0.0,0.0,0.0,0.0,0.0,3.7649,4.1688,4.5005,4.6582,4.715,4.7934,4.9212,4.7851,4.6976,4.7064,4.3539,0.0,0.0,0.0,0.0,0.0,0.0,0.0,0.0,0.0,0.0,0.0,0.0,0.0,0.0,0.0,0.0,0.0,0.0,0.0,0.0,0.0,0.0,0.0,0.0,0.0,0.0,0.0,0.0,0.0,0.0,0.0,0.0,0.0,0.0,0.0,0.0,0.0,0.0,0.0,0.0,0.0,0.0,0.0,0.0,0.0,0.0,0.0,0.0,0.0,0.0,0.0,0.0,0.0,3.6814,3.7335,3.8335,3.8339,3.8339,3.8159,3.5193,3.4363,3.4892,3.1706,0.0,0.0,0.0,0.0,0.0,0.0,0.0,0.0,0.0,0.0,0.0,0.0,0.0,0.0,0.0,0.0,0.0,0.0,0.0,0.0,0.0,0.0,0.0,0.0,3.7746,3.8121,3.5091,0.0,0.0,0.0,0.0,0.0,0.0,0.0,0.0,0.0,0.0,0.0,3.8033,4.2365,4.5874,4.7271,4.82,4.8996,4.9641,4.8549,4.7734,4.7586,4.49,4.2676,0.0,0.0,0.0,0.0,0.0,0.0,0.0,0.0,0.0,0.0,0.0,0.0,0.0,0.0,0.0,0.0,0.0,0.0,0.0,0.0,0.0,0.0,0.0,0.0,0.0,0.0,0.0,0.0,0.0,0.0,0.0,0.0,2.6855,2.8599,0.0,0.0,0.0,0.0,0.0,0.0,0.0,0.0,0.0,0.0,0.0,0.0,0.0,3.3476,3.5273,3.605,3.7778,4.0408,4.0411,4.1267,4.2842,4.2842,4.2842,4.2783,4.1569,0.0,3.6719,3.4793,0.0,0.0,0.0,0.0,0.0,0.0,0.0,0.0,0.0,0.0,0.0,0.0,0.0,0.0,0.0,0.0,0.0,0.0,0.0,0.0,0.0,0.0,3.7868,3.9605,4.0791,4.1569,0.0,3.8825,3.5849,3.4864,3.4463,0.0,0.0,0.0,0.0,0.0,0.0,0.0,3.901,4.3277,4.6544,4.7403,4.8277,4.8846,4.8941,4.8751,4.8047,4.666,4.5585,4.4652,4.3907,4.1726,0.0,0.0,0.0,0.0,0.0,0.0,0.0,0.0,0.0,0.0,0.0,0.0,0.0,0.0,0.0,0.0,0.0,0.0,0.0,0.0,0.0,0.0,0.0,0.0,0.0,0.0,0.0,0.0,0.0,2.6221,2.8802,3.0034,2.9874,2.9825,0.0,0.0,0.0,0.0,0.0,0.0,0.0,0.0,0.0,3.3613,3.5308,3.6848,3.8118,3.9005,4.0249,4.1849,4.2337,4.2962,4.3704,4.3704,4.3704,4.3684,4.3303,4.2268,4.0629,3.7943,3.682,3.645,0.0,0.0,0.0,0.0,3.037,3.0566,3.2031,3.3083,3.3779,3.3781,0.0,0.0,0.0,0.0,0.0,0.0,0.0,0.0,0.0,0.0,4.0055,4.1751,4.2414,4.2772,4.3065,4.1628,4.0034,0.0,3.884,3.7865,3.5058,0.0,0.0,0.0,0.0,3.9932,4.0835,4.4137,4.6701,4.7452,4.8302,4.9005,4.9486,4.8669,4.7867,4.7283,4.6088,4.5111,4.4418,4.296,4.0707,0.0,0.0,0.0,0.0,0.0,0.0,0.0,0.0,0.0,0.0,0.0,0.0,0.0,0.0,0.0,0.0,0.0,0.0,0.0,0.0,0.0,0.0,0.0,0.0,0.0,0.0,0.0,0.0,2.8632,3.0528,3.1551,3.1907,3.2221,0.0,0.0,0.0,0.0,0.0,0.0,3.3312,3.538,3.6667,3.6891,3.8157,3.9367,4.0444,4.1108,4.1986,4.3079,4.372,4.4153,4.4367,4.4367,4.4364,4.4364,4.4356,4.4216,4.3775,4.0738,3.9369,3.8885,3.6113,3.4498,3.3734,3.3746,3.3883,3.4326,3.604,3.7471,3.8491,3.828,3.8354,3.8202,3.6482,0.0,0.0,0.0,0.0,3.7365,3.8838,4.0339,4.1838,4.3299,4.3573,4.3554,4.3724,4.3747,4.3423,0.0,4.214,4.1349,3.8972,0.0,0.0,0.0,0.0,4.1548,4.2148,4.4881,4.6995,4.7562,4.8542,4.9245,4.9485,4.8552,4.7766,4.7291,4.6359,4.5509,4.4758,4.4012,4.2183,3.9173,0.0,0.0,0.0,0.0,0.0,0.0,0.0,0.0,0.0,0.0,0.0,0.0,0.0,0.0,0.0,0.0,0.0,0.0,0.0,0.0,0.0,0.0,0.0,0.0,0.0,0.0,0.0,0.0,0.0,3.4114,3.5038,0.0,0.0,0.0,0.0,3.4334,3.5215,3.6065,3.6884,3.7851,3.8753,3.9591,3.9687,4.0551,4.2243,4.2318,4.3196,4.4875,4.4914,4.5363,4.6163,4.6163,4.6179,4.6167,4.6104,4.5606,4.4704,4.2919,4.1718,4.0879,3.9875,3.8951,3.8174,3.8186,3.8697,3.9302,3.8615,4.002,4.1995,4.1166,4.1468,4.1831,4.0135,3.9566,0.0,0.0,4.0027,4.0849,4.1752,4.2632,4.3479,4.433,4.4428,4.4565,4.5401,4.5505,4.497,0.0,4.294,4.2543,4.1321,0.0,4.065,3.9712,4.1089,4.2238,4.2271,4.5487,4.7716,4.7709,4.9158,4.9501,4.7957,4.8486,4.7964,4.5666,4.6282,4.6395,4.5661,4.4877,4.3639,4.1939,4.0181,0.0,0.0,0.0,0.0,0.0,0.0,0.0,0.0,0.0,0.0,0.0,0.0,0.0,0.0,0.0,0.0,0.0,0.0,0.0,0.0,0.0,0.0,0.0,0.0,0.0,0.0,0.0,0.0,3.597,3.6445,0.0,3.6919,3.6226,3.6332,3.7769,3.8692,3.9558,4.0434,4.1312,4.1916,4.2239,4.2242,4.2568,4.3236,4.3758,4.4324,4.4929,4.5499,4.5928,4.6245,4.624,4.624,4.6236,4.6201,4.605,4.5753,4.5104,4.4031,4.2694,4.1819,4.1273,4.1,4.1003,4.1202,4.1514,4.1768,4.2454,4.3183,4.2868,4.2988,4.3132,4.2539,4.2339,4.2295,4.2256,4.2429,4.2833,4.3666,4.404,4.4446,4.5241,4.5805,4.6214,4.6475,4.6923,4.7083,4.6416,4.5784,4.5074,4.4096,4.476,4.4941,4.3566,4.4306,4.4817,4.4309,4.5344,4.6552,4.764,4.8219,4.8543,4.8594,4.8276,4.7327,4.5451,4.5764,4.5663,4.4845,4.4689,4.3795,4.2015,3.9741,3.7102,0.0,0.0,0.0,0.0,0.0,0.0,0.0,0.0,0.0,0.0,0.0,0.0,0.0,0.0,0.0,0.0,0.0,0.0,0.0,0.0,0.0,0.0,0.0,0.0,0.0,0.0,3.5636,3.7308,3.8011,3.8568,3.9083,3.8918,3.9393,4.083,4.1509,4.211,4.268,4.3265,4.3604,4.3604,4.3621,4.3797,4.4103,4.4649,4.5064,4.5348,4.5913,4.6206,4.6206,4.6206,4.6201,4.6201,4.6203,4.6228,4.6265,4.6215,4.5543,4.4426,4.3287,4.2653,4.2366,4.2075,4.2158,4.257,4.3737,4.4145,4.4181,4.4488,4.4577,4.4588,4.457,4.4778,4.5008,4.4929,4.5111,4.5375,4.5609,4.585,4.6072,4.6287,4.6936,4.7422,4.705,4.7617,4.8102,4.7703,4.7106,4.6588,4.632,4.687,4.7114,4.6395,4.6407,4.6326,4.5795,4.5676,4.6094,4.7239,4.7514,4.78,4.8197,4.73,4.6081,4.4551,4.4863,4.4456,4.3085,4.3757,4.3162,4.1051,3.9077,3.6716,3.3963,0.0,0.0,0.0,0.0,0.0,0.0,0.0,0.0,0.0,0.0,0.0,0.0,0.0,0.0,0.0,0.0,0.0,0.0,0.0,0.0,0.0,0.0,0.0,3.4505,3.5383,3.654,3.8179,3.9846,4.0834,4.0839,4.1629,4.2505,4.3361,4.3518,4.3578,4.3578,4.3664,4.3685,4.363,4.3721,4.4136,4.489,4.4994,4.5435,4.6206,4.6167,4.6162,4.6209,4.617,4.617,4.6203,4.6203,4.6196,4.6196,4.6196,4.6203,4.6036,4.4416,4.3253,4.2415,4.1562,4.1816,4.2792,4.4491,4.5087,4.5226,4.603,4.6301,4.6308,4.6328,4.6887,4.7506,4.7471,4.8008,4.8385,4.7529,4.7923,4.8327,4.743,4.7849,4.8168,4.7207,4.7675,4.7988,4.7012,4.674,4.6969,4.7893,4.7235,4.6966,4.7872,4.7258,0.0,4.6604,4.6541,4.6498,4.6488,4.7194,4.7346,4.6565,4.5616,4.4398,4.2928,4.3675,4.3062,4.0672,4.2236,4.1921,3.9345,3.8425,3.6613,3.3853,0.0,0.0,0.0,0.0,0.0,0.0,0.0,0.0,0.0,0.0,0.0,0.0,0.0,0.0,0.0,0.0,0.0,0.0,0.0,0.0,0.0,3.2194,3.4472,3.5352,3.7253,3.8946,3.9993,4.1086,4.1745,4.1745,4.2492,4.3337,4.4273,4.4955,4.5326,4.5386,4.5998,4.5802,4.4572,4.5131,4.5273,4.4894,4.5546,4.5975,4.619,4.5566,4.5586,4.619,4.554,4.5599,4.6203,4.6203,4.6203,4.6196,4.6196,4.6189,4.6147,4.5685,4.5406,4.5203,4.4953,4.5426,4.6245,4.6719,4.6893,4.683,4.6423,4.6308,4.6406,4.6993,4.6455,4.576,4.6333,4.6149,4.5725,4.5431,4.6472,4.7508,4.7262,4.8294,4.9272,4.8999,4.957,5.0057,4.9737,4.9124,4.8663,4.8833,4.9156,4.9269,4.8865,4.8575,0.0,4.6688,4.6514,4.6469,4.642,4.6563,4.6625,4.6507,4.6191,4.5338,4.3768,4.4576,4.4266,4.2393,4.347,4.256,3.9287,3.7658,3.5501,0.0,0.0,0.0,0.0,0.0,0.0,0.0,0.0,0.0,0.0,0.0,0.0,0.0,0.0,0.0,0.0,0.0,0.0,0.0,0.0,0.0,0.0,3.4743,3.6923,3.778,3.918,4.0537,4.1707,4.2276,4.2761,4.3105,4.3569,4.4221,4.513,4.6007,4.6515,4.6568,4.7076,4.6912,4.5977,4.6052,4.5884,4.5442,4.6279,4.6691,4.6707,4.6563,4.675,4.7225,4.6719,4.6773,4.7294,4.7287,4.7294,4.7281,4.7281,4.7294,0.0,0.0,0.0,0.0,0.0,4.5995,4.7061,4.7061,4.7537,4.8066,4.7519,4.7362,4.7532,4.8346,4.7874,4.7254,4.8094,4.7907,4.7359,4.696,4.787,4.8774,4.8431,4.933,5.0162,4.9745,5.0314,5.0764,5.0349,5.0103,0.0,4.9875,4.991,4.9908,4.9775,4.9386,4.8726,4.7767,4.7258,4.6847,4.6435,4.6373,4.6221,4.5929,4.5544,0.0,0.0,0.0,4.367,4.2024,4.1801,0.0,0.0,0.0,0.0,0.0,0.0,0.0,0.0,3.2392,3.2182,0.0,0.0,0.0,0.0,0.0,0.0,0.0,0.0,0.0,0.0,0.0,0.0,0.0,0.0,0.0,0.0,3.7575,4.0043,4.0951,4.1153,4.1753,4.3143,4.3388,4.3744,4.4523,4.4678,4.5073,4.5835,4.6791,4.7301,4.7204,0.0,0.0,0.0,0.0,4.6356,4.6338,4.7126,4.7534,4.7551,4.8234,4.8594,4.8701,4.8602,4.8647,4.8794,4.8806,4.8806,4.8806,4.8806,4.8794,4.8561,4.626,4.5336,4.5262,4.4647,4.5408,4.6733,4.6726,0.0,0.0,4.8846,4.8838,4.9032,4.9852,4.9965,5.0,5.084,5.0972,5.0672,4.989,5.0364,5.0848,5.0068,5.0499,5.0856,4.9954,5.0384,5.0677,4.9828,5.0308,5.0827,5.0827,5.0029,4.9662,5.0567,4.9872,4.925,4.9194,4.8318,4.7362,4.6473,0.0,0.0,4.5182,4.4402,4.3685,4.3005,4.2869,4.2134,4.0716,3.9104,3.8212,3.8204,3.8914,3.8876,3.8054,3.9583,3.9879,3.8953,3.5798,3.5514,0.0,0.0,0.0,0.0,0.0,0.0,0.0,0.0,0.0,0.0,0.0,0.0,0.0,0.0,0.0,3.6241,3.8791,4.1102,4.2596,4.3389,4.3666,4.3343,4.3918,4.4415,4.4581,4.5181,4.5673,4.5874,4.7359,4.7953,4.7243,4.8548,4.8701,4.7345,4.7786,4.7767,4.7174,4.798,4.8399,4.8448,0.0,0.0,4.8688,4.8037,4.8113,4.8806,4.8806,4.8806,4.8806,4.8806,4.8806,4.8755,4.8248,4.8053,4.8106,4.8665,4.9117,4.9433,4.9387,4.9592,4.9745,4.9023,4.8805,4.8974,4.984,4.9128,0.0,4.8989,4.8669,4.803,4.7805,4.8913,5.0029,4.9858,5.0479,5.1042,5.0856,5.0945,5.1015,5.0831,5.0942,5.1039,5.1039,5.0745,5.0508,5.0606,5.0433,5.0026,4.9223,4.8356,4.743,4.6515,4.5769,4.5338,4.5254,4.5123,4.4727,4.4054,4.2861,4.2001,4.1639,4.0673,4.0119,4.0077,4.0231,3.9854,3.8946,3.924,3.9265,3.9078,3.8973,3.8766,0.0,0.0,0.0,0.0,0.0,0.0,0.0,0.0,0.0,0.0,0.0,3.2081,3.2992,0.0,3.7378,3.8681,4.0672,4.2486,4.3722,4.4592,4.5133,4.5186,4.5563,4.5815,4.5858,4.6216,4.6303,4.5938,4.7481,4.8275,4.7856,4.9065,4.9381,4.8587,4.8541,4.8363,4.7994,4.8832,4.9271,4.9303,4.9299,4.9543,4.9936,4.9537,4.9596,5.0012,5.0029,5.0057,5.0057,5.0046,5.0053,5.0061,5.0095,4.9574,4.8847,4.9298,4.9777,5.0195,5.0155,5.042,5.0672,5.0243,5.0106,5.0184,5.0625,5.0133,4.9533,4.9946,4.9703,4.934,4.9265,4.9897,5.0549,5.0517,5.0837,5.1136,5.1108,5.1102,5.1108,5.1101,5.1101,5.1101,5.1101,5.1024,5.0893,5.0775,5.0663,5.0432,4.9923,4.9013,4.8063,4.7198,4.6294,4.563,4.5335,4.4997,4.4324,4.3223,4.2444,4.1809,4.137,4.0965,4.072,4.0654,4.066,4.0405,3.9899,3.9873,3.9842,3.9861,4.0185,4.0059,0.0,0.0,0.0,0.0,0.0,0.0,0.0,0.0,3.1372,3.225,3.3793,3.5321,3.6369,3.8247,3.9992,4.1093,4.2518,4.3728,4.4394,4.519,4.6098,4.7206,4.7143,4.7089,4.7318,4.733,4.7071,4.641,4.7782,4.8653,4.8729,4.9509,4.9969,5.002,4.9406,4.9059,4.9091,4.978,5.0134,5.0153,5.0853,5.1202,5.1194,5.1197,5.12,5.122,5.1278,5.1295,5.1295,5.1292,5.13,5.1308,5.1362,5.0536,4.9318,4.9306,4.9777,5.043,5.043,5.0855,5.1398,5.1398,5.1398,5.1394,5.1394,5.1394,5.141,5.14,5.1394,5.1388,5.1308,5.1304,5.1287,5.122,5.122,5.1189,5.1132,5.112,5.112,5.1121,5.1121,5.1121,5.1121,5.1121,5.1081,5.0948,5.0773,5.0664,5.0624,4.9559,4.8551,4.79,4.686,4.5906,4.5207,4.4341,4.332,4.2105,4.1854,4.1473,4.082,4.0986,4.1033,4.0977,4.0971,4.0932,4.0872,4.0694,4.0603,4.0603,4.0546,4.0447,3.1012,3.1527,3.223,3.2311,3.1736,3.1596,0.0,0.0,3.3955,3.4886,3.6306,3.7947,3.9706,4.0275,4.1003,4.2652,4.3674,4.4311,4.4395,4.5167,4.6304,4.7981,4.7482,4.7306,4.8092,4.8169,4.8128,4.8037,4.891,4.9486,4.9567,5.0326,5.0805,5.0855,5.0782,5.0753,5.0823,5.092,5.1004,5.1066,5.1144,5.1194,5.1208,5.1208,5.124,5.1287,5.1304,5.1292,5.13,5.13,5.1289,5.131,5.1369,5.1283,5.1099,5.1115,5.1188,5.1269,5.1269,5.1326,5.1396,5.1391,5.1405,5.1394,5.1394,5.1394,5.141,5.14,5.1394,5.1388,5.1308,5.13,5.1292,5.1287,5.1287,5.1269,5.12,5.118,5.119,5.1178,5.12,5.119,5.119,5.119,5.1147,5.1,5.0925,5.0825,5.0701,4.9183,4.8067,4.7988,4.649,4.5247,4.4547,4.313,4.2209,4.2092,4.1354,4.0893,4.0807,4.1604,4.202,4.1943,4.1943,4.1906,4.184,4.1007,4.0607,4.0607,4.0603,4.0508,3.286,3.2771,3.2915,0.0,3.3907,3.4052,3.5758,3.6157,3.6304,3.6699,3.7702,3.8752,3.9623,4.0616,4.1709,0.0,4.3867,4.4585,4.5093,4.5426,4.6102,4.7334,4.7159,4.7482,4.8846,4.854,4.8265,4.8288,4.9119,4.9633,4.9697,5.0453,5.0906,5.0941,5.0975,5.1005,5.1029,5.1075,5.1102,5.1139,5.1139,5.1152,5.1206,5.1206,5.1228,5.1249,5.123,5.1267,5.1304,5.1292,5.1296,5.1317,5.1369,5.14,5.1396,5.1391,5.1403,5.1406,5.1406,5.1406,5.1403,5.1408,5.1398,5.1394,5.1394,5.1394,5.139,5.1396,5.1411,5.138,5.133,5.1296,5.1289,5.1295,5.1306,5.1278,5.1201,5.1201,5.1211,5.1201,5.0812,5.051,5.051,5.0082,4.9702,4.9625,4.9937,5.0341,5.0715,4.8739,4.7108,4.6609,4.5514,4.4509,4.3755,4.2705,4.1858,4.1366,4.1042,4.0868,4.0867,4.1228,4.1431,4.1399,4.1399,4.1366,4.1306,4.0906,4.0707,4.0713,4.0673,4.0631,3.418,0.0,0.0,3.5272,3.5713,3.619,3.7622,3.7983,3.8096,3.8326,3.8898,3.9449,3.9826,4.1091,4.2412,4.3385,4.4234,4.4974,4.556,4.5622,4.5913,4.6778,4.6679,4.733,4.9274,4.891,4.8675,4.8948,4.9553,4.993,5.0021,5.0569,5.0906,5.0906,5.0956,5.099,5.101,5.1039,5.1081,5.1102,5.1095,5.1127,5.1171,5.1183,5.1206,5.1189,5.1201,5.122,5.1258,5.1292,5.1308,5.131,5.1375,5.1405,5.1396,5.1405,5.14,5.1406,5.1406,5.1406,5.1406,5.1396,5.1405,5.1402,5.1402,5.1398,5.1394,5.1406,5.1401,5.1391,5.1349,5.1336,5.133,5.132,5.1339,5.1312,5.1248,5.1248,5.1189,5.0927,5.041,4.9943,4.9709,4.9136,4.869,4.8613,4.886,4.9304,5.0046,4.8212,4.6431,4.5318,4.4537,4.3766,4.2963,4.2199,4.1518,4.0888,4.0907,4.0936,4.0937,4.115,4.1286,4.1257,4.1267,4.1227,4.1191,4.0928,4.0916,4.1156,4.0855,4.0862,0.0,0.0,3.6287,3.627,3.6863,3.7661,3.8556,3.8823,3.909,3.9948,4.0139,4.0463,4.1428,4.2309,4.3209,4.4196,4.5095,4.5618,4.5513,4.5568,4.5893,4.6721,4.6159,4.6696,4.9163,4.9432,4.9776,5.0564,5.0663,5.072,5.0851,5.0887,5.0906,5.0906,5.0906,5.0925,5.1003,5.101,5.1039,5.1101,5.1102,5.1095,5.1095,5.1167,5.1189,5.1189,5.1201,5.1211,5.1211,5.1265,5.13,5.1308,5.1361,5.1396,5.1401,5.139,5.1408,5.14,5.1406,5.1406,5.1406,5.1406,5.1404,5.1398,5.1398,5.1408,5.1394,5.1394,5.1406,5.1396,5.14,5.1394,5.1394,5.1394,5.1394,5.1388,5.131,5.1343,5.1115,5.0219,5.0075,4.9834,4.897,4.8769,4.8674,4.8603,4.7893,4.7633,4.8372,4.7596,4.634,4.4623,4.3772,4.3002,4.2205,4.1412,4.0945,4.0988,4.0996,4.0996,4.0988,4.1813,4.2224,4.2159,4.216,4.216,4.2168,4.1244,4.1233,4.2028,4.118,4.1246,3.6002,0.0,3.7205,3.7749,3.809,3.8512,3.9347,4.0038,4.0402,4.0134,4.0535,4.0901,4.0784,4.1895,4.2985,4.347,4.4628,4.5495,4.5495,4.5477,4.5554,4.5841,4.5649,4.6033,4.7414,4.772,0.0,4.974,4.9892,4.9907,4.9972,5.0513,5.0858,5.0906,5.0906,5.0925,5.0945,5.0941,5.0971,5.102,5.1089,5.1095,5.1095,5.1163,5.1194,5.1194,5.1189,5.119,5.1211,5.1267,5.13,5.1303,5.1323,5.1361,5.1396,5.1401,5.1394,5.1405,5.1391,5.1402,5.1406,5.1406,5.1406,5.1405,5.1405,5.1404,5.14,5.1402,5.139,5.141,5.1406,5.1396,5.1405,5.1394,5.1394,5.1394,5.1369,5.1369,5.1141,5.0238,4.9613,4.8956,4.8098,4.7437,4.7014,4.696,4.7598,4.7747,4.6795,4.6438,4.5824,4.4655,4.3324,4.2408,4.2179,4.1429,4.1217,4.1816,4.187,4.213,4.2695,4.2459,4.228,4.2272,4.171,4.1392,4.1345,4.1063,4.1063,4.1304,4.0992,4.1001,3.7202,3.7601,3.8007,3.8841,3.9059,3.9183,3.9712,4.0331,4.0623,4.0049,4.0435,4.0862,4.0748,4.1628,4.2622,4.3398,4.4342,4.5093,4.5419,4.5419,4.54,4.54,4.5419,4.5765,4.6549,4.6818,0.0,4.9239,4.943,4.9599,4.992,5.0465,5.0791,5.0858,5.0858,5.0877,5.0913,5.0893,5.0925,5.1005,5.1075,5.1102,5.1102,5.1127,5.1171,5.1171,5.1156,5.1178,5.122,5.1278,5.1304,5.1296,5.1336,5.1349,5.1366,5.1386,5.1396,5.141,5.1394,5.1408,5.1403,5.1405,5.1405,5.1405,5.1405,5.1406,5.1406,5.1398,5.1408,5.1402,5.1394,5.141,5.1401,5.1391,5.1391,5.1313,5.1001,5.0942,5.0591,4.9435,4.8752,4.8089,4.7226,4.6579,4.6176,4.6104,4.6726,4.6756,4.5564,4.5428,4.5034,4.3872,4.2776,4.2044,4.1788,4.1575,4.1708,4.2299,4.2629,4.3044,4.361,4.2779,4.231,4.231,4.1443,4.0971,4.0943,4.0971,4.1138,4.1383,4.1082,4.1073,3.829,3.8704,3.8796,3.9575,3.9779,3.9764,3.9844,3.9936,4.0025,3.9924,4.0133,4.0578,4.1378,4.1604,4.2251,4.4011,4.4283,4.4517,4.5284,4.538,4.5381,0.0,0.0,0.0,0.0,0.0,0.0,4.9102,0.0,4.9739,5.0522,5.0644,5.074,5.0793,5.0793,5.0829,5.0885,5.0883,5.0929,5.1005,5.1053,5.1087,5.1101,5.1102,5.1095,5.1095,5.1095,5.1132,5.12,5.1269,5.1306,5.1315,5.1375,5.1362,5.1317,5.1369,5.1405,5.1396,5.141,5.1394,5.1398,5.1394,5.1398,5.1398,5.1398,5.1403,5.1386,5.1348,5.1327,5.1338,5.1324,5.134,5.1336,5.1336,5.1336,5.1102,5.0223,5.0048,4.956,4.7916,4.7565,4.7272,4.6435,4.6209,4.6111,4.6044,4.5296,4.4734,4.4707,4.4638,4.397,4.2374,4.217,4.1818,4.1065,4.1792,4.2356,4.2461,4.3285,4.3773,4.3773,4.2869,4.2344,4.2305,4.1447,4.1011,4.1006,4.1011,4.1432,4.2206,4.1393,4.1443,3.8164,3.9264,4.0124,4.044,4.0572,4.0796,4.1543,4.1819,4.1758,4.1188,4.1702,4.2165,4.1786,4.2236,0.0,4.4119,4.4709,0.0,4.536,4.5277,0.0,4.5256,0.0,4.5354,4.5562,4.5685,0.0,0.0,4.8971,4.9239,4.8846,5.0028,5.0702,5.0721,5.0721,5.0759,5.0829,5.0829,5.0863,5.0932,5.0941,5.099,5.102,5.1081,5.1095,5.1095,5.1095,5.1146,5.1189,5.1229,5.1249,5.1292,5.1328,5.1323,5.1291,5.1317,5.1369,5.14,5.1405,5.1401,5.1394,5.1402,5.1402,5.1402,5.1402,5.1405,5.1255,5.0619,5.0429,5.0428,5.0428,5.0422,5.0435,5.0422,5.0438,5.0204,4.938,4.9218,4.8889,4.7803,4.7081,4.6546,4.6275,4.5676,4.5241,4.5207,4.4456,4.413,4.4696,4.3675,4.2723,4.2256,4.1657,4.1227,4.1026,4.1836,4.2656,4.3333,4.4196,4.4664,4.4664,4.3763,4.2961,4.2305,4.1435,4.0993,4.1006,4.0993,4.1117,4.1331,4.1108,4.112,3.8621,3.9447,4.0037,4.0169,4.0221,4.029,4.0446,4.095,4.1165,4.0348,4.1121,4.1923,4.1832,4.1855,4.231,0.0,0.0,0.0,4.4683,4.4963,4.5148,0.0,4.5516,0.0,4.5769,4.6175,4.6698,0.0,4.8221,4.8933,4.9237,5.0163,5.0664,5.0702,5.0702,5.0721,5.0757,5.0793,5.081,5.0863,5.0893,5.0925,5.096,5.1024,5.1053,5.1053,0.0,5.1102,5.1147,5.1147,5.119,5.1248,5.1248,5.1256,5.1253,5.1253,5.1289,5.1349,5.1362,5.1388,5.1396,5.1396,5.1396,5.1401,5.1406,5.139,5.1301,5.0803,5.04,5.0093,5.0096,4.9844,4.9569,4.9564,4.9541,4.9305,4.8496,4.833,4.8061,4.7207,4.6323,4.5711,4.567,4.4947,4.4481,4.4851,4.3858,4.3376,4.4219,4.3133,4.2159,4.1758,4.1312,4.1039,4.1037,4.1876,4.2767,4.3634,4.4165,4.459,4.4981,4.3768,4.2836,4.2343,4.1467,4.1019,4.1031,4.1031,4.1037,4.1042,4.1039,4.102,3.9202,3.9455,3.9398,3.9514,3.9541,3.9354,3.8536,3.9209,3.9766,3.8895,0.0,4.1042,4.1745,4.1247,4.1268,4.2938,0.0,4.3172,4.3988,4.4712,4.5192,4.5192,4.5916,4.6396,4.6326,4.7131,4.7401,4.6793,4.7509,4.8644,5.0163,5.0356,5.051,5.0683,5.0702,5.0702,5.0702,5.0757,5.0775,5.0793,5.0841,5.0877,5.0899,5.0945,5.099,5.099,5.099,5.0965,5.095,5.1054,5.1081,5.1055,5.1152,5.1211,5.1211,5.1211,5.1239,5.1292,5.1287,5.1242,5.1226,5.1349,5.1394,5.1375,5.1255,5.1225,5.1176,5.0941,5.034,4.9742,4.9756,4.9232,4.8726,4.8726,4.867,4.8418,4.7595,4.7343,4.7031,4.6261,4.5411,4.4832,4.4836,4.4104,4.3768,4.4451,4.3222,4.2495,4.3251,4.2637,4.1864,4.1173,4.1103,4.1095,4.1109,4.1897,4.2721,4.3486,4.3642,4.3993,4.4629,4.3202,4.2354,4.2227,4.1421,4.1037,4.109,4.11,4.11,4.1094,4.11,4.1061,3.8841,3.9677,4.0272,4.03,4.03,4.0317,4.0237,4.0643,0.0,0.0,4.1036,4.2043,4.2198,4.2034,4.2438,4.4052,4.4157,4.4268,4.5036,4.5163,4.517,0.0,4.5932,4.6202,4.55,4.6273,0.0,0.0,4.7792,4.8064,4.8426,4.9123,4.9894,5.0683,5.0702,5.0702,5.0702,5.0702,5.0721,5.072,5.072,5.0756,5.081,5.0827,5.0861,5.0916,5.0916,0.0,5.0083,5.0809,5.075,5.0265,5.0948,5.1211,5.1211,5.1211,5.1211,5.122,5.122,5.0801,5.0352,5.1089,5.1343,5.1277,5.0542,5.0327,5.004,4.8571,4.8064,4.7939,4.7946,4.7888,4.7832,4.7832,4.7813,4.7562,4.6703,4.5961,4.5401,4.5252,4.4518,4.3935,4.3923,4.3192,4.268,4.2802,4.1974,4.1388,4.153,4.1408,4.1251,4.1111,4.1106,4.11,4.1104,4.19,4.2468,4.2614,4.3294,4.3447,4.2861,4.2549,4.2066,4.1334,4.1164,4.1091,4.1096,4.1105,4.109,4.1094,4.11,4.1086,3.9556,3.9741,3.9666,3.9676,3.9657,3.9602,3.9346,0.0,0.0,0.0,4.0665,4.1591,4.1661,4.1924,4.2393,4.3169,4.3904,4.4427,4.4652,4.5015,4.522,4.517,4.6358,4.7032,4.6634,4.7427,4.8077,4.8414,4.8097,4.8292,4.9207,4.9676,5.0141,5.0582,5.0603,5.0603,5.0603,5.0603,5.0604,5.0664,5.0645,5.0663,5.0757,5.0793,5.081,5.0846,5.0846,5.0677,5.0408,5.0868,5.0603,4.9984,5.0817,5.0875,5.0526,5.0992,5.1159,5.1092,5.0675,5.0286,4.9994,4.9952,4.9976,4.9912,4.9497,4.9406,4.9256,4.841,4.7855,4.7494,4.7502,4.721,4.6921,4.6924,4.6573,4.6124,4.5714,4.4933,4.4318,4.4316,4.3626,4.3021,4.3014,4.2307,4.1878,4.2331,4.1659,4.1254,4.1721,4.1372,4.1094,4.1108,4.1101,4.1097,4.1108,4.1478,4.191,4.2371,4.2363,4.2354,4.2409,4.1968,4.1525,4.1106,4.1096,4.1105,4.1105,4.1097,4.1101,4.1101,4.1105,4.1081,4.0086,3.9583,3.8888,3.8881,3.8752,3.8496,3.8085,3.8844,0.0,3.9165,4.0068,4.0949,4.1059,4.1502,4.1975,0.0,4.3388,4.4195,4.4288,4.4883,4.5321,4.5373,4.6838,0.0,4.7777,4.8632,0.0,4.878,4.8386,4.8752,5.0065,5.0358,5.0476,5.0495,5.0498,5.0404,5.0212,5.0212,5.0157,5.0045,5.0028,5.0087,5.0144,5.0373,5.0487,5.0524,5.0698,5.0728,5.067,5.0879,5.0511,4.9892,5.0752,5.0675,5.017,5.0849,5.1095,5.0984,5.0165,4.9779,4.9537,4.8682,4.8545,4.8677,4.8479,4.8456,4.8457,4.8295,4.7761,4.722,4.7231,4.6748,4.6225,4.6039,4.5473,4.4926,4.4754,4.4032,4.3414,4.3413,4.2713,4.2112,4.2123,4.1557,4.1322,4.2025,4.1537,4.135,4.2025,4.1523,4.1093,4.1093,4.1108,4.1101,4.1101,4.1091,4.1386,4.2085,4.1487,4.1417,4.2089,4.146,4.1105,4.1096,4.1109,4.1094,4.1097,4.1104,4.1108,4.1108,4.1109,4.1061,3.9391,3.9157,3.8881,3.8822,3.821,3.7679,3.7932,0.0,3.8727,3.9037,4.0109,4.0984,4.1006,4.1064,4.1595,4.3128,0.0,4.3844,4.5108,4.5342,4.5528,4.5873,0.0,0.0,4.7467,4.8503,4.8828,4.7979,4.8637,4.9113,4.9228,4.9977,5.0447,5.05,5.05,5.0117,4.9332,4.9332,4.8968,4.8239,4.8239,4.8239,4.8277,4.9067,4.9471,4.9567,5.0355,5.0364,0.0,5.0612,5.0477,4.9892,5.0765,5.1042,5.0984,5.1062,5.1101,5.0978,5.0106,4.9297,4.8507,4.7691,4.801,4.8554,4.7756,4.752,4.7381,4.6641,4.6378,4.6326,4.6326,4.6259,4.6016,4.5216,4.4963,4.4714,4.3977,4.3131,4.2516,4.2511,4.1815,4.1229,4.1211,4.1147,4.1127,4.1205,4.1147,4.1138,4.121,4.1146,4.1094,4.1094,4.1105,4.109,4.109,4.1093,4.1128,4.1205,4.1136,4.1143,4.1226,4.1133,4.1094,4.1094,4.1094,4.1097,4.1108,4.1108,4.1108,4.1108,4.1097,4.1052,4.0659,3.9872,3.878,3.875,3.8083,3.7716,3.8733,3.8731,3.8819,3.9908,4.0587,4.0999,4.1059,4.1448,4.1972,0.0,4.3033,4.344,4.3833,4.436,4.4901,4.5441,4.6854,0.0,0.0,0.0,4.9621,4.9209,4.9484,4.9707,4.9695,5.0073,5.0298,5.0325,4.9847,4.9449,4.9149,4.8611,4.8211,4.7947,4.8426,4.8696,4.8736,4.962,5.0024,5.0064,5.047,4.995,0.0,4.9757,4.9059,4.7643,4.9517,4.9949,4.9586,5.0666,5.0724,5.0143,4.9304,4.8458,4.7641,4.6787,4.6773,4.7028,4.6717,4.6619,4.6558,4.6283,4.6201,4.6196,4.6196,4.6195,4.5972,4.5114,4.4534,4.3953,4.3095,4.2233,4.1618,4.1624,4.1344,4.1094,4.1091,4.1105,4.1101,4.1101,4.1107,4.1091,4.1094,4.1101,4.0906,4.0424,4.0801,4.1099,4.1099,4.0663,4.0584,4.1071,4.065,4.06,4.1081,4.1101,4.0847,4.0333,4.0828,4.0847,4.0317,4.0324,4.0594,4.109,4.0525,4.0513,4.1457,4.0828,3.9731,3.9694,3.8887,3.8439,3.9823,3.9147,3.8761,4.0505,4.0738,4.0701,4.1046,4.1559,4.1882,0.0,4.2371,4.286,4.2874,4.3366,4.4193,4.5385,0.0,4.7327,0.0,4.9034,4.9419,4.9376,4.9348,4.9341,4.934,4.9365,4.9643,5.0144,4.9654,4.9258,4.9075,4.8487,4.8089,4.7884,4.8439,4.8747,4.8828,4.9693,4.9982,4.9773,5.0043,4.9317,0.0,4.9092,4.8385,4.6836,4.888,4.9311,4.8885,4.9868,4.9848,4.919,4.8366,4.7734,4.7132,4.6259,4.5972,4.6016,4.6046,4.6076,4.6113,4.616,4.6177,4.6166,4.6183,4.6196,4.5916,4.4777,4.4075,4.3378,4.226,4.1523,4.1097,4.1099,4.1111,4.1133,4.1133,4.1132,4.1112,4.1094,4.0898,4.074,4.0719,4.0486,4.0118,3.9559,3.9989,4.0346,4.0352,3.984,3.9765,4.0328,4.0045,4.0015,4.0346,4.0581,4.0304,3.9458,4.0285,4.0402,3.9809,3.979,4.0255,4.1072,4.0148,4.0169,4.1259,4.1836,4.2158,4.2063,4.0855,3.9977,4.1111,3.948,3.8325,4.0546,4.031,4.0,4.0929,4.1103,4.1039,4.084,4.1381,4.2049,4.2716,4.2756,4.359,0.0,4.5665,4.5814,4.7365,4.7652,4.7704,4.7632,4.775,0.0,4.7538,4.7523,4.8321,5.0051,5.0163,4.9806,4.9024,4.9056,4.864,4.7799,4.7818,4.7818,4.7837,4.8726,4.8715,4.8068,4.8873,4.8412,0.0,4.8775,4.9003,4.8454,4.9273,4.9605,4.9489,4.8705,4.8411,4.8295,4.7424,4.7143,4.7055,4.6183,4.5944,4.5991,4.5991,4.6055,4.6095,4.6095,4.6095,4.6122,4.6185,4.6205,4.5772,4.4027,4.3617,4.3136,4.1472,4.1115,4.1106,4.1092,4.1152,4.1191,4.1191,4.1191,4.1171,4.1114,4.0427,3.9897,3.9825,3.9064,3.8514,3.8526,3.853,3.8544,3.8625,3.8612,3.8613,3.8628,3.9379,3.9449,3.8671,3.939,3.9429,3.8632,3.939,3.9819,3.98,3.9802,4.0262,4.1072,4.0136,4.0167,4.1099,4.1036,4.0564,4.0545,3.9711,3.9204,4.0379,3.9161,3.8196,3.9723,3.942,3.9143,4.0058,4.0212,4.0539,4.1538,4.1784,0.0,4.203,4.291,0.0,4.5404,4.6692,4.7441,0.0,0.0,4.734,4.7447,4.7416,4.7372,4.7283,4.7307,4.7591,4.8226,4.7789,4.7462,4.7304,4.6721,4.6298,4.6043,4.7239,4.7796,4.777,4.9251,4.9816,4.9614,4.9329,4.803,4.6217,4.7253,4.659,4.5109,4.7109,4.7886,4.794,4.8261,4.8024,4.7463,4.7192,4.6756,4.6261,4.599,4.5912,4.5929,4.5929,4.5983,4.6037,4.6095,4.6095,4.6102,4.6122,4.6166,4.576,4.4014,4.3629,4.3207,4.1475,4.1101,4.1104,4.1093,4.1152,4.1191,4.1191,4.1168,4.0943,4.0369,4.0011,3.9614,3.8986,3.8662,3.8287,3.7749,3.7644,3.7862,3.8486,3.8023,3.7969,3.8552,3.8834,3.9136,3.9468,3.9722,3.9741,3.9488,3.9741,3.9852,3.9798,3.9794,3.9925,4.0156,4.0404,4.0663,4.0731,4.12,4.1128,4.1144,4.026,3.9561,4.0361,3.8974,3.7837,3.8888,3.8486,3.8284,3.9478,3.968,4.0003,4.0956,4.1272,0.0,0.0,0.0,0.0,4.4349,0.0,0.0,0.0,4.6512,4.6743,4.6762,4.6758,4.6749,4.6728,4.6437,4.6312,4.6365,4.6582,4.6776,4.6844,4.6344,4.61,4.6115,4.7213,4.7732,4.777,4.8865,4.9242,4.9005,4.8487,4.7107,0.0,4.6427,4.5806,4.439,4.6291,4.7028,4.7047,4.7287,4.7047,4.6617,4.6617,4.6278,4.586,4.586,4.5887,4.5893,4.5917,4.5972,4.6005,4.6056,4.6056,4.5998,4.5695,4.5643,4.5246,4.3526,4.3153,4.283,4.142,4.1108,4.1097,4.109,4.1131,4.1151,4.1151,4.0873,4.0472,3.9933,3.9283,3.8651,3.8077,3.7713,3.7337,3.684,3.6766,3.6961,3.7503,3.7097,3.7187,3.8042,3.8424,3.8843,3.939,3.9727,3.975,3.9418,3.9702,3.9845,3.9794,4.0106,3.989,3.9205,4.0353,4.0898,0.0,4.1729,4.2963,4.3044,4.1834,4.0643,4.0714,3.8885,0.0,3.8069,3.7566,3.7501,3.9141,3.9364,3.9403,3.9655,4.0253,0.0,0.0,4.1673,0.0,0.0,4.4386,0.0,4.4373,4.5363,4.5924,4.5632,4.5773,4.5857,4.581,4.5092,4.4704,4.467,4.6327,4.72,4.7238,4.7352,4.7395,4.7327,4.7453,4.7552,4.7605,4.7761,4.7467,0.0,4.6685,4.5837,4.4689,4.6067,4.622,4.5684,4.6482,4.681,4.6714,4.5973,4.575,4.58,4.5795,4.5791,4.58,4.58,4.5808,4.5829,4.5871,4.5953,4.5983,4.5938,4.5899,4.5735,4.4919,4.4714,4.43,4.2682,4.2359,4.2167,4.128,4.1108,4.1091,4.1099,4.1103,4.1087,4.1027,4.0384,3.9832,3.963,3.83,3.7258,3.7123,3.6397,3.5904,3.5889,3.5951,3.6001,3.5997,3.5996,3.6347,3.7159,3.8029,3.8534,3.8593,3.9383,3.9486,3.8783,3.9501,3.9891,3.9891,4.0643,4.0151,3.852,4.016,4.0898,3.6904,0.0,3.9568,3.9578,3.9267,3.8965,0.0,3.8521,3.7948,3.7486,0.0,3.7475,3.8546,3.8155,3.8529,4.1206,4.1625,4.1616,4.1711,4.2678,0.0,4.4429,4.5312,4.5533,4.4768,4.471,4.4748,4.4789,4.4785,4.4768,4.474,4.4617,4.4561,4.4617,4.5089,4.5407,4.5558,4.5594,4.5308,4.4712,4.6104,4.6431,4.5862,4.7248,4.779,4.7566,4.6321,4.5609,4.5312,4.5009,4.4814,4.4787,4.5654,4.5982,4.5979,4.5827,4.58,4.5795,4.5805,4.58,4.58,4.58,4.5388,4.4904,4.4918,4.5433,4.5867,4.5248,4.5084,4.488,4.4025,4.3836,4.3615,4.2552,4.2354,4.2167,4.1293,4.1104,4.1111,4.1091,4.1094,4.0896,4.0219,3.995,3.9361,3.8014,3.7483,3.6986,3.6289,3.6021,3.5904,3.5889,3.5951,3.6007,3.6001,3.5996,3.6087,3.6288,3.7118,3.7906,3.8573,3.8807,3.9415,4.0489,4.0647,4.0713,4.0713,4.0914,4.0777,4.0362,4.0722,4.0907,3.5245,3.7125,3.8993,3.8993,3.8691,3.8388,3.8408,0.0,0.0,0.0,0.0,3.7364,3.824,3.8272,3.8907,0.0,4.1419,0.0,0.0,0.0,4.362,4.4688,4.4782,4.4712,0.0,4.4477,4.4374,4.4373,4.4345,4.4362,4.4401,4.4421,4.4515,4.4608,4.4655,4.4758,4.487,4.4946,4.4763,4.4325,4.5363,4.5633,4.5273,4.6254,4.6738,4.6683,4.5477,4.5168,4.5437,4.4626,4.4547,4.4951,4.5466,4.5657,4.5657,4.5687,4.5719,4.5746,4.5742,4.552,4.5258,4.5258,4.4678,4.4001,4.4041,4.4388,4.4715,4.4284,4.4169,4.3996,4.3122,4.2952,4.2778,4.1903,4.1758,4.1666,4.1202,4.109,4.1097,4.1101,4.0789,4.0356,3.988,3.9158,3.8315,3.7352,3.686,3.6426,3.5967,3.5894,3.5904,3.5934,3.5978,3.5996,3.6001,3.6367,3.6776,3.7168,3.7636,3.8452,3.9693,3.9744,4.0164,4.1081,4.107,4.0831,4.0396,4.0809,4.0777,4.0362,4.0742,4.0898,3.4259,3.6762,3.9074,3.8933,3.8438,3.7953,3.7813,0.0,0.0,0.0,0.0,0.0,0.0,3.8791,0.0,0.0,0.0,0.0,4.2604,4.2506,4.2899,4.4556,4.3947,0.0,4.4233,4.4374,4.4344,4.4166,4.4258,4.4319,4.4367,4.4383,4.4477,4.4608,4.4662,4.4732,4.4729,4.489,4.491,4.4763,4.5001,4.5101,4.5105,4.5239,4.5339,4.5342,0.0,0.0,4.5343,4.4591,4.4762,4.5513,4.5568,4.5586,4.5586,4.5603,4.5577,4.5488,4.5353,4.4897,4.4394,4.4394,4.3794,4.3111,4.3157,4.3092,4.2988,4.3005,4.3158,4.3102,4.2247,4.2058,4.1921,4.1182,4.1045,4.11,4.1086,4.1091,4.1057,4.0933,4.0309,3.9724,3.9451,3.8221,3.7214,3.7024,3.6376,3.5908,3.5908,3.5914,3.5948,3.599,3.6004,3.6057,3.6184,3.6889,3.773,3.8726,3.8667,3.9296,4.0855,4.1035,4.1105,4.1103,4.1091,4.0714,3.9929,4.0641,4.0591,3.9829,4.0567,4.0898,3.3369,3.5015,3.627,3.5422,3.5666,3.5911,3.5107,0.0,0.0,0.0,0.0,0.0,0.0,3.8345,3.8849,0.0,0.0,4.1089,0.0,0.0,4.2924,4.4824,0.0,4.4186,4.4289,4.4151,4.4048,4.3949,4.4116,4.4221,4.4234,4.441,4.4533,4.4608,4.4716,4.4764,4.4764,4.4919,4.4676,4.4048,4.4808,4.4829,4.4246,4.501,4.5356,4.5281,0.0,4.4672,4.5341,4.4537,4.4709,4.5495,4.5513,4.555,4.5622,4.5657,4.5211,4.4495,4.3829,4.3511,4.3419,4.3414,4.2844,4.2202,4.2215,4.1745,4.119,4.1207,4.1779,4.2208,4.1412,4.1193,4.1162,4.1032,4.1058,4.1075,4.1019,4.1056,4.0881,4.014,3.9887,3.9321,3.7849,3.7391,3.6966,3.6203,3.6,3.5903,3.5891,3.5953,3.599,3.5997,3.6001,3.6306,3.7031,3.7226,3.797,3.9513,3.8977,3.9043,4.0033,4.0734,4.1095,4.11,4.1109,4.1039,4.0894,4.0961,4.0933,4.0793,4.0913,4.0927,3.2461,3.3607,3.4426,3.3891,3.5084,3.626,3.5762,0.0,0.0,0.0,0.0,0.0,0.0,0.0,3.9728,4.0414,0.0,4.0532,4.2161,4.1505,4.1699,0.0,0.0,4.3381,4.4364,4.4277,4.4128,4.4109,4.4207,4.4281,4.4356,4.4427,4.4524,4.4655,4.47,4.4796,4.4857,4.4948,4.4836,4.4512,4.5006,4.5044,4.4723,4.5144,4.5316,4.5258,0.0,4.4594,4.5281,4.4518,4.4691,4.5438,4.5457,4.5226,4.4857,4.4443,4.4036,4.3647,4.3312,4.2879,4.2507,4.2493,4.1928,4.1241,4.1233,4.1003,4.0745,4.0792,4.1139,4.1403,4.1041,4.0976,4.0991,4.0991,4.1025,4.1032,4.1006,4.1026,4.0791,3.9959,3.9424,3.8683,3.7425,3.681,3.637,3.5957,3.5898,3.5911,3.5897,3.5924,3.5958,3.6001,3.5997,3.6359,3.7237,3.7728,3.8512,3.9722,3.9896,4.0137,4.0524,4.0894,4.11,4.11,4.1106,4.1095,4.1095,4.1033,4.1006,4.0996,4.0965,4.0898,3.1833,3.2711,3.3389,3.3485,0.0,3.6686,3.6513,0.0,0.0,0.0,0.0,0.0,0.0,3.9599,0.0,4.0233,4.015,4.0333,4.0925,4.0734,4.123,4.3215,4.2862,4.2978,4.4364,4.4373,4.4255,4.4237,4.4285,4.4352,4.4437,4.4427,4.4496,4.4657,4.4714,4.4777,4.4895,4.4986,4.5023,4.5044,4.5199,4.5277,4.5297,4.5297,4.5297,4.5258,4.465,4.4726,4.526,4.469,4.471,4.5092,4.5093,4.4633,4.3899,4.3082,4.2787,4.2768,4.2622,4.2136,4.1576,4.1576,4.1133,4.0607,4.0621,4.0662,4.0725,4.0796,4.0867,4.0898,4.0917,4.0952,4.0996,4.1007,4.0988,4.0996,4.1007,4.1011,4.0701,3.9701,3.8954,3.8155,3.7072,3.6326,3.5885,3.5905,3.5905,3.5898,3.5908,3.5914,3.5943,3.5981,3.5994,3.6426,3.7484,3.8567,3.9451,4.0079,4.074,4.1093,4.1091,4.1097,4.1106,4.1096,4.1096,4.1111,4.11,4.1045,4.102,4.0996,4.0936,4.0858,3.1657,3.2658,3.3419,3.4202,0.0,0.0,3.556,0.0,0.0,0.0,0.0,0.0,0.0,3.9794,4.0233,3.9892,4.0536,4.1108,4.1094,0.0,4.3033,4.3288,4.3736,4.4065,4.4121,4.4177,4.4195,4.4109,4.4237,4.4285,4.4314,4.4449,4.4533,4.4599,4.4723,4.484,4.4895,4.5028,4.51,4.5201,4.5197,4.5239,4.5297,4.5297,4.5297,4.5297,4.5239,4.5239,4.5297,4.5241,4.4803,4.4192,4.4192,4.3751,4.2996,4.2132,4.1841,4.1777,4.0966,4.0673,4.0684,4.0616,4.0596,4.0603,4.0673,4.07,4.0726,4.0846,4.0897,4.0898,4.0971,4.0996,4.0988,4.0991,4.0999,4.1007,4.0991,4.1003,4.0519,3.891,3.854,3.7975,3.6281,3.5898,3.5838,3.5898,3.5898,3.5891,3.5908,3.5948,3.5981,3.6005,3.6005,3.6653,3.8284,3.9953,4.0938,4.1008,4.1073,4.1093,4.1108,4.1094,4.1091,4.1094,4.11,4.1091,4.1091,4.11,4.1071,4.0996,4.0932,4.084,3.1179,3.2324,3.34,3.3737,0.0,0.0,0.0,0.0,0.0,0.0,0.0,0.0,0.0,0.0,4.0148,4.0533,4.0839,4.1165,4.16,4.2066,4.2379,4.2388,4.2576,4.2706,4.2669,4.2716,4.2987,4.3492,4.3634,4.3915,4.4449,4.4515,4.457,4.4723,4.4731,4.4789,4.4895,4.4952,4.5014,4.5062,4.5192,4.5277,4.5297,4.5297,4.5275,4.5252,4.5275,4.5235,4.5132,4.4683,4.4282,4.3881,4.291,4.2374,4.2045,4.1234,4.0979,4.0938,4.0623,4.0527,4.0531,4.0508,4.0523,4.0539,4.0617,4.0654,4.0732,4.0812,4.0876,4.0917,4.0926,4.0935,4.0935,4.0945,4.0945,4.0954,4.0982,4.056,3.9991,3.9369,3.841,3.7475,3.6771,3.6215,3.5864,3.5838,3.5866,3.5891,3.5908,3.5919,3.5948,3.5934,3.6902,3.8026,3.9217,4.0413,4.111,4.1094,4.1093,4.1092,4.1107,4.1104,4.1105,4.1094,4.1109,4.11,4.11,4.1058,4.1006,4.0941,4.0869,4.0784,3.1116,3.209,3.3063,0.0,0.0,0.0,0.0,0.0,0.0,0.0,0.0,0.0,0.0,0.0,0.0,0.0,4.1361,4.1706,4.19,4.2117,4.2137,4.181,4.1773,4.1773,4.1782,4.2053,4.252,4.3175,4.3483,4.3914,4.4532,4.4524,4.4551,4.4712,4.4712,4.4745,4.4876,4.4914,4.4952,4.499,4.49,4.4989,4.5239,4.5237,4.5213,4.5192,4.5254,4.5061,4.4712,4.4204,4.3651,4.3,4.1705,4.1188,4.113,4.0626,4.0449,4.0466,4.0495,4.0479,4.0466,4.0492,4.0492,4.0492,4.0603,4.0654,4.07,4.0781,4.0826,4.0877,4.0878,4.0878,4.0907,4.0907,4.0917,4.0945,4.0982,4.0532,3.9945,3.94,3.8369,3.7389,3.6814,3.6258,3.5857,3.5838,3.5859,3.6002,3.6273,3.6317,3.642,3.6679,3.8029,3.9158,3.9751,4.0594,4.1093,4.111,4.111,4.1108,4.1099,4.1104,4.109,4.1109,4.109,4.1081,4.107,4.1026,4.0972,4.0896,4.0848,4.08,3.163,3.2001,3.2331,0.0,0.0,0.0,0.0,0.0,0.0,0.0,0.0,4.008,4.0017,0.0,0.0,4.0841,4.2141,4.2856,4.1932,4.2492,4.2669,4.18,4.1706,4.1716,4.1801,4.2454,4.3015,4.3294,4.3971,4.4411,4.4515,4.4515,4.4542,4.4605,4.4659,4.4726,4.48,4.4914,4.499,4.4971,4.4239,4.4315,4.5105,4.5096,4.5135,4.5201,4.5194,4.4737,4.3996,4.3977,4.3004,4.1399,4.0616,4.0291,4.0307,4.0307,4.0325,4.0415,4.0485,4.0468,4.0396,4.0492,4.0444,4.043,4.0646,4.0654,4.0629,4.0754,4.0807,4.0807,4.0807,4.0849,4.0907,4.0907,4.0945,4.1002,4.0991,4.098,4.047,3.8739,3.8397,3.7855,3.6202,3.5846,3.5829,3.5891,3.5898,3.6216,3.7073,3.7208,3.7545,3.8402,3.9287,3.9798,3.9803,4.0596,4.1093,4.1101,4.1103,4.1099,4.1094,4.1094,4.1109,4.1096,4.1105,4.1076,4.0994,4.0994,4.0953,4.0907,4.0898,4.0865,3.0976,3.1953,0.0,3.4107,0.0,0.0,0.0,0.0,0.0,0.0,0.0,4.0783,4.0722,0.0,0.0,4.2321,4.2305,4.2464,4.3368,4.3141,4.2541,4.1712,4.2121,4.2058,4.0905,4.1566,4.2342,4.3035,4.3296,4.3736,4.4449,4.4458,4.4468,4.4605,4.4632,4.4674,4.48,4.4221,4.3975,4.4013,4.3175,4.3582,4.5071,4.4509,4.4543,4.5052,4.5103,4.4627,4.3703,4.2572,4.1531,4.0635,4.0387,4.0291,4.0291,4.0289,4.0307,4.0362,4.0449,4.0468,4.0396,4.0492,4.0492,4.0492,4.0603,4.0646,4.0681,4.0725,4.0761,4.0792,4.0807,4.0798,4.0839,4.0888,4.0917,4.077,4.0205,3.9599,3.9023,3.8505,3.7444,3.6647,3.6675,3.6234,3.585,3.5834,3.5864,3.5983,3.6255,3.7361,3.821,3.8461,3.9279,4.004,4.0662,4.0957,4.1107,4.1099,4.1091,4.1101,4.1094,4.1101,4.1097,4.1096,4.1111,4.107,4.0993,4.0949,4.0915,4.0907,4.0856,4.0831,3.1441,3.221,0.0,3.4853,3.6382,3.7882,3.9541,0.0,0.0,0.0,0.0,4.1094,4.0939,4.1355,0.0,4.2502,4.2582,4.2809,4.3558,4.3132,4.26,4.2129,4.2222,4.1943,4.0987,4.1667,4.2377,4.2959,4.3303,4.3772,4.4421,4.4411,4.444,4.457,4.4578,4.4489,4.4241,4.3756,4.3359,4.3032,4.2181,4.255,4.3947,4.3506,4.3567,4.398,4.3748,4.3311,4.2696,4.1371,4.0595,4.0253,4.0234,4.0234,4.0253,4.0234,4.0252,4.0307,4.0396,4.0396,4.0396,4.0492,4.0508,4.0511,4.0573,4.0636,4.066,4.0694,4.072,4.0687,4.0374,4.0269,4.03,4.0373,4.0383,4.0159,3.9369,3.8774,3.8315,3.7996,3.7082,3.6414,3.6545,3.6173,3.585,3.5807,3.6421,3.6904,3.6923,3.8458,3.9541,3.9532,4.0005,4.0537,4.1066,4.1093,4.1099,4.1091,4.1104,4.1097,4.1094,4.1104,4.1097,4.1106,4.11,4.1078,4.1003,4.0963,4.0936,4.0908,4.0826,4.0792,3.2401,0.0,0.0,3.5993,3.6921,0.0,4.0536,4.0805,4.063,4.114,0.0,4.1154,4.0848,4.194,4.2621,4.1837,4.2804,4.3452,4.286,4.2724,4.2693,4.2767,4.2222,4.1805,4.1808,4.2456,4.2969,4.3069,4.3767,4.4244,4.4383,4.4401,4.443,4.4487,4.4551,4.4183,4.3401,4.3379,4.2931,4.207,4.1286,4.1259,4.1983,4.2185,4.2348,4.2436,4.1715,4.1393,4.132,4.046,4.0137,4.0176,4.0137,4.0157,4.0176,4.0137,4.0196,4.0288,4.0307,4.0362,4.0413,4.0492,4.0511,4.0499,4.0577,4.0607,4.0603,4.0673,4.0687,4.0507,3.9695,3.9495,3.948,3.9393,3.9423,3.9256,3.8466,3.828,3.8043,3.7235,3.7031,3.6756,3.6028,3.5838,3.5826,3.59,3.735,3.8429,3.8494,4.0017,4.107,4.1,4.1058,4.1107,4.1094,4.1091,4.1099,4.1097,4.1104,4.1104,4.1094,4.1101,4.1094,4.1095,4.1089,4.1059,4.101,4.0982,4.0956,4.0907,4.0818,4.0796,3.0927,3.2493,0.0,0.0,3.8569,4.0821,4.2183,4.1743,4.1011,4.092,4.1406,4.1581,4.0858,4.1409,4.1911,4.1657,4.1718,4.1981,4.2575,4.2548,4.2548,4.2693,4.3132,4.3169,4.252,4.3206,4.3701,4.3776,4.3899,4.4073,4.4314,4.4255,4.4285,4.4411,4.444,4.4102,4.3401,4.2679,4.1926,4.1167,4.0376,4.007,4.0258,4.1047,4.1764,4.236,4.1604,4.1266,4.1254,4.0499,4.0157,4.0137,4.0215,4.0215,4.0137,4.0157,4.0196,4.0233,4.027,4.0379,4.0482,4.0492,4.0508,4.0508,4.0523,4.0558,4.0588,4.0622,4.066,4.0507,3.9651,3.9463,3.9158,3.7868,3.8093,3.8364,3.7547,3.742,3.7189,3.627,3.6137,3.6093,3.5862,3.5815,3.6036,3.6725,3.7773,3.8481,3.85,4.0023,4.0833,4.014,4.0687,4.1093,4.1094,4.1105,4.1091,4.1108,4.1108,4.1101,4.11,4.11,4.1096,4.1095,4.1059,4.1023,4.101,4.0945,4.0907,4.0898,4.0828,4.0796,3.0359,0.0,0.0,3.7663,0.0,4.1686,4.2427,4.2151,4.1556,4.0923,4.1109,4.1338,4.1157,4.1427,4.1489,4.0963,4.1071,4.1383,4.2001,4.2276,4.2613,4.3198,4.3624,4.3684,4.3278,4.361,4.3883,4.3961,4.3929,4.3992,4.4244,4.4214,4.4244,4.4344,4.4383,4.3858,4.2675,4.2232,4.1405,4.0271,3.9857,3.9682,3.9714,4.0198,4.0688,4.1135,4.0719,4.0574,4.0642,4.0247,4.0057,4.0057,4.0077,4.0096,4.0057,4.0098,4.0138,4.0215,4.0289,4.0396,4.0499,4.0492,4.0489,4.0489,4.0489,4.0523,4.0558,4.0588,4.0636,4.037,3.9142,3.8839,3.8438,3.6781,3.7045,3.7453,3.6662,3.6506,3.6391,3.5944,3.5879,3.5898,3.5845,3.5811,3.6102,3.7012,3.7916,3.8643,3.9076,4.0281,4.093,4.0462,4.083,4.1093,4.1108,4.1099,4.1108,4.1108,4.1101,4.1109,4.1096,4.107,4.1046,4.1039,4.1011,4.098,4.0945,4.0917,4.0907,4.0907,4.0837,4.0792,3.0088,0.0,3.5708,3.9482,4.0941,0.0,4.2204,4.2276,4.2027,4.1323,4.0993,4.0904,4.1118,4.1375,4.1186,4.0055,4.0609,4.1254,4.1428,4.1857,4.2544,4.3569,4.3486,4.3361,4.3347,4.3379,4.3393,4.3426,4.3439,4.3553,4.3725,4.3725,4.3785,4.3855,4.3914,4.3222,4.1705,4.1755,4.1029,3.9602,3.9602,3.962,3.9677,3.9656,3.9712,3.9781,3.9804,3.9848,3.9975,3.9933,3.9954,3.9975,3.9933,3.9954,3.9996,3.9996,4.0118,4.0233,4.027,4.0396,4.0479,4.0354,4.0277,4.0258,4.0104,4.0162,4.0312,4.0361,4.0376,4.0044,3.8569,3.8092,3.7583,3.6065,3.625,3.659,3.5943,3.5818,3.582,3.5889,3.5897,3.5879,3.5872,3.5962,3.6343,3.726,3.8157,3.9033,3.9906,4.0652,4.1106,4.11,4.1105,4.1092,4.1091,4.1108,4.1108,4.1104,4.1105,4.1091,4.1081,4.1025,4.0988,4.0988,4.098,4.0963,4.0907,4.0898,4.0878,4.0869,4.0804,4.0776,0.0,0.0,3.7187,0.0,4.1298,4.1453,0.0,0.0,4.2088,0.0,4.2052,4.1043,3.9677,4.0429,4.0738,3.9227,4.0184,4.1126,4.1222,4.125,4.1668,4.2641,4.2118,4.1612,4.1567,4.1612,4.1594,4.1549,4.1594,4.1706,4.1853,4.1913,4.1983,4.2052,4.2052,4.167,4.0862,4.087,4.0427,3.9602,3.9521,3.9539,3.962,3.9545,3.9599,3.9712,3.9781,3.9804,3.9848,4.0015,4.0015,3.9911,4.0036,4.0036,3.9996,4.0057,4.0158,4.0289,4.0307,4.0394,4.0392,3.9681,3.945,3.9315,3.8565,3.8854,3.945,3.9465,3.9461,3.9259,3.8356,3.7604,3.6841,3.5911,3.5796,3.5854,3.581,3.5845,3.5898,3.5892,3.5852,3.5811,3.5815,3.6425,3.7238,3.8116,3.8974,3.987,4.0803,4.1022,4.1096,4.1101,4.1108,4.1092,4.1091,4.1108,4.1101,4.11,4.1096,4.107,4.1011,4.1003,4.098,4.0917,4.0917,4.0917,4.0907,4.0839,4.0818,4.0818,4.0745,4.0681,3.1534,3.4475,3.7353,0.0,4.0406,4.0708,4.0984,4.148,4.1836,4.1577,4.1468,4.1157,4.0399,4.04,4.027,3.954,3.9987,4.0611,4.1148,4.0754,4.0758,4.1709,4.1425,4.1172,4.1204,4.1204,4.1254,4.1348,4.1329,4.1373,4.1549,4.159,4.1619,4.1649,4.1688,4.1325,4.0606,4.0667,4.0314,3.9521,3.9539,3.9552,3.9532,3.9552,3.9607,3.9703,3.9731,3.9758,3.9804,3.9933,3.9954,3.9911,4.0015,4.0036,4.0017,4.0137,4.0177,4.0253,4.0326,4.007,3.9657,3.9377,3.8969,3.8584,3.87,3.8642,3.8661,3.9161,3.8945,3.8383,3.7577,3.7141,3.6698,3.5882,3.5727,3.5752,3.5795,3.5826,3.5853,3.5885,3.5845,3.5803,3.5799,3.6542,3.7447,3.8272,3.9176,4.0078,4.0983,4.1089,4.1106,4.1104,4.1092,4.1108,4.1091,4.1104,4.1094,4.1096,4.1056,4.102,4.0996,4.0952,4.0926,4.0907,4.0907,4.0878,4.0849,4.0798,4.0776,4.0742,4.0675,4.0621,0.0,0.0,3.6721,3.8604,3.9484,3.9871,0.0,0.0,4.1584,0.0,4.0818,4.1103,4.0901,4.0381,3.9958,3.99,3.99,4.0115,4.0817,4.0147,3.9913,4.0799,4.0662,4.0519,4.0565,4.0533,4.0583,4.0757,4.072,4.0732,4.0871,4.09,4.0948,4.0948,4.0998,4.0775,4.0198,4.0296,4.0064,3.9464,3.9489,3.9488,3.9492,3.9502,3.9533,3.962,3.9679,3.9731,3.9777,3.9823,3.9889,3.9933,3.9954,4.0017,4.0058,4.0157,4.0215,4.0234,4.0344,3.9957,3.9416,3.9288,3.867,3.8055,3.8493,3.8185,3.78,3.8454,3.818,3.7541,3.6947,3.6697,3.6419,3.5863,3.5754,3.5803,3.5791,3.5806,3.5813,3.5864,3.583,3.5873,3.609,3.688,3.7785,3.861,3.9513,4.0357,4.1013,4.1089,4.11,4.1116,4.1113,4.1101,4.1104,4.1097,4.1085,4.1081,4.1033,4.0999,4.1007,4.0943,4.0917,4.0907,4.0907,4.0888,4.0837,4.0784,4.075,4.07,4.0602,4.0559,0.0,3.4468,0.0,3.8246,3.899,3.9109,0.0,0.0,4.153,4.0514,4.0738,4.0855,4.0125,3.9945,3.9902,3.9905,3.9887,3.9932,4.0044,3.932,3.9087,3.9952,3.9381,3.8891,3.8836,3.8891,3.8891,3.8866,3.8891,3.8932,3.8951,3.9069,3.9155,3.9155,3.9203,3.924,3.9285,3.9391,3.9439,3.9408,3.9283,3.9303,3.9391,3.9261,3.9305,3.9444,3.962,3.9693,3.9717,3.9708,3.9826,3.9996,3.9933,4.0019,4.0196,4.0196,4.0234,4.0307,4.0307,4.0323,4.0204,3.938,3.8556,3.7785,3.7049,3.6795,3.6776,3.6814,3.6805,3.6771,3.68,3.6253,3.5704,3.5765,3.5791,3.5799,3.5803,3.5803,3.5803,3.5799,3.5799,3.6071,3.6887,3.7758,3.8626,3.95,4.0383,4.0974,4.1081,4.1106,4.1115,4.119,4.1131,4.1099,4.11,4.1105,4.1076,4.102,4.1,4.1006,4.0991,4.0999,4.0952,4.0907,4.0907,4.0888,4.0877,4.0764,4.07,4.07,4.0569,4.0504,0.0,0.0,0.0,3.5794,3.6738,3.7436,3.749,3.8865,3.9983,3.9489,3.9896,4.04,4.0551,4.0185,3.9868,3.9908,3.9882,3.9905,3.9918,3.9221,3.8817,3.9124,3.8903,3.875,3.8762,3.875,3.875,3.8822,3.8822,3.8822,3.8862,3.895,3.8979,3.8979,3.9064,3.9101,3.9129,3.9237,3.9253,3.9231,3.9309,3.932,3.9264,3.9303,3.9349,3.9418,3.9514,3.9564,3.9514,3.9689,3.9804,3.9889,4.0017,4.0118,4.0157,4.0215,4.0253,4.0234,4.0289,3.9982,3.9501,3.9191,3.8172,3.7118,3.7383,3.6692,3.5925,3.6481,3.6277,3.5949,3.5957,3.5821,3.5689,3.5779,3.5795,3.5795,3.5807,3.6242,3.6639,3.6634,3.7081,3.7575,3.7875,3.8665,3.9356,3.9714,4.0506,4.1075,4.11,4.114,4.1164,4.1191,4.1146,4.1108,4.1096,4.1091,4.1081,4.1007,4.1,4.0999,4.1007,4.0963,4.0926,4.0907,4.0858,4.0815,4.0761,4.072,4.0673,4.0631,4.0539,4.0492,3.1746,0.0,0.0,0.0,3.4882,3.5811,3.574,3.7178,3.8483,3.8238,3.8895,3.9588,3.9818,3.9607,3.9461,3.9829,3.9656,3.9502,3.9502,3.9263,3.9093,3.9093,3.9093,3.9124,3.9166,3.8885,3.8738,3.884,3.8792,0.0,3.8822,3.891,3.8921,3.8968,3.9036,3.9073,3.9073,3.9129,3.9146,3.9109,3.9237,3.9256,3.9165,3.924,3.9341,3.938,3.9401,3.9427,3.9452,3.967,3.9633,3.9494,3.9963,3.9966,3.9776,4.0158,4.0234,4.0176,4.0253,3.9908,3.9411,3.9122,3.8104,3.7028,3.7335,3.6415,3.5435,3.604,3.5854,3.5507,3.5528,3.5623,3.5736,3.5795,3.6025,3.6231,3.6234,3.6689,3.7097,3.71,3.7797,3.8494,3.8793,3.9344,3.9857,4.0188,4.073,4.11,4.1106,4.116,4.1191,4.1191,4.1144,4.1097,4.1106,4.1095,4.107,4.1007,4.102,4.0999,4.0968,4.0943,4.0917,4.0859,4.0826,4.0769,4.07,4.0681,4.0626,4.0607,4.0508,4.0427,0.0,0.0,0.0,0.0,0.0,0.0,3.466,0.0,3.7043,3.6802,3.7803,3.8497,3.7735,3.8076,3.8797,3.9682,3.9209,3.8707,3.8707,3.9386,3.9882,3.9863,3.9882,3.9882,3.9863,3.9166,3.8707,3.8707,3.8707,3.8707,3.8707,3.8762,3.8822,3.891,3.895,3.8997,3.8979,3.9045,3.9101,3.9101,3.9101,3.9101,3.9101,3.9101,3.9165,3.9298,3.9298,3.9401,3.9508,3.9665,3.9356,3.8879,3.9694,3.9584,3.9107,3.9986,4.0215,4.0117,4.0176,4.0177,4.0024,3.9166,3.8345,3.7519,3.6731,3.5943,3.5308,3.5383,3.5446,3.5534,3.5616,3.5766,3.587,3.5873,3.6511,3.7141,3.7133,3.7156,3.7178,3.7178,3.7879,3.8746,3.9595,3.9799,4.0126,4.0964,4.1094,4.1091,4.1091,4.1168,4.1191,4.1191,4.1142,4.1094,4.1097,4.1103,4.1064,4.1013,4.1059,4.1045,4.0913,4.096,4.0935,4.0807,4.0807,4.0761,4.07,4.0621,4.0612,4.0588,4.0463,4.0325,3.102,0.0,0.0,0.0,0.0,0.0,0.0,0.0,3.4783,3.5516,3.6435,3.7153,3.7298,3.7958,3.8394,3.8076,3.8314,3.8546,3.8546,3.9292,3.9585,3.8962,3.9488,3.9667,3.9093,3.8836,3.8707,0.0,3.8707,3.8707,3.8707,3.8762,3.8822,3.891,3.8939,3.8892,3.8851,3.8979,3.8979,3.8892,3.898,3.899,3.897,3.9044,3.9107,3.9171,3.9408,3.9526,3.9575,3.9712,3.9331,3.8755,3.9754,3.9623,3.8975,3.9948,4.0176,4.0057,4.0215,3.9834,3.9242,3.9032,3.8,3.6795,3.6583,3.593,3.5293,3.5315,3.5422,3.5663,3.6411,3.7103,3.7628,3.7672,3.7868,3.8045,3.8035,3.8537,3.8992,3.8976,3.9684,4.0369,4.0662,4.0725,4.0818,4.1052,4.1108,4.1125,4.1169,4.1191,4.1188,4.1124,4.1117,4.1094,4.1097,4.1091,4.1091,4.1065,4.1045,4.1011,4.0972,4.0935,4.0908,4.0877,4.0815,4.0745,4.0621,4.0621,4.0579,4.0523,4.0344,4.0196,0.0,0.0,0.0,0.0,0.0,0.0,3.178,3.2387,3.3072,0.0,3.5572,3.6202,3.6417,3.7076,3.7473,3.7033,3.7283,3.7734,3.8405,3.926,3.9607,3.9158,3.9562,3.9703,3.9213,3.8829,3.8609,3.8609,3.8609,3.8658,3.8707,3.875,3.878,3.881,3.8851,3.8851,3.8792,3.891,3.8939,3.8833,3.8931,3.8989,3.8997,3.9073,3.9181,3.9298,3.9502,3.9623,3.9693,3.9804,3.9375,3.8774,3.9734,3.9583,3.8915,3.9871,4.0117,3.9937,3.9737,3.9318,3.8804,3.8518,3.7773,3.7007,3.7041,3.6731,3.6393,3.643,3.651,3.6779,3.7385,3.7889,3.8287,3.838,3.8665,3.8899,3.893,3.9622,4.013,3.977,4.0434,4.1052,4.11,4.11,4.109,4.109,4.1097,4.111,4.1152,4.1151,4.114,4.1096,4.1109,4.109,4.11,4.1109,4.1097,4.1052,4.1025,4.0984,4.0949,4.0927,4.0897,4.0865,4.0757,4.0648,4.0515,4.0564,4.0504,4.0377,4.0234,4.0117,3.1399,3.0813,0.0,0.0,2.9304,0.0,3.0786,3.1108,3.1737,0.0,3.4749,3.5187,3.5124,3.5763,3.6221,3.6113,3.6109,3.6638,3.8144,3.9113,3.9676,3.9722,3.9827,3.9832,3.9713,3.8967,3.851,3.851,3.851,3.8559,3.8707,3.8707,3.8707,3.8707,3.875,3.8792,3.8792,3.8851,3.8881,3.8899,3.8976,3.9032,3.9098,3.9166,3.932,3.9502,3.957,3.9693,3.9826,3.9889,3.9458,3.8876,3.9673,3.9502,3.8895,3.9792,4.0015,3.9816,3.918,3.8896,3.8687,3.7985,3.7737,3.7733,3.7783,3.7868,3.7928,3.8007,3.8177,3.8357,3.8413,3.8461,3.8519,3.8641,3.9224,3.9779,3.9824,4.0461,4.0779,3.9999,4.0532,4.1096,4.1096,4.1097,4.1108,4.1108,4.1099,4.111,4.1094,4.1105,4.1091,4.1108,4.1097,4.1109,4.1105,4.1086,4.107,4.0994,4.0993,4.0976,4.0917,4.0898,4.0856,4.0788,4.0648,4.0515,4.0406,4.0508,4.0447,4.0196,4.0137,3.9998,3.2137,3.0869,2.9767,2.9454,0.0,0.0,2.9444,2.992,3.0753,0.0,3.2641,3.285,3.3286,3.4549,3.5043,3.3681,3.4999,3.6489,3.7332,3.8199,3.8747,3.8711,3.9401,3.9648,3.897,3.875,3.8658,3.8658,3.8658,3.8658,3.8707,3.8707,3.8707,3.8707,3.8689,3.8719,3.8719,3.8792,3.8847,3.8897,3.8968,3.9024,3.9105,3.9237,3.9327,3.943,3.9679,3.9804,3.9889,3.9954,3.948,3.8795,3.9652,3.9482,3.8835,3.9753,4.0057,3.9977,3.9946,3.9471,3.8861,3.8765,3.8339,3.7852,3.78,3.7924,3.8067,3.8143,3.869,3.9255,3.9247,3.9779,4.0315,4.0392,4.0578,4.0722,4.0738,4.0928,4.1031,4.0855,4.0964,4.11,4.1101,4.1108,4.1108,4.1108,4.1091,4.1107,4.1103,4.1101,4.1099,4.1097,4.109,4.1105,4.1096,4.105,4.1013,4.0994,4.0949,4.0935,4.0982,4.0878,4.0784,4.0725,4.0526,4.0441,4.0394,4.0377,4.0288,4.0215,4.0138,3.9654,3.256,3.149,3.0606,2.9644,0.0,0.0,0.0,2.9186,2.9794,3.1205,3.1781,3.212,3.2398,3.3043,3.3241,3.2372,3.3155,3.4099,3.4814,3.6625,3.7997,3.8413,3.8535,3.8585,3.8585,3.8224,3.8187,3.8572,3.8658,3.8707,3.8707,3.8627,3.8627,3.8707,3.8578,3.8578,3.8609,3.8701,3.8768,3.8854,3.8942,3.9054,3.9209,3.9305,3.9414,3.9561,3.9693,3.9823,3.9911,3.9895,3.9686,3.938,3.9781,3.9686,3.9361,3.9842,3.9994,3.9897,3.9621,3.9223,3.8861,3.8974,3.8759,3.8578,3.9016,3.9268,3.9399,3.9399,3.9777,4.0203,4.0169,4.0474,4.0819,4.0888,4.0937,4.0966,4.0991,4.1045,4.1094,4.1105,4.109,4.1097,4.1108,4.1108,4.1108,4.1108,4.1101,4.1092,4.111,4.1103,4.1097,4.1101,4.1101,4.1094,4.1096,4.1075,4.1033,4.1006,4.098,4.0945,4.0945,4.0848,4.0738,4.0602,4.0469,4.0372,4.0342,4.0252,4.0196,4.0196,3.964,3.9119,0.0,0.0,0.0,0.0,0.0,2.8443,0.0,0.0,0.0,3.017,3.0959,0.0,0.0,0.0,0.0,3.0865,0.0,0.0,0.0,3.4522,0.0,3.7484,3.7302,3.7319,3.7796,3.7241,3.7266,3.8217,3.8242,3.8346,3.8658,3.8687,3.881,3.8927,3.8729,3.8588,3.851,3.864,3.875,3.8833,3.8952,3.912,3.9333,3.9383,3.9526,3.9695,3.9746,3.98,3.9911,3.9838,3.9876,3.9984,3.9908,3.9889,3.9889,3.9889,3.9911,3.9838,3.9256,3.907,3.909,3.9221,3.9312,3.9514,4.0303,4.0612,4.0668,4.0629,4.0725,4.0834,4.0788,4.0788,4.0815,4.0869,4.0917,4.0927,4.0988,4.1058,4.11,4.1101,4.1108,4.1108,4.1108,4.1108,4.1091,4.1094,4.109,4.1094,4.1093,4.1103,4.1094,4.1111,4.1108,4.1101,4.11,4.11,4.1052,4.1003,4.0999,4.0945,4.0878,4.0804,4.0681,4.0504,4.0406,4.0358,4.027,4.0157,4.0041,3.9909,3.9085,3.8466,0.0,0.0,0.0,0.0,3.0419,0.0,0.0,0.0,2.7865,2.8685,0.0,0.0,0.0,0.0,0.0,0.0,0.0,0.0,3.0323,3.1881,3.336,3.4232,3.5612,3.6236,3.5549,3.5365,3.5904,3.7424,3.6875,3.7094,3.8546,3.9221,3.9632,3.9753,3.9564,3.9148,3.851,3.864,3.8762,3.8884,3.9027,3.9212,3.9491,3.9489,3.9575,3.9695,3.9838,3.9927,3.9968,3.9908,3.9905,3.9898,3.9841,3.9867,3.9889,3.9889,3.9933,3.9977,4.0022,4.0043,4.0062,4.0191,4.0293,4.0389,4.061,4.0662,4.0615,4.0668,4.0655,4.0648,4.07,4.0757,4.0807,4.0888,4.0954,4.0991,4.0999,4.1056,4.1105,4.11,4.1097,4.1108,4.1108,4.1108,4.1094,4.1107,4.1093,4.1093,4.1097,4.1101,4.1103,4.1091,4.1101,4.1094,4.109,4.105,4.1013,4.1006,4.0952,4.0869,4.0798,4.0694,4.0588,4.0504,4.0375,4.027,4.0215,4.0138,3.9717,3.8956,3.8719,3.7737,0.0,0.0,0.0,0.0,0.0,0.0,2.8552,0.0,2.7521,0.0,0.0,0.0,0.0,0.0,0.0,0.0,2.7486,0.0,0.0,0.0,3.077,0.0,0.0,0.0,3.3802,3.4605,3.5432,3.6066,3.5729,3.6248,3.7936,3.8125,3.8478,3.9085,3.8885,3.872,3.851,3.8615,3.8805,3.897,3.91,3.9275,3.9506,3.9489,3.9604,3.9754,3.9807,3.987,3.993,3.9825,3.9813,3.983,3.9755,3.9792,3.9867,3.9889,3.9933,4.0017,4.0138,4.0234,4.027,4.0411,4.0476,4.0504,4.0579,4.0621,4.0654,4.064,4.0681,4.072,4.0752,4.0781,4.0828,4.0936,4.0971,4.1003,4.1052,4.1081,4.1105,4.1096,4.1094,4.1091,4.1099,4.1094,4.1091,4.1099,4.1093,4.111,4.1091,4.1094,4.1094,4.1101,4.1097,4.1085,4.1042,4.1019,4.1006,4.0996,4.0936,4.0848,4.0761,4.0681,4.0631,4.0573,4.0394,4.0289,4.0252,3.9564,3.8816,3.8,3.7896,3.7128,3.7793,0.0,0.0,0.0,0.0,0.0,0.0,0.0,0.0,0.0,0.0,0.0,0.0,0.0,0.0,0.0,0.0,2.6194,0.0,2.7001,0.0,0.0,0.0,0.0,0.0,3.3474,3.406,3.4481,3.4229,3.4869,3.6812,3.7077,3.7603,3.8541,3.8569,3.8569,3.8559,3.8666,3.8823,3.8997,3.9137,3.9301,3.9496,3.9521,3.9618,3.9794,3.9813,3.9851,3.9889,3.9785,3.9788,3.982,3.9795,3.9816,3.986,3.9908,3.9954,4.0057,4.0177,4.0271,4.0358,4.0457,4.0504,4.0523,4.0543,4.0603,4.066,4.0646,4.0681,4.0745,4.0788,4.0815,4.0849,4.0952,4.0996,4.105,4.1085,4.11,4.11,4.1091,4.1094,4.1094,4.1101,4.1097,4.1091,4.1094,4.1093,4.1107,4.1091,4.1108,4.1101,4.1094,4.1109,4.1072,4.1019,4.0981,4.0964,4.0945,4.0888,4.0804,4.0694,4.0648,4.0612,4.0573,4.0394,4.0289,4.0271,3.9181,3.818,3.7343,3.7052,3.6381,0.0,0.0,0.0,3.5955,0.0,0.0,0.0,0.0,2.6569,0.0,0.0,0.0,0.0,0.0,0.0,0.0,0.0,0.0,0.0,0.0,0.0,0.0,0.0,0.0,0.0,3.1314,3.1028,0.0,3.2065,3.2629,3.4963,3.6552,3.7778,3.8689,3.9268,3.9287,3.8707,3.8759,3.8873,3.901,3.9128,3.9314,3.9491,3.9566,3.9659,3.9794,3.987,3.9889,3.9908,3.991,3.9881,3.9896,3.997,4.0005,3.9993,3.9905,3.9975,4.0137,4.0252,4.0375,4.0489,4.0489,4.0539,4.0592,4.06,4.0596,4.0617,4.0688,4.0642,4.0635,4.0776,4.0848,4.0897,4.0904,4.0991,4.1104,4.111,4.1109,4.11,4.11,4.109,4.1108,4.1111,4.1111,4.1094,4.1105,4.1094,4.1103,4.1091,4.1101,4.1094,4.1094,4.1091,4.1095,4.1095,4.0979,4.0878,4.0818,4.0742,4.0694,4.0694,4.0579,4.0523,4.0504,4.0358,4.0252,4.0196,3.9259,3.8241,3.7197,3.6336,3.5356,0.0,0.0,3.9414,3.789,0.0,0.0,0.0,0.0,0.0,0.0,0.0,0.0,0.0,0.0,0.0,0.0,0.0,0.0,0.0,0.0,0.0,0.0,0.0,0.0,0.0,0.0,0.0,3.0524,3.0674,0.0,3.4268,3.5247,3.6399,3.7796,3.8486,3.8792,3.878,3.8802,3.8924,3.9202,3.9295,3.9447,3.9626,3.9703,3.9785,3.987,3.9987,3.9968,3.9832,3.9936,3.9911,3.9849,3.9865,3.9943,4.0059,4.0039,4.0078,4.0176,4.0325,4.0425,4.0489,4.0489,4.0523,4.0539,4.0583,4.0598,4.0607,4.0732,4.0745,4.0757,4.0848,4.0888,4.0906,4.0957,4.1006,4.1039,4.1084,4.11,4.1096,4.1094,4.1091,4.1099,4.1169,4.1131,4.1112,4.1152,4.1129,4.1091,4.109,4.1105,4.1096,4.1091,4.11,4.1089,4.1046,4.0949,4.0878,4.0787,4.0792,4.0745,4.0694,4.0607,4.0549,4.0504,4.0358,4.0272,4.0196,3.918,3.8464,3.8011,3.6539,3.5273,4.1331,4.1097,0.0,3.8847,3.7734,0.0,3.5151,0.0,3.346,0.0,0.0,0.0,0.0,0.0,0.0,0.0,0.0,0.0,0.0,2.5338,0.0,0.0,0.0,0.0,0.0,2.9043,2.9362,2.9347,2.9505,0.0,0.0,3.406,3.5303,3.6974,3.7986,3.8603,3.884,3.8839,3.8999,3.9322,3.9388,3.9521,3.9741,3.983,3.9905,3.9979,4.0106,4.007,3.9963,4.0049,4.0015,3.9948,3.9948,4.0043,4.0177,4.0118,4.0157,4.0291,4.036,4.0441,4.0489,4.0489,4.0508,4.0539,4.0582,4.0623,4.0649,4.0765,4.0796,4.0815,4.0888,4.0917,4.0954,4.0996,4.1006,4.1,4.1064,4.1086,4.1105,4.1097,4.1101,4.1111,4.115,4.1128,4.1116,4.1167,4.1138,4.1097,4.11,4.1091,4.1106,4.1095,4.1084,4.1046,4.0957,4.0926,4.0868,4.0796,4.0788,4.0739,4.07,4.0607,4.0515,4.0473,4.0358,4.0272,4.0157,3.9161,3.8618,3.8445,3.6975,3.5895]},{"header":{"parameterUnit":"m.s-1","parameterCategory":1,"la1":30.6,"la2":29.2853,"lo1":-89.7004,"lo2":-87.6739,"dy":0.0162,"dx":0.0183,"nx":112,"ny":82,"refTime":"2024-08-09T00:00:00:Z","depth":0,"parameterNumber":3,"parameterNumberName":"V-component_of_WINDS"},"data":[0.0,0.0,0.0,0.0,0.0,0.0,0.0,0.0,0.0,0.0,0.0,0.0,0.0,0.0,0.0,0.0,0.0,0.0,0.0,0.0,0.0,0.0,0.0,0.0,0.0,0.0,0.0,0.0,0.0,0.0,0.0,0.0,0.0,0.0,0.0,0.0,0.0,0.0,0.0,0.0,0.0,0.0,0.0,0.0,0.0,0.0,0.0,0.0,0.0,0.0,0.0,0.0,0.0,0.0,0.0,0.0,0.0,0.0,0.0,0.0,0.0,0.0,0.0,0.0,0.0,0.0,0.0,0.0,0.0,0.0,0.0,0.0,0.0,0.0,0.0,0.0,0.0,0.0,0.0,0.0,0.0,0.0,0.0,0.0,0.0,0.0,0.0,0.0,0.0,0.0,-1.1508,-1.1339,-0.9865,-0.8827,-0.8522,-0.8164,-0.7703,-0.7202,0.0,0.0,0.0,0.0,0.0,0.0,0.0,0.0,0.0,0.0,0.0,0.0,0.0,0.0,0.0,0.0,0.0,0.0,0.0,0.0,0.0,0.0,0.0,0.0,0.0,0.0,0.0,0.0,0.0,0.0,0.0,0.0,0.0,0.0,0.0,0.0,0.0,0.0,0.0,0.0,0.0,0.0,0.0,0.0,0.0,0.0,0.0,0.0,0.0,0.0,0.0,0.0,0.0,0.0,0.0,0.0,0.0,0.0,0.0,0.0,0.0,0.0,0.0,0.0,0.0,0.0,0.0,0.0,0.0,0.0,0.0,0.0,0.0,0.0,0.0,0.0,0.0,0.0,0.0,0.0,0.0,0.0,0.0,0.0,0.0,0.0,0.0,0.0,0.0,0.0,0.0,0.0,0.0,0.0,0.0,0.0,0.0,0.0,0.0,0.0,0.0,0.0,0.0,0.0,-1.1045,-1.0502,-1.0197,-0.9933,-0.9644,-0.8714,-0.8313,-0.8618,0.0,0.0,0.0,0.0,0.0,0.0,0.0,0.0,0.0,0.0,0.0,0.0,0.0,0.0,0.0,0.0,0.0,0.0,0.0,0.0,0.0,0.0,0.0,0.0,0.0,0.0,0.0,0.0,0.0,0.0,0.0,0.0,0.0,0.0,0.0,0.0,0.0,0.0,0.0,0.0,0.0,0.0,0.0,0.0,0.0,0.0,0.0,0.0,0.0,0.0,0.0,0.0,0.0,0.0,0.0,0.0,0.0,0.0,0.0,0.0,0.0,0.0,0.0,0.0,0.0,0.0,0.0,0.0,0.0,0.0,0.0,0.0,0.0,0.0,0.0,0.0,0.0,0.0,0.0,0.0,0.0,0.0,0.0,0.0,0.0,0.0,0.0,0.0,0.0,0.0,0.0,0.0,0.0,0.0,0.0,0.0,0.0,0.0,0.0,0.0,0.0,0.0,0.0,-1.206,-1.1081,-1.0348,-1.0322,-1.0039,-0.9483,-0.8974,-0.8585,-0.8506,-0.8558,0.0,0.0,0.0,0.0,0.0,0.0,0.0,0.0,0.0,0.0,0.0,0.0,0.0,0.0,0.0,0.0,0.0,0.0,0.0,0.0,0.0,0.0,0.0,0.0,0.0,0.0,0.0,0.0,0.0,0.0,0.0,0.0,0.0,0.0,0.0,0.0,0.0,0.0,0.0,0.0,0.0,0.0,0.0,0.0,0.0,0.0,0.0,0.0,0.0,0.0,0.0,0.0,0.0,0.0,0.0,0.0,0.0,0.0,0.0,0.0,0.0,0.0,0.0,0.0,0.0,0.0,0.0,0.0,0.0,0.0,0.0,0.0,0.0,0.0,0.0,0.0,0.0,0.0,0.0,0.0,0.0,0.0,0.0,0.0,0.0,0.0,0.0,0.0,0.0,0.0,0.0,0.0,0.0,0.0,0.0,0.0,0.0,0.0,0.0,0.0,0.0,0.0,-1.2054,-1.1335,-1.0629,-1.0513,-1.029,-0.9644,-0.9311,-0.9048,-0.86,-0.8621,0.0,0.0,0.0,0.0,0.0,0.0,0.0,0.0,0.0,0.0,0.0,0.0,0.0,0.0,0.0,0.0,0.0,0.0,0.0,0.0,0.0,0.0,0.0,0.0,0.0,0.0,0.0,0.0,0.0,0.0,0.0,0.0,0.0,0.0,0.0,0.0,0.0,0.0,0.0,0.0,0.0,0.0,0.0,0.0,0.0,0.0,0.0,0.0,0.0,0.0,0.0,0.0,0.0,0.0,0.0,0.0,0.0,0.0,0.0,0.0,0.0,0.0,0.0,0.0,0.0,0.0,0.0,0.0,0.0,0.0,0.0,0.0,0.0,0.0,0.0,0.0,0.0,0.0,0.0,0.0,0.0,0.0,0.0,0.0,0.0,0.0,0.0,0.0,0.0,0.0,0.0,0.0,0.0,0.0,0.0,0.0,0.0,0.0,0.0,0.0,0.0,0.0,-1.2138,-1.1846,-1.1252,-1.1273,-1.1081,-1.071,-1.0204,-0.9878,-1.008,-0.9347,0.0,0.0,0.0,0.0,0.0,0.0,0.0,0.0,0.0,0.0,0.0,0.0,0.0,0.0,0.0,0.0,0.0,0.0,0.0,0.0,0.0,0.0,0.0,0.0,0.0,0.0,0.0,0.0,0.0,0.0,0.0,0.0,0.0,0.0,0.0,0.0,0.0,0.0,0.0,0.0,0.0,0.0,0.0,0.0,0.0,0.0,0.0,0.0,0.0,0.0,0.0,0.0,0.0,0.0,0.0,0.0,0.0,0.0,0.0,0.0,0.0,0.0,0.0,0.0,0.0,0.0,0.0,0.0,0.0,0.0,0.0,0.0,0.0,0.0,0.0,0.0,0.0,0.0,0.0,0.0,0.0,0.0,0.0,0.0,0.0,0.0,0.0,0.0,0.0,0.0,0.0,0.0,0.0,0.0,0.0,0.0,0.0,0.0,0.0,0.0,0.0,0.0,-1.1854,-1.1337,0.0,-1.1359,-1.1213,-1.0706,-1.0216,-1.0078,-1.0182,0.0,0.0,0.0,0.0,0.0,0.0,0.0,0.0,0.0,0.0,0.0,0.0,0.0,0.0,0.0,0.0,0.0,0.0,0.0,0.0,0.0,0.0,0.0,0.0,0.0,0.0,0.0,0.0,0.0,0.0,0.0,0.0,0.0,0.0,0.0,0.0,0.0,0.0,0.0,0.0,0.0,0.0,0.0,0.0,0.0,0.0,0.0,0.0,0.0,0.0,0.0,0.0,0.0,0.0,0.0,0.0,0.0,0.0,0.0,0.0,0.0,0.0,0.0,0.0,0.0,0.0,0.0,0.0,0.0,0.0,0.0,0.0,0.0,0.0,0.0,0.0,0.0,0.0,0.0,0.0,0.0,0.0,0.0,0.0,0.0,0.0,0.0,0.0,0.0,0.0,0.0,0.0,0.0,0.0,0.0,0.0,0.0,0.0,0.0,0.0,0.0,0.0,-1.2638,-1.1665,-1.0963,0.0,-1.1376,-1.123,-1.0692,-1.0423,-1.0295,-1.0295,0.0,0.0,0.0,0.0,0.0,0.0,0.0,0.0,0.0,0.0,0.0,0.0,0.0,0.0,0.0,0.0,0.0,0.0,0.0,0.0,0.0,0.0,0.0,0.0,0.0,0.0,0.0,0.0,0.0,0.0,0.0,0.0,0.0,0.0,0.0,0.0,0.0,0.0,0.0,0.0,0.0,0.0,0.0,0.0,0.0,0.0,0.0,0.0,0.0,0.0,0.0,0.0,0.0,0.0,0.0,0.0,0.0,0.0,0.0,0.0,0.0,0.0,0.0,0.0,0.0,0.0,0.0,0.0,0.0,0.0,0.0,0.0,0.0,0.0,0.0,0.0,0.0,0.0,0.0,0.0,0.0,0.0,0.0,0.0,0.0,0.0,0.0,0.0,0.0,0.0,0.0,0.0,0.0,0.0,0.0,0.0,0.0,0.0,0.0,0.0,0.0,0.0,-1.2852,-1.1629,-1.083,-1.1487,-1.1367,-1.1158,-1.108,-1.0747,-1.0486,0.0,0.0,0.0,0.0,0.0,0.0,0.0,0.0,0.0,0.0,0.0,0.0,0.0,0.0,0.0,0.0,0.0,0.0,0.0,0.0,0.0,0.0,0.0,0.0,0.0,0.0,0.0,0.0,0.0,0.0,0.0,0.0,0.0,0.0,0.0,0.0,0.0,0.0,0.0,0.0,0.0,0.0,0.0,0.0,0.0,0.0,0.0,0.0,0.0,0.0,0.0,0.0,0.0,0.0,0.0,0.0,0.0,0.0,0.0,0.0,0.0,0.0,0.0,0.0,0.0,0.0,0.0,0.0,0.0,0.0,0.0,0.0,0.0,0.0,0.0,0.0,0.0,0.0,0.0,0.0,0.0,0.0,0.0,0.0,0.0,0.0,0.0,0.0,0.0,0.0,0.0,0.0,0.0,0.0,0.0,0.0,0.0,0.0,0.0,0.0,0.0,0.0,0.0,-1.2447,-1.1674,-1.1161,-1.1328,-1.1404,-1.1413,-1.1089,-1.052,-1.018,-1.0112,0.0,0.0,0.0,0.0,0.0,0.0,0.0,0.0,0.0,0.0,0.0,0.0,0.0,0.0,0.0,0.0,0.0,0.0,0.0,0.0,0.0,0.0,0.0,0.0,0.0,0.0,0.0,0.0,0.0,0.0,0.0,0.0,0.0,0.0,0.0,0.0,0.0,0.0,0.0,0.0,0.0,0.0,0.0,0.0,0.0,0.0,0.0,0.0,0.0,0.0,0.0,0.0,0.0,0.0,0.0,0.0,0.0,0.0,0.0,0.0,0.0,0.0,0.0,0.0,0.0,0.0,0.0,0.0,0.0,0.0,0.0,0.0,0.0,0.0,0.0,0.0,0.0,0.0,0.0,0.0,0.0,0.0,0.0,0.0,0.0,0.0,0.0,0.0,0.0,0.0,0.0,0.0,0.0,0.0,0.0,0.0,0.0,0.0,0.0,0.0,0.0,0.0,-1.2248,-1.1516,-1.0997,-1.139,-1.1545,-1.1544,-1.133,-1.069,-1.0214,-1.008,0.0,0.0,0.0,0.0,0.0,0.0,0.0,0.0,0.0,0.0,0.0,0.0,0.0,0.0,0.0,0.0,0.0,0.0,0.0,0.0,0.0,0.0,0.0,0.0,0.0,0.0,0.0,0.0,0.0,0.0,0.0,0.0,0.0,0.0,0.0,0.0,0.0,0.0,0.0,0.0,0.0,0.0,0.0,0.0,0.0,0.0,0.0,0.0,0.0,0.0,0.0,0.0,0.0,0.0,0.0,0.0,0.0,0.0,0.0,0.0,0.0,0.0,0.0,0.0,0.0,0.0,0.0,0.0,0.0,0.0,0.0,0.0,0.0,0.0,0.0,0.0,0.0,0.0,0.0,0.0,0.0,0.0,0.0,0.0,0.0,0.0,0.0,0.0,0.0,0.0,0.0,0.0,0.0,0.0,0.0,0.0,0.0,0.0,0.0,0.0,0.0,0.0,-1.2207,-1.1118,-1.0649,-1.1754,-1.162,-1.1587,-1.1681,-1.1138,-1.0553,-1.0193,0.0,0.0,0.0,0.0,0.0,0.0,0.0,0.0,0.0,0.0,0.0,0.0,0.0,0.0,0.0,0.0,0.0,0.0,0.0,0.0,0.0,0.0,0.0,0.0,0.0,0.0,0.0,0.0,0.0,0.0,0.0,0.0,0.0,0.0,0.0,0.0,0.0,0.0,0.0,0.0,0.0,0.0,0.0,0.0,0.0,0.0,0.0,0.0,0.0,0.0,0.0,0.0,0.0,0.0,0.0,0.0,0.0,0.0,0.0,0.0,-0.0987,0.0,0.0,0.0,0.0,0.0,0.0,0.0,0.0,0.0,0.0,0.0,0.0,0.0,0.0,0.0,0.0,0.0,0.0,0.0,0.0,0.0,0.0,0.0,0.0,0.0,0.0,0.0,0.0,0.0,0.0,0.0,0.0,0.0,0.0,0.0,0.0,0.0,0.0,0.0,0.0,0.0,-1.227,-1.1452,-1.1005,-1.1568,-1.1515,-1.1587,-1.1681,-1.1129,-1.0558,-1.0275,-0.9474,0.0,0.0,0.0,0.0,0.0,0.0,0.0,0.0,0.0,0.0,0.0,0.0,0.0,0.0,0.0,0.0,0.0,0.0,0.0,0.0,0.0,0.0,0.0,0.0,0.0,0.0,0.0,0.0,0.0,0.0,0.0,0.0,0.0,0.0,0.0,0.0,0.0,0.0,0.0,0.0,0.0,0.0,0.0,0.0,0.0,0.0,0.0,0.0,0.0,0.0,0.0,0.0,0.0,0.0,0.0,0.0,0.0,0.0,0.0,0.0,0.0,0.0,0.0,0.0,0.0,0.0,0.0,0.0,0.0,0.0,0.0,0.0,0.0,0.0,0.0,0.0,0.0,0.0,0.0,0.0,0.0,0.0,0.0,0.0,0.0,0.0,0.0,0.0,0.0,0.0,0.0,0.0,0.0,0.0,0.0,0.0,0.0,0.0,0.0,0.0,0.0,-1.2052,-1.1268,-1.0909,-1.1614,-1.1756,-1.184,-1.2042,-1.1268,-1.063,-1.0326,-0.9254,0.0,0.0,0.0,0.0,0.0,0.0,0.0,0.0,0.0,0.0,0.0,0.0,0.0,0.0,0.0,0.0,0.0,0.0,0.0,0.0,0.0,0.0,0.0,0.0,0.0,0.0,0.0,0.0,0.0,0.0,0.0,0.0,0.0,0.0,0.0,0.0,0.0,0.0,0.0,0.0,0.0,0.0,0.0,0.0,0.0,0.0,0.0,0.0,0.0,0.0,0.0,0.0,0.0,0.0402,0.0815,0.1841,0.1758,0.1758,0.1833,0.1229,0.09,0.0838,0.0899,0.0,0.0,0.0,0.0,0.0,0.0,0.0,0.0,0.0,0.0,0.0,0.0,0.0,0.0,0.0,0.0,0.0,0.0,0.0,0.0,0.0,0.0,0.0,0.0,-0.5221,-0.5358,-0.6583,0.0,0.0,0.0,0.0,0.0,0.0,0.0,0.0,0.0,0.0,0.0,-1.181,-1.1154,-1.0802,-1.1676,-1.1906,-1.2103,-1.2262,-1.1544,-1.0911,-1.0223,-0.9135,-0.8199,0.0,0.0,0.0,0.0,0.0,0.0,0.0,0.0,0.0,0.0,0.0,0.0,0.0,0.0,0.0,0.0,0.0,0.0,0.0,0.0,0.0,0.0,0.0,0.0,0.0,0.0,0.0,0.0,0.0,0.0,0.0,0.0,0.0059,0.1749,0.0,0.0,0.0,0.0,0.0,0.0,0.0,0.0,0.0,0.0,0.0,0.0,0.0,-0.0219,-0.0231,0.0551,0.1072,0.1323,0.1235,0.1351,0.159,0.159,0.159,0.1587,0.1633,0.0,0.1683,0.0911,0.0,0.0,0.0,0.0,0.0,0.0,0.0,0.0,0.0,0.0,0.0,0.0,0.0,0.0,0.0,0.0,0.0,0.0,0.0,0.0,0.0,0.0,-0.5998,-0.6007,-0.6005,-0.6213,0.0,-0.6671,-0.6563,-0.6935,-0.7877,0.0,0.0,0.0,0.0,0.0,0.0,0.0,-1.202,-1.1293,-1.0853,-1.138,-1.159,-1.1727,-1.175,-1.1704,-1.1203,-1.0344,-0.9585,-0.868,-0.7545,-0.6609,0.0,0.0,0.0,0.0,0.0,0.0,0.0,0.0,0.0,0.0,0.0,0.0,0.0,0.0,0.0,0.0,0.0,0.0,0.0,0.0,0.0,0.0,0.0,0.0,0.0,0.0,0.0,0.0,0.0,-0.0687,0.0628,0.2232,0.2286,0.2151,0.0,0.0,0.0,0.0,0.0,0.0,0.0,0.0,0.0,0.0147,0.0539,0.0724,0.0749,0.1192,0.1406,0.1461,0.1478,0.15,0.1526,0.1526,0.1526,0.1525,0.1796,0.1753,0.1685,0.1408,0.1608,0.199,0.0,0.0,0.0,0.0,-0.0199,-0.0,0.014,0.0433,0.0811,0.0737,0.0,0.0,0.0,0.0,0.0,0.0,0.0,0.0,0.0,0.0,-0.5629,-0.6054,-0.6244,-0.6488,-0.7014,-0.6966,-0.6789,0.0,-0.7462,-0.8048,-0.8417,0.0,0.0,0.0,0.0,-1.1168,-1.1421,-1.1005,-1.0782,-1.1173,-1.1485,-1.1652,-1.1652,-1.146,-1.0941,-1.005,-0.9272,-0.8361,-0.7333,-0.642,-0.5902,0.0,0.0,0.0,0.0,0.0,0.0,0.0,0.0,0.0,0.0,0.0,0.0,0.0,0.0,0.0,0.0,0.0,0.0,0.0,0.0,0.0,0.0,0.0,0.0,0.0,0.0,0.0,0.0,-0.0187,0.1066,0.2622,0.3424,0.36,0.0,0.0,0.0,0.0,0.0,0.0,0.0727,0.0849,0.096,0.1288,0.1416,0.1461,0.1412,0.1436,0.1466,0.1504,0.1622,0.1542,0.1549,0.1549,0.1646,0.1646,0.184,0.193,0.172,0.1868,0.1891,0.1783,0.1182,0.0979,0.1031,0.0515,0.0517,0.0824,0.1022,0.1472,0.1849,0.1755,0.1842,0.1751,0.0398,0.0,0.0,0.0,0.0,-0.4175,-0.4855,-0.5132,-0.5415,-0.5989,-0.6415,-0.6801,-0.7219,-0.7321,-0.7364,0.0,-0.7336,-0.7757,-0.8195,0.0,0.0,0.0,0.0,-1.0648,-1.09,-1.0672,-1.0634,-1.0871,-1.1318,-1.1482,-1.1311,-1.1098,-1.0589,-0.9729,-0.8906,-0.8024,-0.7189,-0.6381,-0.5928,-0.5593,0.0,0.0,0.0,0.0,0.0,0.0,0.0,0.0,0.0,0.0,0.0,0.0,0.0,0.0,0.0,0.0,0.0,0.0,0.0,0.0,0.0,0.0,0.0,0.0,0.0,0.0,0.0,0.0,0.0,0.291,0.407,0.0,0.0,0.0,0.0,0.3684,0.2617,0.2206,0.2822,0.273,0.271,0.2768,0.2167,0.1682,0.1383,0.1478,0.1508,0.1567,0.1568,0.1584,0.1612,0.1612,0.1713,0.2016,0.2114,0.229,0.2343,0.2062,0.1821,0.1785,0.148,0.1615,0.1917,0.1667,0.1605,0.163,0.1686,0.1747,0.1742,0.1438,0.172,0.1918,0.035,-0.0604,0.0,0.0,-0.3678,-0.4474,-0.448,-0.5046,-0.5821,-0.623,-0.664,-0.7158,-0.7496,-0.7819,-0.7929,0.0,-0.7959,-0.827,-0.9161,0.0,-1.0135,-1.0641,-1.0626,-1.0629,-1.0736,-1.0397,-1.036,-1.0577,-1.0898,-1.0974,-1.0632,-1.086,-1.0414,-0.9291,-0.8892,-0.8285,-0.7232,-0.6807,-0.623,-0.5242,-0.529,0.0,0.0,0.0,0.0,0.0,0.0,0.0,0.0,0.0,0.0,0.0,0.0,0.0,0.0,0.0,0.0,0.0,0.0,0.0,0.0,0.0,0.0,0.0,0.0,0.0,0.0,0.0,0.0,0.2989,0.3589,0.0,0.4125,0.3808,0.3738,0.3886,0.347,0.32,0.3271,0.307,0.2839,0.2676,0.2306,0.2045,0.1982,0.2102,0.2129,0.2158,0.2086,0.2106,0.2019,0.212,0.212,0.2221,0.2522,0.2413,0.2098,0.2167,0.2115,0.1864,0.1734,0.1712,0.17,0.1611,0.1529,0.154,0.155,0.1483,0.1319,0.1403,0.1313,0.1035,0.0186,-0.0647,-0.1569,-0.2399,-0.306,-0.3653,-0.4397,-0.5115,-0.5654,-0.6057,-0.6539,-0.7113,-0.7465,-0.7747,-0.809,-0.8498,-0.8692,-0.8762,-0.9072,-0.9616,-1.0066,-0.9858,-1.0127,-1.0347,-1.0026,-1.0053,-1.0107,-1.0344,-1.08,-1.0873,-1.0551,-1.0813,-1.0492,-0.9557,-0.8689,-0.8052,-0.7504,-0.648,-0.596,-0.5998,-0.5762,-0.5711,0.0,0.0,0.0,0.0,0.0,0.0,0.0,0.0,0.0,0.0,0.0,0.0,0.0,0.0,0.0,0.0,0.0,0.0,0.0,0.0,0.0,0.0,0.0,0.0,0.0,0.0,0.2492,0.3592,0.3827,0.4139,0.4626,0.452,0.4314,0.4291,0.418,0.4055,0.3828,0.3405,0.3049,0.2762,0.2477,0.2487,0.2601,0.2633,0.2559,0.2377,0.2406,0.2422,0.2422,0.2422,0.2522,0.2522,0.2826,0.2726,0.2425,0.2624,0.2387,0.2037,0.1701,0.1396,0.1202,0.1102,0.092,0.0836,0.105,0.1156,0.1253,0.1456,0.107,0.0389,0.0,-0.0782,-0.167,-0.2158,-0.2759,-0.3472,-0.4191,-0.492,-0.5555,-0.5888,-0.6492,-0.7087,-0.7452,-0.7862,-0.8157,-0.8841,-0.9157,-0.9161,-0.9109,-0.9642,-0.9907,-0.9334,-0.9758,-0.9953,-0.963,-0.9813,-1.0008,-1.0257,-1.0642,-1.0706,-1.0355,-1.0703,-1.0427,-0.947,-0.8721,-0.8139,-0.7597,-0.6637,-0.6258,-0.6502,-0.6102,-0.6144,-0.6756,0.0,0.0,0.0,0.0,0.0,0.0,0.0,0.0,0.0,0.0,0.0,0.0,0.0,0.0,0.0,0.0,0.0,0.0,0.0,0.0,0.0,0.0,0.0,0.1356,0.2164,0.3197,0.4772,0.4981,0.5104,0.5377,0.5204,0.5125,0.5036,0.4862,0.4676,0.4676,0.4012,0.3534,0.3242,0.277,0.2699,0.3139,0.2752,0.258,0.2422,0.242,0.252,0.2725,0.2723,0.2723,0.2826,0.313,0.323,0.323,0.323,0.2826,0.2312,0.126,0.0849,0.074,0.0272,-0.0091,-0.028,0.0291,0.0984,0.1579,0.1507,0.0808,-0.0,-0.0101,-0.0818,-0.1763,-0.1658,-0.2726,-0.3808,-0.3741,-0.4614,-0.5613,-0.5719,-0.6299,-0.6984,-0.7583,-0.7871,-0.8246,-0.8925,-0.9297,-0.9449,-0.9309,-0.961,-0.9662,-0.9414,-0.94,0.0,-0.9482,-0.9786,-0.9989,-1.0306,-1.0463,-1.0496,-1.0323,-1.0531,-1.025,-0.9125,-0.8886,-0.8468,-0.7446,-0.7352,-0.7109,-0.6408,-0.6344,-0.6621,-0.7196,0.0,0.0,0.0,0.0,0.0,0.0,0.0,0.0,0.0,0.0,0.0,0.0,0.0,0.0,0.0,0.0,0.0,0.0,0.0,0.0,0.0,0.1828,0.2335,0.2627,0.3341,0.4093,0.491,0.5136,0.5218,0.5218,0.5689,0.5705,0.5142,0.5023,0.4864,0.447,0.4429,0.4007,0.3214,0.3057,0.267,0.2058,0.2686,0.3013,0.3027,0.2987,0.2988,0.3027,0.3085,0.3089,0.313,0.313,0.313,0.2927,0.2927,0.2724,0.2418,0.2294,0.1982,0.1677,0.157,0.0595,-0.0706,-0.0102,0.0409,0.0715,0.0506,0.0202,-0.0202,-0.1333,-0.213,-0.2699,-0.2935,-0.3835,-0.4806,-0.4976,-0.55,-0.6044,-0.6117,-0.6358,-0.6706,-0.7105,-0.7519,-0.7816,-0.8212,-0.8551,-0.9019,-0.9382,-0.9666,-0.98,-0.9831,-0.9883,0.0,-1.003,-1.0099,-1.0302,-1.061,-1.0857,-1.0764,-1.031,-1.0558,-1.0259,-0.9303,-0.8766,-0.8204,-0.7475,-0.708,-0.6836,-0.6751,-0.7405,-0.7708,0.0,0.0,0.0,0.0,0.0,0.0,0.0,0.0,0.0,0.0,0.0,0.0,0.0,0.0,0.0,0.0,0.0,0.0,0.0,0.0,0.0,0.0,0.3116,0.3718,0.3971,0.4291,0.4798,0.5213,0.5378,0.544,0.5675,0.6026,0.6018,0.5541,0.5445,0.53,0.4997,0.4844,0.4517,0.4022,0.3321,0.2907,0.2779,0.3439,0.3675,0.3471,0.3562,0.3679,0.3613,0.3574,0.3373,0.3203,0.3307,0.3203,0.3099,0.3099,0.2893,0.0,0.0,0.0,0.0,0.0,0.0301,-0.0924,-0.0924,-0.0415,0.021,0.0,-0.031,-0.083,-0.1794,-0.23,-0.258,-0.2942,-0.3665,-0.4352,-0.4625,-0.5137,-0.5665,-0.5732,-0.5948,-0.6381,-0.6991,-0.7295,-0.7587,-0.7974,-0.8272,0.0,-0.8794,-0.9363,-0.9588,-0.945,-0.9712,-1.0024,-0.9935,-1.0261,-1.0493,-1.072,-1.0813,-1.0777,-1.0393,-1.041,0.0,0.0,0.0,-0.8094,-0.7315,-0.6995,0.0,0.0,0.0,0.0,0.0,0.0,0.0,0.0,-0.8755,-0.9076,0.0,0.0,0.0,0.0,0.0,0.0,0.0,0.0,0.0,0.0,0.0,0.0,0.0,0.0,0.0,0.0,0.3866,0.4651,0.5119,0.5235,0.5312,0.568,0.5616,0.5759,0.6257,0.6279,0.6134,0.6034,0.5953,0.5808,0.5796,0.0,0.0,0.0,0.0,0.3445,0.436,0.4538,0.4368,0.3951,0.422,0.4358,0.4261,0.4039,0.3722,0.3305,0.3413,0.3413,0.3413,0.3413,0.3305,0.297,0.2121,0.1781,0.1679,0.0292,-0.0396,-0.0714,-0.1734,0.0,0.0,-0.032,-0.0959,-0.1712,-0.1741,-0.1854,-0.1965,-0.2442,-0.2894,-0.3321,-0.3598,-0.4296,-0.5008,-0.5152,-0.5531,-0.6019,-0.6909,-0.7081,-0.7235,-0.7892,-0.7856,-0.7823,-0.7823,-0.8709,-0.9204,-0.8575,-0.9356,-0.9796,-0.9674,-1.016,-1.0608,-1.0729,0.0,0.0,-1.0327,-1.0149,-0.9685,-0.8945,-0.8333,-0.7809,-0.7088,-0.6895,-0.6996,-0.7253,-0.7388,-0.7381,-0.7311,-0.7426,-0.7752,-0.8191,-0.8429,-0.8855,0.0,0.0,0.0,0.0,0.0,0.0,0.0,0.0,0.0,0.0,0.0,0.0,0.0,0.0,0.0,0.4209,0.4763,0.532,0.5797,0.5905,0.604,0.6092,0.6075,0.6045,0.6265,0.635,0.6216,0.6039,0.613,0.61,0.5801,0.5746,0.5441,0.5081,0.4812,0.4599,0.4646,0.4831,0.4767,0.4239,0.0,0.0,0.3939,0.3992,0.3787,0.3413,0.3413,0.3413,0.3413,0.3413,0.3413,0.3302,0.2634,0.2624,0.2732,0.1593,0.0643,-0.0216,-0.0862,-0.1299,-0.1411,-0.1391,-0.1491,-0.171,-0.2067,-0.2252,0.0,-0.3318,-0.3937,-0.4519,-0.4814,-0.4925,-0.5148,-0.546,-0.5528,-0.559,-0.6019,-0.6255,-0.649,-0.6692,-0.6594,-0.6606,-0.6606,-0.7584,-0.8452,-0.8809,-0.9006,-0.9385,-1.0126,-1.0168,-1.0298,-1.0632,-1.0567,-1.0259,-0.9826,-0.9694,-0.9202,-0.8165,-0.7172,-0.6746,-0.6781,-0.626,-0.6265,-0.6886,-0.6913,-0.7027,-0.7218,-0.745,-0.7632,-0.7773,-0.8284,-0.8772,0.0,0.0,0.0,0.0,0.0,0.0,0.0,0.0,0.0,0.0,0.0,0.3797,0.3905,0.0,0.517,0.5007,0.5445,0.5877,0.6339,0.6466,0.6544,0.6451,0.6708,0.6745,0.6445,0.6701,0.6507,0.5844,0.6251,0.6355,0.577,0.6024,0.6173,0.6073,0.5638,0.5297,0.5256,0.5132,0.507,0.4747,0.5181,0.5098,0.4698,0.4552,0.4339,0.4046,0.3828,0.372,0.372,0.3609,0.35,0.3391,0.2845,0.2707,0.2774,0.1937,0.0869,-0.0,-0.0328,-0.099,-0.177,-0.1755,-0.175,-0.1752,-0.1989,-0.2079,-0.2379,-0.3055,-0.3476,-0.3883,-0.431,-0.4475,-0.4645,-0.4976,-0.5119,-0.5262,-0.571,-0.5935,-0.6049,-0.6274,-0.6274,-0.6274,-0.6274,-0.6717,-0.7379,-0.8156,-0.8592,-0.912,-0.9817,-1.0083,-1.0326,-1.0355,-1.0369,-1.0116,-0.9636,-0.9053,-0.8315,-0.7136,-0.6438,-0.6062,-0.6091,-0.5757,-0.5813,-0.6257,-0.6349,-0.658,-0.6766,-0.7031,-0.7205,-0.7208,-0.7811,-0.8241,0.0,0.0,0.0,0.0,0.0,0.0,0.0,0.0,0.518,0.4748,0.5126,0.5594,0.5598,0.5716,0.5799,0.5684,0.607,0.6438,0.6734,0.6955,0.7095,0.695,0.7361,0.7458,0.6861,0.7179,0.693,0.6007,0.6503,0.6621,0.5875,0.6408,0.68,0.7141,0.6285,0.5915,0.581,0.5452,0.5269,0.5271,0.5345,0.5382,0.5268,0.5043,0.4817,0.4594,0.4148,0.3924,0.3924,0.3699,0.3587,0.3475,0.2917,0.2648,0.2369,0.1722,0.0869,0.0,0.0,-0.0666,-0.1683,-0.1683,-0.1683,-0.1795,-0.1795,-0.1795,-0.1908,-0.2581,-0.2693,-0.2806,-0.3475,-0.3813,-0.4036,-0.4369,-0.4594,-0.4929,-0.5487,-0.5599,-0.5599,-0.5938,-0.5938,-0.5938,-0.5938,-0.5938,-0.6272,-0.7274,-0.8042,-0.8706,-0.9154,-0.9745,-1.0099,-0.9963,-1.0067,-0.9862,-0.9197,-0.8118,-0.7152,-0.6199,-0.5882,-0.5644,-0.5374,-0.5305,-0.5402,-0.5668,-0.5849,-0.6117,-0.6382,-0.6627,-0.6704,-0.6704,-0.7149,-0.7588,0.8093,0.7134,0.6557,0.6354,0.6241,0.6142,0.0,0.0,0.6064,0.5838,0.6565,0.7033,0.6734,0.6649,0.6678,0.6755,0.6917,0.7018,0.723,0.7356,0.7541,0.7814,0.7839,0.7704,0.7617,0.7629,0.7515,0.7072,0.731,0.7285,0.6856,0.7073,0.7027,0.6808,0.6911,0.6682,0.5791,0.5802,0.5586,0.5367,0.5375,0.5268,0.4931,0.4931,0.4596,0.4036,0.3813,0.3699,0.3587,0.3587,0.3474,0.3138,0.2805,0.2575,0.2343,0.1338,0.0558,0.0,0.0,-0.0448,-0.1009,-0.1234,-0.1458,-0.1795,-0.1795,-0.1795,-0.1908,-0.2581,-0.2693,-0.2806,-0.3475,-0.3587,-0.3699,-0.4036,-0.4036,-0.426,-0.4817,-0.4815,-0.4704,-0.5041,-0.4817,-0.4704,-0.4704,-0.4704,-0.515,-0.6601,-0.7157,-0.7709,-0.8484,-0.8783,-0.9126,-0.9328,-0.9353,-0.8898,-0.7855,-0.6735,-0.6026,-0.5729,-0.5353,-0.5112,-0.501,-0.4924,-0.5066,-0.5522,-0.5522,-0.5796,-0.6253,-0.6403,-0.6432,-0.6432,-0.6704,-0.7143,0.6985,0.6444,0.6622,0.0,0.713,0.7005,0.7438,0.7438,0.7304,0.7217,0.7585,0.7708,0.6987,0.6979,0.7073,0.0,0.6948,0.7161,0.7445,0.7704,0.7922,0.8133,0.7997,0.7839,0.7846,0.7905,0.7644,0.7109,0.7231,0.7086,0.6322,0.6866,0.7154,0.7046,0.6937,0.6715,0.6379,0.6158,0.5935,0.5601,0.5601,0.5489,0.5156,0.5156,0.4933,0.4484,0.4257,0.4035,0.3813,0.3699,0.3362,0.3026,0.2805,0.2581,0.2244,0.1234,0.0561,0.0,0.0,-0.0112,-0.0561,-0.1346,-0.1683,-0.1795,-0.1795,-0.1795,-0.1907,-0.2244,-0.2357,-0.258,-0.3139,-0.3362,-0.3474,-0.3924,-0.4038,-0.4148,-0.4592,-0.4592,-0.448,-0.4592,-0.4557,-0.4419,-0.4419,-0.4382,-0.4676,-0.5435,-0.6132,-0.6963,-0.8033,-0.8375,-0.8625,-0.8744,-0.8435,-0.7848,-0.7028,-0.6002,-0.5418,-0.5262,-0.4858,-0.4656,-0.4837,-0.4606,-0.472,-0.4992,-0.4992,-0.5262,-0.5713,-0.5749,-0.5902,-0.5994,-0.626,-0.6526,0.6566,0.0,0.0,0.7658,0.7836,0.794,0.8427,0.8334,0.8184,0.8321,0.8357,0.8205,0.7292,0.7431,0.7478,0.6871,0.7006,0.7324,0.7726,0.7942,0.8096,0.8248,0.8021,0.792,0.8135,0.8185,0.7927,0.7315,0.7627,0.7351,0.6253,0.6882,0.7154,0.7154,0.6935,0.6826,0.6829,0.6606,0.6272,0.5935,0.5822,0.5712,0.5491,0.538,0.5156,0.4929,0.4592,0.4369,0.4147,0.3699,0.3475,0.3138,0.2692,0.2469,0.2244,0.1458,0.0785,0.0224,0.0112,0.0,-0.0112,-0.1009,-0.1458,-0.157,-0.157,-0.1683,-0.1795,-0.202,-0.2132,-0.2356,-0.2803,-0.3027,-0.3139,-0.3589,-0.359,-0.3701,-0.4033,-0.4033,-0.4029,-0.412,-0.3967,-0.3931,-0.3912,-0.3975,-0.4153,-0.4574,-0.5243,-0.6163,-0.7368,-0.7852,-0.8083,-0.8093,-0.7453,-0.6834,-0.6134,-0.5368,-0.4822,-0.4659,-0.43,-0.4212,-0.4393,-0.4234,-0.4248,-0.4518,-0.4611,-0.4788,-0.524,-0.5297,-0.5387,-0.551,-0.5833,-0.5925,0.0,0.0,0.8045,0.8207,0.8595,0.8955,0.899,0.8785,0.8666,0.8856,0.8899,0.8601,0.7865,0.7937,0.8008,0.7594,0.7546,0.7736,0.8333,0.8137,0.8092,0.8238,0.7932,0.7919,0.8669,0.8494,0.833,0.8235,0.8592,0.8374,0.726,0.7152,0.7154,0.7154,0.7154,0.7157,0.7168,0.6829,0.6606,0.6274,0.5935,0.5822,0.5822,0.5152,0.4929,0.4929,0.4592,0.448,0.448,0.381,0.3587,0.3475,0.2579,0.2244,0.2132,0.1907,0.1346,0.0785,0.0224,0.0,-0.0,-0.0,-0.0449,-0.0897,-0.0897,-0.1346,-0.1795,-0.1795,-0.202,-0.2244,-0.2581,-0.2693,-0.2693,-0.2693,-0.2693,-0.2806,-0.3138,-0.2915,-0.2791,-0.3071,-0.2843,-0.2612,-0.2674,-0.309,-0.3617,-0.4252,-0.4717,-0.5322,-0.6368,-0.7113,-0.7443,-0.7167,-0.6542,-0.5852,-0.4995,-0.4535,-0.4123,-0.3676,-0.3587,-0.3587,-0.3676,-0.3658,-0.388,-0.4152,-0.4338,-0.4524,-0.4804,-0.4973,-0.5063,-0.516,-0.533,-0.543,0.8064,0.0,0.8761,0.9499,0.9585,0.9424,0.9628,0.9428,0.9328,0.9358,0.9358,0.9068,0.8205,0.8428,0.8453,0.7665,0.807,0.8432,0.8432,0.8634,0.8855,0.8911,0.8564,0.8636,0.9109,0.8307,0.0,0.8547,0.8349,0.8016,0.7468,0.7549,0.7487,0.7154,0.7154,0.7157,0.716,0.7046,0.6824,0.6604,0.6047,0.5822,0.5822,0.5377,0.5268,0.5268,0.4929,0.4704,0.448,0.4035,0.3587,0.325,0.2914,0.2579,0.2244,0.2132,0.1795,0.1458,0.1234,0.0673,0.0,0.0,-0.0112,-0.0336,-0.0336,-0.0449,-0.0785,-0.157,-0.1907,-0.1908,-0.202,-0.2244,-0.2469,-0.2693,-0.2693,-0.2693,-0.2805,-0.2805,-0.268,-0.2743,-0.2709,-0.2566,-0.2521,-0.2798,-0.3288,-0.4212,-0.5108,-0.5863,-0.6369,-0.6526,-0.6542,-0.6574,-0.58,-0.5113,-0.4712,-0.3989,-0.3515,-0.3383,-0.3203,-0.3131,-0.3173,-0.3435,-0.3699,-0.3791,-0.3924,-0.4168,-0.4437,-0.4316,-0.4497,-0.4797,-0.4942,-0.5034,0.8248,0.9201,0.9829,1.0498,1.0284,1.0042,1.0178,0.9962,0.9753,0.98,0.9614,0.9153,0.8383,0.8469,0.8478,0.7848,0.8218,0.8561,0.8726,0.8931,0.9031,0.9031,0.8829,0.8792,0.9259,0.8361,0.0,0.8461,0.8272,0.7967,0.7683,0.7993,0.7931,0.7487,0.7487,0.749,0.7382,0.7379,0.7157,0.6715,0.6158,0.5935,0.5935,0.5712,0.5491,0.5491,0.5264,0.5041,0.4594,0.4148,0.3813,0.3362,0.3027,0.2803,0.2467,0.2468,0.2244,0.1908,0.1795,0.1346,0.0561,0.0336,0.0336,0.0336,0.0336,0.0224,-0.0112,-0.0897,-0.1346,-0.157,-0.1795,-0.1908,-0.2132,-0.2356,-0.2356,-0.2353,-0.2338,-0.2336,-0.2319,-0.2375,-0.2342,-0.231,-0.2372,-0.2747,-0.3229,-0.4135,-0.4808,-0.5431,-0.5999,-0.5981,-0.5829,-0.5679,-0.5158,-0.4512,-0.3932,-0.3455,-0.3008,-0.2958,-0.2701,-0.2633,-0.2667,-0.3085,-0.333,-0.333,-0.3626,-0.3855,-0.3942,-0.3855,-0.3961,-0.4258,-0.4318,-0.4408,0.8752,1.01,1.1308,1.1068,1.0845,1.0748,1.0676,1.0328,0.9979,1.0139,0.945,0.8718,0.8324,0.8087,0.7926,0.7859,0.8108,0.8452,0.911,0.9027,0.8924,0.0,0.0,0.0,0.0,0.0,0.0,0.8217,0.0,0.8435,0.8002,0.8589,0.8605,0.8045,0.8045,0.7937,0.7832,0.7718,0.7271,0.6715,0.6495,0.6386,0.6274,0.5935,0.5822,0.5822,0.5822,0.5487,0.4817,0.426,0.4038,0.3926,0.303,0.2917,0.3026,0.2805,0.2469,0.2244,0.1908,0.1795,0.1683,0.1121,0.0897,0.0897,0.0897,0.0561,0.0112,0.0,-0.0336,-0.1008,-0.1568,-0.1681,-0.1793,-0.1793,-0.1793,-0.1785,-0.1754,-0.1748,-0.1731,-0.1778,-0.1765,-0.1754,-0.2129,-0.2725,-0.3325,-0.3927,-0.3963,-0.4307,-0.5291,-0.5382,-0.5204,-0.4547,-0.4432,-0.4027,-0.2962,-0.2922,-0.2683,-0.2225,-0.2174,-0.2198,-0.2198,-0.2622,-0.2868,-0.2866,-0.3353,-0.3408,-0.3227,-0.3408,-0.3534,-0.3414,-0.353,-0.3626,1.1033,1.1724,1.1981,1.1596,1.1347,1.1122,1.0744,1.004,0.9353,0.9037,0.8295,0.753,0.7086,0.7352,0.0,0.7581,0.8488,0.0,0.9229,0.9624,0.0,0.9723,0.0,0.964,0.9788,0.9295,0.0,0.0,0.8966,0.8461,0.7846,0.8484,0.8826,0.8716,0.8716,0.8494,0.7937,0.7937,0.7715,0.7385,0.7046,0.6826,0.6604,0.6272,0.6161,0.6161,0.6161,0.5714,0.4929,0.4707,0.4258,0.3699,0.3477,0.3251,0.3137,0.3026,0.2805,0.2581,0.2469,0.2132,0.1795,0.157,0.157,0.157,0.157,0.1458,0.123,0.0773,0.022,-0.033,-0.044,-0.088,-0.1211,-0.1651,-0.1761,-0.1753,-0.1832,-0.1396,-0.128,-0.1669,-0.1644,-0.1829,-0.2223,-0.2794,-0.3164,-0.3359,-0.3694,-0.4055,-0.4501,-0.4302,-0.4208,-0.4162,-0.3645,-0.3154,-0.2959,-0.2559,-0.2236,-0.1987,-0.193,-0.195,-0.195,-0.2389,-0.2722,-0.2866,-0.2988,-0.3136,-0.3227,-0.3136,-0.3056,-0.3071,-0.3416,-0.3507,1.1624,1.206,1.2336,1.1899,1.1723,1.1553,1.1217,1.0305,0.9409,0.9037,0.7807,0.6734,0.6438,0.691,0.727,0.0,0.0,0.0,0.96,0.9968,1.0216,0.0,1.0091,0.0,0.9938,0.9815,0.9607,0.0,0.9155,0.8628,0.8239,0.862,0.8933,0.894,0.894,0.8716,0.8266,0.8045,0.7934,0.7715,0.7379,0.7157,0.7049,0.6717,0.6495,0.6495,0.0,0.5935,0.515,0.515,0.4704,0.4033,0.4033,0.3921,0.3696,0.3696,0.3474,0.3141,0.3254,0.2806,0.2244,0.2244,0.2244,0.2132,0.202,0.1907,0.1679,0.133,0.099,0.0656,0.0328,0.0,-0.0324,-0.0757,-0.0973,-0.1076,-0.1376,-0.0949,-0.0734,-0.1339,-0.1516,-0.1696,-0.2194,-0.2552,-0.2818,-0.2841,-0.3067,-0.3223,-0.348,-0.3584,-0.3503,-0.3378,-0.307,-0.278,-0.251,-0.2195,-0.1961,-0.181,-0.1735,-0.1849,-0.1866,-0.2294,-0.2526,-0.259,-0.2809,-0.2778,-0.2599,-0.2599,-0.251,-0.242,-0.278,-0.3048,1.1519,1.1969,1.2611,1.2175,1.2089,1.2032,1.1966,1.0781,0.9639,0.9338,0.0,0.6042,0.596,0.6256,0.6629,0.7185,0.0,0.9472,0.9853,1.0015,1.0019,1.0019,1.0179,1.018,0.9953,1.0018,0.9967,0.9627,0.9235,0.9016,0.9071,0.8992,0.8906,0.8937,0.894,0.8826,0.8598,0.8266,0.8156,0.8045,0.7598,0.749,0.7607,0.716,0.6826,0.6826,0.6826,0.6258,0.5355,0.5479,0.5031,0.4467,0.4475,0.448,0.448,0.448,0.4145,0.3699,0.4036,0.3583,0.2909,0.2803,0.2693,0.2692,0.235,0.2125,0.1899,0.189,0.1758,0.152,0.0977,0.0752,0.0638,0.0638,0.0425,-0.0,-0.0519,-0.0207,-0.0,-0.0908,-0.1288,-0.1664,-0.2056,-0.2215,-0.2294,-0.233,-0.2265,-0.232,-0.2456,-0.2888,-0.3019,-0.2518,-0.2694,-0.2513,-0.1885,-0.1738,-0.1679,-0.1614,-0.1619,-0.1632,-0.1851,-0.2264,-0.2405,-0.2213,-0.2624,-0.251,-0.1884,-0.2064,-0.2064,-0.1794,-0.2064,-0.2422,1.2808,1.2701,1.2698,1.261,1.261,1.2422,1.2014,1.0322,0.0,0.0,0.595,0.4141,0.4156,0.4603,0.5023,0.5506,0.6994,0.8404,0.8958,0.96,1.0117,0.0,1.0288,1.0243,0.9983,0.973,0.0,0.0,0.9615,0.9452,0.9633,0.9215,0.891,0.8937,0.894,0.8826,0.8826,0.8826,0.8602,0.8374,0.8374,0.8152,0.7934,0.7823,0.7601,0.7496,0.7496,0.0,0.5374,0.5565,0.4998,0.4066,0.4345,0.448,0.448,0.448,0.448,0.4369,0.4369,0.4221,0.3963,0.3237,0.2915,0.2687,0.2538,0.2527,0.2404,0.2439,0.1993,0.1674,0.1465,0.1463,0.1357,0.1357,0.1356,0.1245,0.1223,0.1204,0.0892,-0.0395,-0.1069,-0.163,-0.1918,-0.2075,-0.2143,-0.2056,-0.22,-0.2169,-0.1632,-0.217,-0.2523,-0.2244,-0.2334,-0.2064,-0.1525,-0.1097,-0.1019,-0.1395,-0.1512,-0.1612,-0.159,-0.2044,-0.2297,-0.2438,-0.2337,-0.2243,-0.2154,-0.1974,-0.1884,-0.1794,-0.2064,-0.2333,1.2948,1.3009,1.3176,1.3083,1.3077,1.2868,1.2123,0.0,0.0,0.0,0.5354,0.373,0.337,0.3945,0.4549,0.4823,0.617,0.7634,0.868,0.9158,0.9612,1.0117,1.0171,1.0104,0.9912,0.9649,0.9781,1.018,0.9785,0.9606,1.0011,0.9656,0.9406,0.9489,0.9379,0.9379,0.9379,0.9379,0.9265,0.8933,0.8816,0.8592,0.8266,0.8045,0.7934,0.7826,0.7826,0.7235,0.6301,0.6246,0.5654,0.4813,0.5117,0.5123,0.5088,0.5135,0.5039,0.492,0.4768,0.451,0.4264,0.3822,0.3495,0.3271,0.3027,0.2914,0.2797,0.2537,0.2299,0.2074,0.1866,0.1855,0.1741,0.1639,0.1626,0.1611,0.1596,0.1569,0.1257,0.0193,-0.0761,-0.1502,-0.169,-0.1755,-0.1737,-0.1663,-0.1819,-0.1711,-0.1184,-0.1083,-0.1256,-0.1436,-0.1615,-0.1705,-0.1436,-0.0724,-0.0549,-0.1017,-0.1294,-0.1572,-0.1666,-0.1924,-0.2176,-0.2334,-0.2154,-0.1974,-0.1974,-0.1705,-0.1615,-0.1615,-0.1974,-0.2423,1.2639,1.3053,1.358,1.3483,1.3438,1.3161,1.21,1.0408,0.0,0.6994,0.5097,0.3673,0.3051,0.3631,0.4227,0.0,0.5616,0.7,0.8609,0.8826,0.9221,1.0371,1.017,0.0,1.0264,0.9894,0.0,1.0146,0.9734,0.9697,1.03,1.0131,1.004,1.0044,0.993,0.9798,0.976,0.976,0.9636,0.9388,0.9159,0.8832,0.8616,0.8317,0.8222,0.8115,0.8143,0.7695,0.7008,0.6924,0.6426,0.5684,0.5895,0.5886,0.5827,0.5906,0.5822,0.5584,0.5162,0.4903,0.4552,0.4473,0.4247,0.3831,0.3603,0.3388,0.307,0.2848,0.2608,0.2475,0.2269,0.2143,0.2018,0.1809,0.1787,0.1765,0.1661,0.1634,0.1421,0.0663,-0.0373,-0.1195,-0.1471,-0.1451,-0.1443,-0.1468,-0.1451,-0.1173,-0.0734,-0.0091,0.0179,-0.0179,-0.0628,-0.0987,-0.0987,-0.0448,-0.0271,-0.0643,-0.1177,-0.1537,-0.1838,-0.1901,-0.1974,-0.2154,-0.1885,-0.1794,-0.1705,-0.1525,-0.1436,-0.1436,-0.1885,-0.2422,1.2043,1.2723,1.3483,1.3652,1.3625,1.3251,1.1869,0.0,0.8497,0.6708,0.4925,0.3496,0.3227,0.3232,0.3456,0.3868,0.0,0.6455,0.8157,0.8609,0.9573,1.1864,0.0,0.0,1.1615,1.042,0.9713,0.9871,0.9674,0.9881,1.0576,1.0623,1.0378,0.9816,0.9816,0.9742,0.9478,0.9478,0.9408,0.9268,0.9268,0.9268,0.9275,0.9094,0.8834,0.8629,0.854,0.7752,0.0,0.7,0.6533,0.5684,0.6121,0.6267,0.626,0.627,0.6274,0.6146,0.6041,0.5726,0.5419,0.5328,0.4729,0.4141,0.4073,0.3844,0.3625,0.3568,0.3141,0.2732,0.2732,0.2526,0.2311,0.2271,0.2258,0.2148,0.2016,0.1695,0.1392,0.0835,0.0274,-0.036,-0.1259,-0.1437,-0.1436,-0.1439,-0.1437,-0.1077,-0.018,0.0718,0.1256,0.1256,0.0807,0.0538,0.0538,-0.0179,-0.0628,-0.0719,-0.1167,-0.1527,-0.189,-0.1796,-0.1794,-0.1794,-0.1794,-0.1705,-0.1436,-0.1436,-0.1436,-0.1436,-0.1705,-0.2241,1.1755,1.2859,1.3828,1.3913,1.3861,1.3263,1.1382,0.9836,0.8163,0.5964,0.4355,0.3317,0.3051,0.308,0.3395,0.0,0.4808,0.5815,0.763,0.8122,0.8931,1.0595,1.028,0.0,0.0,0.0,1.0321,0.99,0.9619,1.0,1.1359,1.1101,1.0806,1.0582,1.0482,1.0285,1.0,1.0,0.9809,0.9537,0.9633,0.9576,0.9473,0.9533,0.9497,0.9392,0.9127,0.8359,0.0,0.7325,0.6677,0.5744,0.619,0.6354,0.6418,0.6445,0.6453,0.6379,0.6163,0.5843,0.5428,0.5331,0.4916,0.4528,0.4293,0.4079,0.3869,0.3643,0.3433,0.323,0.2927,0.2623,0.2409,0.2364,0.2236,0.2111,0.207,0.1659,0.1362,0.1181,0.0541,-0.009,-0.0448,-0.0807,-0.0987,-0.0987,-0.0718,-0.0448,-0.009,0.0987,0.1607,0.1412,0.1247,0.1076,0.1076,0.0266,-0.0354,-0.0538,-0.1064,-0.1418,-0.1614,-0.1615,-0.1605,-0.1761,-0.1604,-0.1605,-0.1672,-0.1496,-0.1595,-0.1884,-0.2213,-0.2744,1.0529,1.1804,1.3101,1.3089,1.2917,1.2212,1.0299,0.8948,0.7359,0.5063,0.3833,0.3114,0.296,0.2906,0.3296,0.0,0.4921,0.5738,0.756,0.8233,0.8891,0.9958,0.0,1.0492,0.0,1.1095,1.0617,1.0158,0.9704,1.0038,1.1505,1.1397,1.1233,1.1232,1.1008,1.0808,1.0543,1.0306,1.0112,0.9851,0.9965,0.9918,0.9713,0.9772,0.9716,0.9562,0.9501,0.8696,0.0,0.7666,0.7123,0.6062,0.6544,0.6711,0.6653,0.6676,0.6673,0.6585,0.626,0.5967,0.5578,0.5475,0.5238,0.4836,0.4738,0.4437,0.4034,0.3937,0.3736,0.3633,0.3128,0.2927,0.2708,0.2445,0.2406,0.2273,0.1938,0.1813,0.1705,0.1076,0.0448,0.0,0.0,-0.0269,-0.0359,-0.009,0.0178,0.0444,0.0533,0.1325,0.1752,0.1554,0.1571,0.1409,0.1233,0.0522,-0.0087,-0.0528,-0.1049,-0.1397,-0.1409,-0.1417,-0.1495,-0.1637,-0.1495,-0.1499,-0.1651,-0.165,-0.1758,-0.2242,-0.2631,-0.3161,0.802,0.9275,1.0707,1.0683,1.0281,0.9598,0.8364,0.7228,0.5984,0.3993,0.335,0.306,0.2952,0.2694,0.305,0.4563,0.5448,0.6566,0.8303,0.8991,0.9664,0.0,1.0228,1.0367,1.1371,1.0564,1.014,1.056,0.9823,0.0,1.0975,1.13,1.1489,1.1555,1.1236,1.1042,1.0868,1.0539,1.0339,1.016,1.0164,1.0164,1.0168,1.0024,0.958,0.8909,0.9279,0.8428,0.0,0.8162,0.7981,0.6918,0.7254,0.7414,0.7396,0.6953,0.6804,0.6787,0.6665,0.6416,0.6195,0.608,0.5641,0.524,0.524,0.4841,0.4438,0.4438,0.4236,0.3934,0.3635,0.3636,0.3401,0.2886,0.2859,0.2733,0.1629,0.2155,0.2334,0.0359,0.0,0.0,0.0,-0.0,0.0269,0.1256,0.1323,0.1393,0.1739,0.1706,0.1766,0.1935,0.1851,0.1514,0.0759,0.0253,-0.0168,-0.059,-0.1117,-0.1378,-0.1266,-0.1376,-0.1377,-0.1265,-0.1376,-0.1391,-0.139,-0.1825,-0.2022,-0.2242,-0.2807,-0.3426,0.771,0.8816,0.9832,0.9828,0.9534,0.8961,0.794,0.6905,0.5794,0.435,0.3449,0.2995,0.2801,0.2548,0.2924,0.4274,0.5223,0.0,0.7506,0.873,0.0,0.9962,1.0994,1.1719,0.0,0.0,1.1803,1.1282,1.1493,1.1592,1.1789,1.2014,1.2086,1.1801,1.1363,1.0958,1.0595,1.0251,1.0264,1.0418,1.0257,1.0268,1.0481,1.0469,1.0248,0.9869,0.97,0.8685,0.7217,0.7907,0.7483,0.644,0.6935,0.7157,0.7058,0.689,0.6749,0.6671,0.6632,0.6363,0.609,0.6055,0.5739,0.5436,0.5436,0.5138,0.4636,0.4438,0.4236,0.3932,0.3934,0.3633,0.33,0.3078,0.2668,0.217,0.1539,0.1615,0.1525,0.0269,0.0,0.0,0.0,0.0539,0.1072,0.1322,0.1485,0.1643,0.1702,0.1942,0.2007,0.1813,0.1973,0.1901,0.1512,0.0581,-0.0083,-0.0421,-0.1017,-0.1367,-0.1378,-0.1387,-0.1388,-0.1379,-0.1388,-0.1566,-0.1912,-0.1998,-0.2442,-0.3072,-0.3624,-0.4005,0.6269,0.7265,0.8181,0.7998,0.7735,0.7332,0.6483,0.5738,0.4981,0.4259,0.379,0.3434,0.3454,0.3384,0.35,0.4395,0.5068,0.0,0.0,0.0,0.0,1.0545,0.0,0.0,0.0,1.2354,1.2089,1.2094,1.2419,1.2526,1.2302,1.2334,1.2193,1.1991,1.1614,1.123,1.103,1.0593,1.0431,1.0541,1.0467,1.0473,1.0481,1.0498,1.013,0.9526,0.9425,0.8518,0.0,0.7873,0.7563,0.6634,0.7125,0.7343,0.7346,0.7067,0.6821,0.6655,0.6655,0.6401,0.6139,0.6139,0.5939,0.5737,0.5536,0.5238,0.4937,0.4638,0.4435,0.4227,0.4098,0.3793,0.3362,0.3044,0.245,0.187,0.1446,0.1436,0.1166,0.0538,0.0359,0.0269,0.0269,0.0713,0.1148,0.1482,0.1629,0.1772,0.1912,0.2141,0.2202,0.2011,0.1927,0.1937,0.2047,0.0971,0.0,-0.0581,-0.1006,-0.1356,-0.1376,-0.1214,-0.1128,-0.1118,-0.1386,-0.174,-0.1998,-0.2365,-0.2964,-0.3861,-0.4152,-0.4389,0.0,0.5031,0.5847,0.538,0.5137,0.49,0.4459,0.3916,0.0,0.3833,0.3948,0.419,0.446,0.4572,0.4577,0.4606,0.5032,0.0,0.0,0.7724,0.0,0.0,1.1376,0.0,1.3249,1.1732,1.1344,1.2977,1.2909,1.2825,1.2704,1.2294,1.2083,1.2283,1.1981,1.1878,1.1887,1.1259,1.0724,1.0492,1.0737,1.0651,1.0227,1.0152,0.9549,0.0,0.8864,0.8185,0.6878,0.8123,0.815,0.7338,0.7778,0.7833,0.7817,0.7384,0.7042,0.6845,0.6742,0.6639,0.6437,0.6437,0.6234,0.5932,0.5429,0.5236,0.5138,0.4828,0.4824,0.4706,0.4424,0.4109,0.3681,0.2798,0.2313,0.1841,0.1532,0.1436,0.1345,0.1076,0.0897,0.0717,0.0806,0.0705,0.0956,0.173,0.1756,0.1871,0.2189,0.2226,0.2275,0.251,0.1805,0.1572,0.2359,0.1178,0.0079,-0.0811,-0.1162,-0.1261,-0.1263,-0.0945,-0.0689,-0.0677,-0.1552,-0.2003,-0.2003,-0.2842,-0.3601,-0.4389,-0.431,-0.4389,0.2823,0.0,0.4508,0.4422,0.4214,0.4095,0.0,0.3624,0.3237,0.3362,0.0,0.3032,0.3118,0.3338,0.354,0.3424,0.4743,0.6034,0.67,0.8296,0.0,1.1284,1.1298,1.1458,1.1996,1.2504,1.2515,1.1688,1.2525,1.2943,1.2829,1.2689,1.2673,1.2689,1.2082,1.1637,1.1359,1.1051,1.0564,1.0015,1.0327,1.0294,1.0062,0.9935,0.9723,0.9354,0.8899,0.835,0.7786,0.7936,0.7801,0.7495,0.764,0.7695,0.7591,0.7054,0.6845,0.6742,0.6539,0.6437,0.6437,0.6437,0.6278,0.6211,0.5814,0.5478,0.5125,0.4856,0.4738,0.4618,0.4336,0.3835,0.3433,0.2976,0.2405,0.1841,0.1713,0.1525,0.1346,0.1345,0.1256,0.1339,0.1668,0.157,0.1632,0.1992,0.2046,0.2181,0.2379,0.2282,0.2275,0.251,0.1805,0.1415,0.1572,0.0079,-0.0709,-0.0238,-0.0891,-0.1324,-0.1263,-0.127,-0.1204,-0.1237,-0.213,-0.2668,-0.2668,-0.34,-0.3837,-0.4064,-0.419,-0.43,0.1847,0.3003,0.4012,0.4012,0.3896,0.3781,0.3783,0.0,0.0,0.0,0.0,0.3187,0.3262,0.3769,0.4089,0.0,0.4994,0.0,0.0,0.0,1.0573,1.1453,1.179,1.198,0.0,1.2754,1.3039,1.2619,1.3136,1.3352,1.3152,1.2948,1.2764,1.2791,1.1965,1.1575,1.1918,1.1311,1.0747,1.0132,1.0057,1.0012,0.983,0.9726,0.9509,0.9286,0.8634,0.8371,0.8421,0.7969,0.7855,0.7926,0.7813,0.7743,0.7743,0.7441,0.7241,0.6939,0.6836,0.66,0.6361,0.6361,0.6279,0.6184,0.5896,0.5647,0.5391,0.5045,0.4837,0.4624,0.4342,0.3852,0.3367,0.3022,0.2554,0.2092,0.1979,0.1884,0.1705,0.1615,0.1603,0.1674,0.1828,0.1795,0.184,0.2285,0.2335,0.2387,0.2515,0.2431,0.2275,0.2119,0.1649,0.1178,0.1021,0.0079,-0.0321,0.0162,-0.0164,-0.0587,-0.1039,-0.1301,-0.1578,-0.2063,-0.2602,-0.2945,-0.3002,-0.3481,-0.3837,-0.4064,-0.4192,-0.4389,0.1122,0.2329,0.359,0.3835,0.3871,0.3822,0.3641,0.0,0.0,0.0,0.0,0.0,0.0,0.4763,0.0,0.0,0.0,0.0,0.8668,1.0107,1.1194,1.1731,1.2188,0.0,1.3102,1.3039,1.3346,1.4244,1.3955,1.3761,1.367,1.3147,1.2754,1.2791,1.1863,1.1673,1.251,1.1609,1.0886,1.0232,0.9976,0.9792,0.9587,0.9616,0.9327,0.8916,0.0,0.0,0.8814,0.8164,0.8094,0.8333,0.8137,0.8038,0.8038,0.7939,0.7627,0.7205,0.7183,0.681,0.6338,0.6338,0.6252,0.6059,0.5873,0.5769,0.566,0.5376,0.4917,0.453,0.4254,0.3772,0.3299,0.297,0.269,0.2424,0.2333,0.2243,0.2152,0.1877,0.1848,0.1821,0.1809,0.1752,0.195,0.2508,0.2544,0.2511,0.2511,0.2433,0.2199,0.1807,0.1493,0.1102,0.0711,0.0644,0.0576,0.0591,0.0591,0.0257,-0.0624,-0.1254,-0.1974,-0.2694,-0.2873,-0.2936,-0.2967,-0.3377,-0.373,-0.4098,-0.4174,-0.4389,0.0801,0.1299,0.206,0.3411,0.3906,0.4171,0.4622,0.0,0.0,0.0,0.0,0.0,0.0,0.4708,0.5373,0.0,0.0,0.8173,0.0,0.0,1.1101,1.0658,0.0,1.2984,1.3119,1.3709,1.41,1.428,1.4016,1.3943,1.4159,1.326,1.277,1.2791,1.2191,1.1785,1.1473,1.1096,1.052,0.9765,1.0036,0.9938,0.9405,0.9567,0.9537,0.9418,0.0,0.8784,0.9122,0.8657,0.8488,0.8432,0.8333,0.8237,0.7942,0.7743,0.7566,0.7346,0.6942,0.6697,0.6392,0.6682,0.6403,0.5931,0.6121,0.596,0.5697,0.5425,0.4945,0.425,0.3532,0.3332,0.3239,0.3139,0.2781,0.2512,0.2778,0.2511,0.2142,0.2104,0.209,0.2061,0.2149,0.2287,0.2504,0.277,0.2596,0.2589,0.2746,0.212,0.1807,0.2044,0.1572,0.1268,0.1212,0.1219,0.116,0.1207,0.0765,0.017,-0.0699,-0.1957,-0.2513,-0.2064,-0.2604,-0.278,-0.2591,-0.3044,-0.3401,-0.3659,-0.3849,-0.4302,0.0071,0.066,0.1353,0.2519,0.3455,0.4211,0.5026,0.0,0.0,0.0,0.0,0.0,0.0,0.0,0.5849,0.6763,0.0,0.9544,1.0122,1.0734,1.1076,0.0,0.0,1.2747,1.2721,1.3431,1.3913,1.3908,1.3727,1.375,1.3773,1.3477,1.2872,1.1965,1.1873,1.1585,1.1184,1.0895,1.0351,0.9563,0.9772,0.978,0.9506,0.9596,0.9632,0.962,0.0,0.9073,0.9418,0.8855,0.8687,0.8832,0.863,0.8382,0.801,0.7537,0.7369,0.7206,0.6957,0.6695,0.6542,0.6635,0.6453,0.6164,0.6346,0.6037,0.5636,0.528,0.4869,0.4443,0.3952,0.3585,0.3406,0.3406,0.3229,0.3139,0.3227,0.2959,0.2674,0.2532,0.2325,0.2281,0.2371,0.2493,0.2623,0.2909,0.2904,0.2747,0.2668,0.2276,0.2042,0.1965,0.165,0.1429,0.1463,0.14,0.1345,0.1387,0.0696,-0.0,-0.053,-0.1875,-0.2424,-0.2064,-0.2334,-0.2513,-0.2513,-0.2869,-0.3227,-0.3587,-0.4125,-0.4569,-0.0417,0.05,0.1385,0.1828,0.0,0.4099,0.5294,0.0,0.0,0.0,0.0,0.0,0.0,0.5918,0.0,0.846,0.9547,1.0431,1.087,1.1201,1.1531,1.168,1.2291,1.2731,1.2721,1.3249,1.3636,1.363,1.3539,1.3454,1.3374,1.3477,1.2969,1.1653,1.1668,1.158,1.1194,1.0904,1.0498,0.978,0.971,0.9624,0.9628,0.9628,0.9628,0.962,0.9287,0.9303,0.9517,0.9092,0.8995,0.9174,0.897,0.8575,0.8037,0.75,0.7256,0.7253,0.6941,0.6768,0.6678,0.6678,0.6607,0.6432,0.6343,0.6077,0.5633,0.5099,0.4837,0.4569,0.421,0.3853,0.3587,0.3678,0.3676,0.3587,0.3678,0.3408,0.3114,0.2863,0.2639,0.2584,0.2674,0.2699,0.2824,0.3062,0.3062,0.2904,0.2511,0.2433,0.2277,0.1964,0.1729,0.167,0.1637,0.1431,0.1292,0.1225,0.0444,-0.0179,-0.0448,-0.1705,-0.2334,-0.2154,-0.2154,-0.2244,-0.2424,-0.269,-0.3048,-0.3587,-0.4212,-0.4746,-0.0414,0.1069,0.2264,0.1568,0.0,0.0,0.5712,0.0,0.0,0.0,0.0,0.0,0.0,0.7465,0.846,0.9946,1.0107,1.0154,1.0532,0.0,1.2543,1.2005,1.3059,1.3788,1.3806,1.3823,1.3829,1.3908,1.363,1.3539,1.3443,1.3061,1.277,1.2683,1.2088,1.1492,1.1194,1.1227,1.0932,1.0332,0.9813,0.9616,0.9628,0.9628,0.9628,0.9628,0.9616,0.9616,0.9628,0.9513,0.9319,0.8991,0.8991,0.8504,0.7872,0.7714,0.7566,0.7366,0.7131,0.6989,0.6808,0.6979,0.6976,0.6704,0.626,0.6083,0.5905,0.5015,0.475,0.4569,0.3855,0.3587,0.3676,0.3857,0.3767,0.3678,0.3857,0.3497,0.3189,0.2977,0.2949,0.2905,0.2776,0.3141,0.3372,0.3141,0.2904,0.2746,0.2511,0.2199,0.1964,0.1887,0.1887,0.1841,0.1672,0.1482,0.1251,0.0805,0.0269,-0.0179,-0.0628,-0.1794,-0.2243,-0.1794,-0.2064,-0.2243,-0.2243,-0.2424,-0.2872,-0.3587,-0.3851,-0.4563,-0.0885,0.0071,0.1093,0.1473,0.0,0.0,0.0,0.0,0.0,0.0,0.0,0.0,0.0,0.0,0.9639,1.02,1.0657,1.103,1.1439,1.2162,1.2553,1.2455,1.2915,1.3159,1.3147,1.306,1.304,1.3193,1.2925,1.28,1.2851,1.2764,1.257,1.2088,1.1986,1.1688,1.1194,1.1208,1.1119,1.0923,1.0019,0.9624,0.9628,0.9628,0.9727,0.9929,0.9727,0.9821,1.0109,0.96,0.9514,0.9427,0.8925,0.8525,0.8173,0.7735,0.7503,0.7403,0.7163,0.7146,0.7238,0.7143,0.7054,0.6966,0.6615,0.6257,0.5725,0.5282,0.4928,0.4572,0.4121,0.4032,0.4032,0.4123,0.4123,0.4034,0.3946,0.3638,0.3411,0.3358,0.3107,0.3032,0.346,0.3328,0.3295,0.3372,0.3059,0.2746,0.2511,0.2354,0.2199,0.2119,0.1934,0.1743,0.1798,0.1146,0.0538,0.009,-0.0179,-0.0359,-0.0718,-0.1525,-0.1974,-0.1794,-0.1885,-0.2064,-0.2424,-0.2781,-0.3227,-0.3762,-0.4476,-0.5188,-0.1019,-0.007,0.1227,0.0,0.0,0.0,0.0,0.0,0.0,0.0,0.0,0.0,0.0,0.0,0.0,0.0,1.1276,1.186,1.2312,1.2476,1.2682,1.2882,1.2871,1.2871,1.2774,1.2757,1.2696,1.2686,1.2674,1.2592,1.2559,1.2662,1.2565,1.198,1.198,1.178,1.1189,1.1198,1.1208,1.1217,1.016,0.9665,0.9616,0.9719,0.992,1.0019,0.9826,0.9887,1.0015,0.9598,0.9478,0.9435,0.877,0.8473,0.8368,0.7897,0.768,0.7591,0.7323,0.7411,0.7591,0.7231,0.7231,0.7231,0.6704,0.6257,0.5811,0.5369,0.5013,0.4748,0.4567,0.4387,0.43,0.43,0.421,0.4123,0.3946,0.3724,0.3495,0.3447,0.3357,0.3353,0.3626,0.3491,0.3374,0.3372,0.3137,0.2833,0.2616,0.254,0.2467,0.2404,0.2076,0.1795,0.1649,0.0974,0.0179,-0.0538,-0.0538,-0.0628,-0.1076,-0.1525,-0.1884,-0.1885,-0.1884,-0.2063,-0.2602,-0.2959,-0.3405,-0.4028,-0.4835,-0.5371,-0.0828,0.0838,0.3113,0.0,0.0,0.0,0.0,0.0,0.0,0.0,0.0,0.9069,0.9515,0.0,0.0,1.1615,1.2183,1.2593,1.282,1.2991,1.3147,1.3179,1.315,1.3053,1.278,1.3182,1.3151,1.2414,1.2816,1.305,1.2764,1.2764,1.2667,1.237,1.2175,1.1775,1.117,1.1198,1.1217,1.1212,1.0417,0.9824,0.9587,0.9998,1.0006,0.9608,0.9916,0.9816,0.9452,0.9448,0.9141,0.88,0.8633,0.8472,0.8201,0.8201,0.8113,0.7856,0.7595,0.7683,0.7852,0.7231,0.7496,0.7676,0.6438,0.6257,0.6163,0.5275,0.501,0.501,0.501,0.4654,0.43,0.43,0.4123,0.3948,0.3857,0.3765,0.3541,0.3389,0.3697,0.3812,0.3247,0.3688,0.3845,0.3219,0.3141,0.3089,0.2918,0.2683,0.2625,0.2685,0.2317,0.1912,0.1303,0.0886,0.0179,-0.0987,-0.0897,-0.1076,-0.1794,-0.1794,-0.1885,-0.2154,-0.1974,-0.2153,-0.2867,-0.2867,-0.3403,-0.43,-0.4569,-0.5018,0.0068,0.1116,0.0,0.3961,0.0,0.0,0.0,0.0,0.0,0.0,0.0,1.0168,1.0248,0.0,0.0,1.2335,1.2732,1.3084,1.3466,1.3602,1.3618,1.3453,1.3585,1.3463,1.3094,1.3205,1.3147,1.2952,1.3031,1.3059,1.2851,1.2958,1.2856,1.237,1.2273,1.197,1.117,1.1231,1.1168,1.1178,1.0665,1.0564,1.0717,1.0378,1.0489,1.0712,1.0413,1.0303,1.0391,0.9828,0.9207,0.8637,0.8584,0.8564,0.8472,0.8288,0.8201,0.8028,0.768,0.7683,0.7852,0.7231,0.7231,0.7231,0.6704,0.6438,0.608,0.5633,0.5366,0.528,0.501,0.4919,0.4743,0.4659,0.4391,0.4105,0.3871,0.3639,0.35,0.3792,0.3605,0.3529,0.4017,0.3728,0.3452,0.3608,0.3295,0.3069,0.2853,0.2449,0.2337,0.2689,0.1715,0.1223,0.1331,0.0179,-0.0718,-0.1076,-0.1345,-0.1615,-0.1794,-0.1615,-0.1705,-0.2154,-0.2244,-0.2602,-0.3136,-0.3673,-0.403,-0.43,-0.4926,-0.5285,0.1235,0.1899,0.0,0.4898,0.5762,0.6509,0.8045,0.0,0.0,0.0,0.0,1.0532,1.0969,1.1663,0.0,1.2893,1.3426,1.3806,1.3838,1.4014,1.3944,1.3688,1.3719,1.3628,1.3219,1.3338,1.3361,1.3134,1.3343,1.3278,1.2948,1.305,1.2953,1.257,1.2467,1.2129,1.1545,1.1316,1.1213,1.1229,1.1007,1.0905,1.0957,1.0545,1.0459,1.066,1.0201,1.0099,1.0152,0.9646,0.9186,0.874,0.8828,0.8828,0.874,0.8644,0.8464,0.8201,0.7852,0.7852,0.7852,0.7231,0.7143,0.7234,0.6881,0.6618,0.6349,0.5991,0.5813,0.5628,0.5315,0.5212,0.5127,0.4689,0.4423,0.4132,0.3791,0.3648,0.3521,0.3575,0.3489,0.3506,0.376,0.3563,0.3452,0.3684,0.3427,0.3066,0.2825,0.2436,0.2332,0.2764,0.1659,0.0885,0.0806,-0.0269,-0.1076,-0.1345,-0.1525,-0.1705,-0.1794,-0.1525,-0.1705,-0.2334,-0.2424,-0.2782,-0.3497,-0.3944,-0.4212,-0.448,-0.5013,-0.528,0.2266,0.0,0.0,0.6428,0.6676,0.0,1.0107,0.914,0.8082,0.9687,0.0,1.0452,1.152,1.2523,1.3234,1.3191,1.4011,1.4539,1.4029,1.4192,1.4285,1.3999,1.3719,1.3483,1.3282,1.3692,1.3755,1.3373,1.3695,1.3738,1.3147,1.3152,1.3055,1.2861,1.2565,1.2357,1.2036,1.1522,1.1303,1.1273,1.1256,1.1055,1.076,1.0518,1.0265,0.9895,0.9631,0.9461,0.9255,0.9248,0.9174,0.8999,0.9174,0.9087,0.8999,0.9174,0.8819,0.8197,0.8201,0.8028,0.7764,0.7231,0.7234,0.7415,0.6972,0.6795,0.6704,0.626,0.6171,0.6054,0.5667,0.5551,0.5373,0.4662,0.4405,0.4126,0.3789,0.3686,0.3496,0.3094,0.3403,0.362,0.2994,0.3372,0.3686,0.3536,0.335,0.3109,0.2776,0.2535,0.2602,0.2777,0.1703,0.0718,0.009,-0.0448,-0.1076,-0.1705,-0.1525,-0.1525,-0.1794,-0.1615,-0.1794,-0.2513,-0.2603,-0.3051,-0.3859,-0.3946,-0.4214,-0.4661,-0.4921,-0.5099,0.135,0.3057,0.0,0.0,0.7323,0.812,0.8582,0.8873,0.9468,1.0964,1.1483,1.1727,1.1909,1.266,1.3215,1.3435,1.406,1.4558,1.4452,1.4651,1.4651,1.4285,1.4327,1.4339,1.4124,1.4352,1.441,1.4118,1.437,1.4214,1.3443,1.3636,1.3539,1.305,1.2953,1.2646,1.2036,1.1936,1.1726,1.132,1.1103,1.1112,1.1164,1.0711,1.051,1.0463,1.0181,1.0002,0.9714,0.9164,0.9087,0.9174,0.8915,0.8915,0.9174,0.9087,0.8819,0.846,0.8285,0.794,0.7503,0.7231,0.7143,0.7143,0.7054,0.6969,0.6792,0.6707,0.6349,0.6054,0.5837,0.5634,0.5416,0.4901,0.4509,0.4202,0.3946,0.3438,0.3172,0.3572,0.3321,0.3158,0.3532,0.3606,0.3549,0.3536,0.3222,0.2944,0.2692,0.2448,0.2319,0.2455,0.1154,0.0179,0.0,-0.0807,-0.1345,-0.1436,-0.1436,-0.1615,-0.2064,-0.2064,-0.2154,-0.2513,-0.3051,-0.3499,-0.3859,-0.4123,-0.43,-0.4389,-0.4832,-0.5099,0.1392,0.0,0.0,0.7065,0.0,0.8861,0.9406,0.9828,1.0457,1.1541,1.1885,1.2147,1.2681,1.3062,1.3381,1.3607,1.4142,1.4553,1.4258,1.466,1.4881,1.4559,1.4702,1.4829,1.4691,1.4804,1.479,1.4496,1.4592,1.44,1.3738,1.3835,1.3738,1.3346,1.3147,1.2784,1.2237,1.201,1.1775,1.1263,1.1147,1.1192,1.1294,1.0865,1.0617,1.0447,1.0341,1.0116,0.9757,0.9477,0.9432,0.9432,0.9345,0.9349,0.9432,0.9257,0.899,0.8548,0.8288,0.7852,0.7415,0.7231,0.7139,0.7139,0.7139,0.7054,0.6969,0.6792,0.6618,0.6304,0.5937,0.5718,0.5488,0.4924,0.4713,0.4433,0.3772,0.3354,0.3104,0.3066,0.2902,0.2904,0.3294,0.3448,0.3476,0.3401,0.3151,0.2872,0.2561,0.2376,0.2324,0.2298,0.0891,-0.0179,-0.0628,-0.1076,-0.1436,-0.1436,-0.1615,-0.1885,-0.2154,-0.2602,-0.296,-0.305,-0.3408,-0.3765,-0.4123,-0.421,-0.43,-0.43,-0.4924,-0.528,0.1314,0.0,0.5895,0.7943,0.8796,0.0,1.0523,1.1032,1.1359,1.1849,1.2143,1.2506,1.3261,1.3543,1.3681,1.3792,1.4281,1.4508,1.4063,1.4617,1.4961,1.4684,1.4867,1.493,1.5031,1.4937,1.4836,1.4741,1.464,1.4361,1.3891,1.3891,1.3701,1.3408,1.3216,1.2803,1.2354,1.1973,1.1668,1.1262,1.1262,1.1267,1.1283,1.0997,1.0641,1.0381,1.0294,1.012,0.9689,0.9864,0.9777,0.9689,0.9864,0.9777,0.9602,0.9602,0.9078,0.846,0.8285,0.7852,0.7411,0.7115,0.7102,0.7099,0.7071,0.7082,0.7017,0.6845,0.6757,0.6611,0.5936,0.5693,0.5533,0.4828,0.4772,0.4574,0.3698,0.337,0.3134,0.251,0.2668,0.2902,0.2981,0.3304,0.3419,0.326,0.3087,0.2901,0.2441,0.2397,0.2334,0.2064,0.0807,-0.0359,-0.1345,-0.1436,-0.1436,-0.1525,-0.1974,-0.2243,-0.2423,-0.3229,-0.3676,-0.3676,-0.3765,-0.3944,-0.43,-0.4389,-0.4387,-0.4476,-0.5191,-0.5549,0.0,0.0,0.706,0.0,0.944,1.0143,0.0,0.0,1.2367,0.0,1.3158,1.3237,1.2892,1.3724,1.4326,1.3795,1.4427,1.4867,1.4597,1.481,1.4858,1.4682,1.44,1.443,1.4618,1.443,1.4423,1.4611,1.4423,1.4157,1.3902,1.372,1.3439,1.3158,1.3158,1.274,1.2104,1.2009,1.1783,1.1262,1.1332,1.1338,1.1267,1.1246,1.0982,1.0641,1.0381,1.0294,1.012,0.9607,0.9607,0.9951,0.9519,0.9519,0.9602,0.9432,0.8903,0.8288,0.8201,0.776,0.7122,0.6997,0.6956,0.6932,0.68,0.6851,0.6956,0.687,0.6781,0.657,0.6161,0.5788,0.5342,0.4648,0.4474,0.4323,0.3843,0.3294,0.2904,0.2982,0.3215,0.3448,0.3606,0.3588,0.3504,0.3335,0.3153,0.2963,0.2496,0.2419,0.2154,0.1615,0.0628,-0.0359,-0.1345,-0.1436,-0.1615,-0.2064,-0.2154,-0.2602,-0.3408,-0.3497,-0.3765,-0.421,-0.421,-0.421,-0.43,-0.4743,-0.4921,-0.4921,-0.5636,-0.608,0.2067,0.4004,0.6,0.0,0.8681,0.9305,0.9839,1.1212,1.2392,1.291,1.3574,1.4071,1.3812,1.4108,1.4359,1.4196,1.4455,1.4681,1.4571,1.4632,1.4734,1.4566,1.4669,1.4681,1.4591,1.4591,1.4508,1.4237,1.4231,1.4044,1.3701,1.3513,1.3423,1.3332,1.3144,1.2931,1.2414,1.2143,1.1751,1.1332,1.1338,1.1435,1.171,1.1435,1.117,1.0824,1.0646,1.0467,1.0294,0.9864,0.9777,0.9951,0.9607,0.9519,0.9515,0.9174,0.8907,0.8556,0.8204,0.7789,0.735,0.7032,0.6871,0.6803,0.6824,0.6814,0.6817,0.6905,0.678,0.6595,0.6204,0.5716,0.5239,0.4724,0.4229,0.3837,0.3604,0.3292,0.2979,0.3061,0.3294,0.3526,0.3763,0.3599,0.3359,0.3348,0.3083,0.2803,0.2417,0.2603,0.2334,0.1525,0.0359,-0.0628,-0.1345,-0.1525,-0.1794,-0.2154,-0.2511,-0.3048,-0.3587,-0.3853,-0.4121,-0.43,-0.43,-0.4387,-0.4654,-0.4919,-0.5097,-0.5364,-0.5988,-0.6343,0.0,0.0,0.5079,0.7242,0.8033,0.8566,0.0,0.0,1.2417,0.0,1.3856,1.4757,1.4685,1.4399,1.4248,1.4522,1.4522,1.4502,1.4454,1.4414,1.4429,1.4448,1.4599,1.4648,1.4464,1.4553,1.4471,1.4034,1.4021,1.3926,1.3576,1.3487,1.3404,1.3404,1.3123,1.2856,1.2674,1.2224,1.1772,1.1316,1.151,1.1791,1.198,1.1607,1.1429,1.1267,1.0911,1.0646,1.0472,1.0299,1.0038,0.9864,0.9777,0.9515,0.934,0.8995,0.8823,0.8644,0.8116,0.7857,0.7572,0.7193,0.6993,0.6881,0.6874,0.6819,0.675,0.6867,0.6732,0.6535,0.6183,0.5648,0.5118,0.4562,0.3995,0.3526,0.3446,0.329,0.3212,0.3295,0.345,0.3612,0.3793,0.3551,0.3306,0.3293,0.3023,0.2734,0.2239,0.2603,0.2424,0.1166,-0.0,-0.0987,-0.1525,-0.1705,-0.1973,-0.2423,-0.2869,-0.3317,-0.3678,-0.3942,-0.421,-0.43,-0.43,-0.4478,-0.4924,-0.5188,-0.5455,-0.5811,-0.634,-0.6605,0.0,0.4385,0.0,0.7348,0.811,0.876,0.0,0.0,1.2598,1.2969,1.4027,1.487,1.4704,1.4342,1.4228,1.4623,1.4616,1.4435,1.418,1.4117,1.413,1.4148,1.3946,1.3867,1.4135,1.3867,1.3867,1.405,1.3867,1.3691,1.3698,1.3357,1.3101,1.3101,1.2832,1.2655,1.2386,1.2043,1.1682,1.13,1.2198,1.2392,1.2043,1.2003,1.1923,1.1871,1.1267,1.1008,1.0921,1.0733,1.0207,0.9602,0.9864,0.9423,0.8636,0.8819,0.8644,0.8201,0.8201,0.8021,0.7815,0.7655,0.7494,0.7259,0.695,0.682,0.6816,0.6823,0.6655,0.6401,0.5993,0.558,0.5018,0.4075,0.3841,0.3763,0.3526,0.3526,0.3526,0.3763,0.3763,0.3791,0.3877,0.3802,0.3549,0.3195,0.3178,0.2865,0.1614,0.2334,0.2155,0.027,-0.0359,-0.1076,-0.2064,-0.1974,-0.2153,-0.3048,-0.3047,-0.3227,-0.3857,-0.3767,-0.3853,-0.43,-0.43,-0.4478,-0.4748,-0.5638,-0.6083,-0.6083,-0.6789,-0.7051,0.0,0.0,0.0,0.5349,0.6478,0.7616,0.8828,1.0778,1.2511,1.3213,1.4128,1.4804,1.496,1.4825,1.4609,1.4328,1.4516,1.4623,1.4529,1.4275,1.4128,1.4143,1.4064,1.3913,1.3822,1.3913,1.3913,1.3652,1.3652,1.3652,1.3476,1.3222,1.3137,1.3137,1.2881,1.2705,1.2619,1.2277,1.2095,1.1901,1.2112,1.2209,1.2192,1.2392,1.2312,1.1957,1.1424,1.1251,1.1424,1.0727,1.0294,1.0038,0.9515,0.917,0.8995,0.8823,0.8648,0.8644,0.8288,0.8134,0.7947,0.7707,0.742,0.7215,0.7182,0.7049,0.6902,0.7009,0.6723,0.6339,0.6179,0.5433,0.454,0.3761,0.3604,0.3604,0.3684,0.3649,0.3609,0.385,0.3897,0.3866,0.3814,0.3553,0.327,0.3213,0.2832,0.2512,0.2424,0.1616,0.0808,0.009,-0.0718,-0.1436,-0.2154,-0.2243,-0.2423,-0.2957,-0.3047,-0.3317,-0.3678,-0.3944,-0.4121,-0.43,-0.4746,-0.5102,-0.5366,-0.5813,-0.626,-0.6526,-0.6966,-0.7231,0.1803,0.0,0.0,0.0,0.5369,0.6556,0.8334,1.0136,1.1674,1.2702,1.3678,1.4409,1.469,1.4809,1.4754,1.4202,1.4336,1.4475,1.4475,1.4388,1.4229,1.4229,1.4229,1.4143,1.3966,1.4057,1.4004,1.3659,1.3737,0.0,1.3652,1.3398,1.3307,1.3228,1.2966,1.279,1.279,1.2619,1.2437,1.2425,1.2277,1.2283,1.2443,1.2655,1.2404,1.1946,1.1671,1.1585,1.1499,1.0722,1.025,0.9847,0.9318,0.9043,0.8909,0.8719,0.8828,0.8999,0.8556,0.8392,0.8287,0.8048,0.7666,0.7365,0.7426,0.7243,0.6968,0.6924,0.6645,0.6261,0.6025,0.5165,0.4151,0.3604,0.3469,0.3568,0.3728,0.3694,0.3736,0.3899,0.3806,0.3707,0.365,0.3183,0.2874,0.2898,0.2402,0.2064,0.2334,0.0988,0.0,0.0,-0.0808,-0.1705,-0.2334,-0.2513,-0.2602,-0.2957,-0.3048,-0.3317,-0.3674,-0.3942,-0.421,-0.4565,-0.5013,-0.5458,-0.5811,-0.608,-0.6435,-0.6795,-0.7143,-0.7584,0.0,0.0,0.0,0.0,0.0,0.0,0.8401,0.0,1.0186,1.1427,1.2649,1.3633,1.4015,1.4331,1.4409,1.4149,1.4078,1.4088,1.4088,1.4335,1.4516,1.4509,1.4516,1.4516,1.4509,1.4255,1.4088,1.4088,1.4088,1.4088,1.4088,1.3822,1.3652,1.3398,1.3222,1.3143,1.3137,1.2875,1.2705,1.2705,1.2705,1.2705,1.2705,1.2705,1.2443,1.2015,1.2015,1.1671,1.1235,1.0814,0.9995,0.9065,0.9438,0.9048,0.8312,0.8499,0.8915,0.9262,0.8999,0.8907,0.8873,0.8683,0.8325,0.7889,0.7556,0.7313,0.7103,0.6718,0.649,0.6106,0.5482,0.4709,0.4008,0.3612,0.3516,0.3494,0.3575,0.3741,0.3908,0.3908,0.3564,0.3305,0.3464,0.287,0.2366,0.2416,0.1794,0.1345,0.1345,0.0539,-0.0,-0.009,-0.0898,-0.1794,-0.2784,-0.2694,-0.2691,-0.3138,-0.3051,-0.323,-0.3849,-0.3764,-0.4032,-0.501,-0.501,-0.5366,-0.6083,-0.6343,-0.6523,-0.6792,-0.7499,-0.8113,0.1829,0.0,0.0,0.0,0.0,0.0,0.0,0.0,0.9565,1.154,1.2368,1.3157,1.4505,1.4476,1.426,1.4331,1.442,1.4412,1.4412,1.4593,1.4702,1.447,1.4568,1.4536,1.4229,1.4135,1.4088,0.0,1.4088,1.4088,1.4088,1.3822,1.3652,1.3398,1.3313,1.3392,1.3568,1.3137,1.3137,1.3392,1.2948,1.2857,1.3039,1.2498,1.2237,1.2163,1.158,1.1241,1.1068,1.0641,1.0172,0.9663,0.9269,0.9057,0.8998,0.8674,0.8999,0.9432,0.8915,0.8649,0.861,0.8475,0.8164,0.7821,0.7693,0.7473,0.718,0.6865,0.6405,0.5808,0.5036,0.472,0.4454,0.3876,0.348,0.3245,0.3579,0.3456,0.3411,0.3581,0.3559,0.3354,0.2843,0.2491,0.2228,0.2241,0.1436,0.0808,0.0449,0.018,-0.0539,-0.1975,-0.1705,-0.1794,-0.2784,-0.2873,-0.2873,-0.2962,-0.323,-0.3408,-0.3405,-0.4032,-0.448,-0.4748,-0.5102,-0.5636,-0.6343,-0.6343,-0.6609,-0.7054,-0.8116,-0.8819,0.0,0.0,0.0,0.0,0.0,0.0,0.6321,0.7403,0.863,0.0,1.1558,1.2201,1.3525,1.377,1.3824,1.4216,1.4218,1.4296,1.4455,1.4679,1.4809,1.4446,1.4595,1.4549,1.4467,1.4325,1.4243,1.4243,1.4243,1.4166,1.4088,1.3913,1.3828,1.3743,1.3568,1.3568,1.3737,1.3398,1.3313,1.3561,1.3215,1.3045,1.3143,1.2601,1.226,1.2015,1.1327,1.0895,1.0636,1.0294,1.0,0.9667,0.9356,0.9229,0.9253,0.9022,0.9262,0.968,0.9083,0.8897,0.8869,0.8539,0.8288,0.7951,0.7789,0.7556,0.7156,0.6752,0.6192,0.5497,0.4673,0.4736,0.4701,0.3865,0.3553,0.3574,0.3663,0.3379,0.3158,0.3479,0.3271,0.2871,0.2424,0.2064,0.1884,0.1884,0.1166,0.0538,0.009,-0.0359,-0.0987,-0.2154,-0.1885,-0.1884,-0.2424,-0.2604,-0.2784,-0.2871,-0.3229,-0.3496,-0.3673,-0.4302,-0.475,-0.5018,-0.5547,-0.6166,-0.6871,-0.6697,-0.7051,-0.7848,-0.8644,-0.9262,0.1302,0.1278,0.0,0.0,0.3145,0.0,0.6404,0.7039,0.7693,0.0,1.0458,1.1094,1.2094,1.2577,1.3094,1.3502,1.368,1.3881,1.4261,1.4624,1.4736,1.4556,1.4496,1.4596,1.4749,1.4569,1.4398,1.4398,1.4398,1.4321,1.4088,1.4088,1.4088,1.4088,1.3913,1.3737,1.3737,1.3568,1.3483,1.3489,1.3326,1.3345,1.3272,1.282,1.2209,1.1607,1.116,1.0636,1.0207,1.0038,0.9747,0.9333,0.9525,0.9484,0.9338,0.9278,0.9607,0.9927,0.9406,0.9248,0.9199,0.877,0.8452,0.8106,0.7773,0.7447,0.703,0.636,0.5791,0.522,0.4631,0.4722,0.473,0.3806,0.3863,0.4006,0.3747,0.3184,0.2852,0.3324,0.2745,0.2154,0.2154,0.1705,0.1436,0.1436,0.1076,0.0538,-0.009,-0.0807,-0.1345,-0.1436,-0.1705,-0.1885,-0.1974,-0.2333,-0.2602,-0.2867,-0.3136,-0.3585,-0.421,-0.4569,-0.4926,-0.546,-0.6166,-0.6871,-0.7489,-0.7143,-0.7588,-0.8911,-0.9174,-0.951,0.1403,0.1348,0.1495,0.2383,0.0,0.0,0.5324,0.6155,0.71,0.0,0.9669,1.0515,1.2694,1.2319,1.1725,1.1844,1.2394,1.3101,1.3865,1.4282,1.4487,1.4473,1.4634,1.4529,1.428,1.42,1.4166,1.4166,1.4166,1.4166,1.4088,1.4088,1.4088,1.4088,1.4082,1.3997,1.3997,1.3737,1.3756,1.3965,1.3228,1.3247,1.3848,1.2277,1.137,1.0935,1.0539,1.0294,1.0038,0.9777,0.9661,0.9583,0.9611,0.957,0.9503,0.936,0.9432,0.9598,0.9131,0.8841,0.8704,0.8417,0.7975,0.7529,0.769,0.6943,0.6114,0.5616,0.5524,0.543,0.5341,0.4884,0.4504,0.4691,0.4444,0.419,0.3833,0.2683,0.1881,0.2588,0.2416,0.2064,0.1615,0.1436,0.1436,0.1436,0.1345,0.0718,-0.0897,-0.0987,-0.1076,-0.1705,-0.1884,-0.1974,-0.2154,-0.2601,-0.2868,-0.2867,-0.3673,-0.4032,-0.3946,-0.4567,-0.5188,-0.5633,-0.6691,-0.7404,-0.776,-0.7848,-0.8197,-0.864,-0.9082,-0.952,0.1564,0.1444,0.1537,0.2463,0.0,0.0,0.0,0.6137,0.7084,0.8727,0.9339,0.9974,1.1314,1.1056,1.064,1.0597,1.1335,1.2243,1.3016,1.3694,1.4207,1.4266,1.4216,1.4139,1.4139,1.4102,1.4088,1.423,1.4166,1.4088,1.4088,1.425,1.425,1.4088,1.4328,1.4328,1.4243,1.399,1.3919,1.3854,1.3124,1.2973,1.331,1.1923,1.1209,1.0971,1.0636,1.0299,0.9951,0.9854,0.9803,0.9819,0.9826,0.9803,0.9814,0.9657,0.9694,0.9763,0.9238,0.8965,0.8704,0.8373,0.7974,0.7586,0.7584,0.6748,0.58,0.58,0.5502,0.5114,0.5378,0.5149,0.4741,0.4478,0.4574,0.4486,0.3857,0.269,0.1794,0.1974,0.1884,0.1705,0.1436,0.1436,0.1436,0.1436,0.0987,0.0359,-0.0538,-0.0897,-0.1166,-0.1615,-0.1615,-0.1794,-0.2154,-0.2512,-0.2869,-0.3227,-0.3765,-0.4123,-0.4123,-0.4835,-0.5544,-0.634,-0.7136,-0.7665,-0.8025,-0.8464,-0.8727,-0.8727,-0.9243,-0.9572,0.0,0.0,0.0,0.0,0.0,0.3618,0.0,0.0,0.0,0.8367,0.895,0.0,0.0,0.0,0.0,0.9732,0.0,0.0,0.0,1.2736,0.0,1.4295,1.3947,1.3675,1.385,1.3831,1.3933,1.4289,1.4108,1.4052,1.4166,1.4368,1.4318,1.4168,1.448,1.4523,1.4398,1.4159,1.3913,1.3561,1.3033,1.2711,1.2685,1.1666,1.1241,1.1289,1.0743,1.0386,0.9951,0.984,0.985,1.0062,1.0043,1.0038,1.0038,1.0038,0.9951,0.984,0.9424,0.902,0.8756,0.8337,0.7998,0.7681,0.7288,0.6523,0.5897,0.6163,0.5633,0.5104,0.546,0.546,0.5102,0.4295,0.4391,0.4482,0.3676,0.2781,0.2064,0.1615,0.1436,0.1436,0.1436,0.1436,0.1345,0.1256,0.0538,-0.009,-0.0269,-0.0897,-0.1256,-0.1346,-0.1436,-0.1615,-0.2064,-0.2424,-0.2871,-0.3497,-0.3767,-0.4123,-0.4387,-0.5191,-0.608,-0.7051,-0.7489,-0.7845,-0.8285,-0.8995,-0.9152,-0.8939,-0.9383,-0.9769,0.0,0.0,0.0,0.0,0.2996,0.0,0.0,0.0,0.6754,0.7418,0.0,0.0,0.0,0.0,0.0,0.0,0.0,0.0,1.0441,1.1133,1.2556,1.4973,1.4569,1.3729,1.3115,1.3047,1.3335,1.3899,1.3695,1.3777,1.4412,1.4275,1.4229,1.4469,1.4303,1.4249,1.4398,1.4159,1.3822,1.3294,1.2869,1.2741,1.2641,1.151,1.1068,1.1289,1.0396,1.0047,0.9965,0.9122,0.9396,1.0318,1.0304,1.0125,1.0038,1.0038,0.9864,0.9598,0.9148,0.8786,0.8515,0.8086,0.7559,0.7031,0.616,0.6077,0.6251,0.5897,0.5985,0.6166,0.6083,0.5547,0.501,0.4659,0.4034,0.3406,0.3317,0.2511,0.1974,0.2064,0.1705,0.1436,0.1436,0.1436,0.1256,0.0718,0.0269,-0.0269,-0.1166,-0.0987,-0.0897,-0.1345,-0.1615,-0.1794,-0.1884,-0.2601,-0.3138,-0.3227,-0.3853,-0.4476,-0.4919,-0.5991,-0.6792,-0.7051,-0.7757,-0.8285,-0.8548,-0.9082,-0.9169,-0.8904,-0.9564,-0.9935,0.0,0.0,0.0,0.0,0.0,0.0,0.5099,0.0,0.6926,0.0,0.0,0.0,0.0,0.0,0.0,0.0,1.014,0.0,0.0,0.0,1.0821,0.0,0.0,0.0,1.197,1.251,1.2809,1.2949,1.3358,1.3643,1.3808,1.4255,1.4482,1.4419,1.4732,1.467,1.4398,1.4726,1.422,1.3039,1.2516,1.2289,1.2267,1.151,1.089,1.0559,1.0202,1.0033,0.9956,0.9561,1.0019,1.0952,1.0932,1.0569,1.0125,1.0038,0.9864,0.9515,0.9082,0.8644,0.8285,0.7672,0.7319,0.7051,0.6609,0.6343,0.6257,0.6346,0.608,0.5813,0.5727,0.5369,0.4832,0.4212,0.3855,0.3497,0.3141,0.2423,0.1974,0.2154,0.1794,0.1345,0.1076,0.1256,0.1345,0.1076,0.0269,-0.0538,-0.1345,-0.1256,-0.1256,-0.1615,-0.1705,-0.1973,-0.242,-0.2778,-0.3227,-0.3587,-0.4212,-0.4835,-0.5366,-0.608,-0.6526,-0.6881,-0.776,-0.8288,-0.8372,-0.9225,-0.9498,-0.9299,-0.9712,-0.9948,-0.0,0.0,0.0,0.0,0.0,0.0,0.0,0.0,0.0,0.0,0.0,0.0,0.0,0.0,0.0,0.0,0.0,1.0186,0.0,0.9231,0.0,0.0,0.0,0.0,0.0,1.1608,1.2061,1.2041,1.2628,1.3037,1.3126,1.4047,1.4529,1.4314,1.4902,1.4902,1.4321,1.4649,1.4226,1.3143,1.2528,1.2203,1.2169,1.1332,1.0616,1.0014,1.0019,1.0028,1.0038,1.0289,1.0661,1.1137,1.1223,1.0855,1.0309,1.0043,0.9777,0.9432,0.8907,0.8376,0.7845,0.7316,0.7051,0.7054,0.7058,0.6704,0.6349,0.6438,0.608,0.5636,0.546,0.5102,0.4654,0.3853,0.3587,0.3411,0.2963,0.2424,0.2064,0.2243,0.1794,0.1256,0.0987,0.1166,0.1345,0.1256,0.0179,-0.0718,-0.1345,-0.1436,-0.1615,-0.1794,-0.1885,-0.2242,-0.2778,-0.3045,-0.3494,-0.4123,-0.4659,-0.5191,-0.5719,-0.6166,-0.6523,-0.6881,-0.776,-0.8288,-0.8376,-0.9316,-0.9785,-0.9745,-0.9928,-1.0089,0.0,0.0,0.0,0.2672,0.0,0.0,0.0,0.0,0.7244,0.0,0.0,0.0,0.0,0.0,0.0,0.0,0.0,0.0,0.0,0.0,0.0,0.0,0.0,0.0,0.0,1.025,1.0911,0.0,1.1434,1.1715,1.2726,1.3666,1.4125,1.4082,1.4487,1.4494,1.4088,1.3535,1.3385,1.3528,1.2997,1.2679,1.2641,1.088,1.0072,1.0014,1.0033,1.0038,1.0043,1.0881,1.106,1.0784,1.1179,1.0907,1.0343,1.0135,0.9689,0.9174,0.8464,0.7757,0.7139,0.7139,0.6966,0.6884,0.7068,0.6976,0.6615,0.5899,0.6074,0.6254,0.5549,0.4835,0.4208,0.3939,0.3406,0.2964,0.2875,0.2604,0.2424,0.2424,0.1884,0.1436,0.1346,0.1346,0.1256,0.0807,-0.009,-0.0897,-0.1345,-0.1615,-0.1794,-0.1794,-0.2243,-0.2513,-0.2513,-0.3315,-0.4206,-0.4921,-0.5364,-0.5719,-0.5719,-0.6609,-0.7054,-0.7051,-0.7845,-0.8464,-0.8911,-0.9154,-0.9623,-1.0141,-1.0248,-1.0473,0.0,0.0,0.0,0.0083,0.0,0.0,0.0,0.0,0.0,0.0,0.0,0.0,0.0,0.0,0.0,0.0,0.0,0.0,0.0,0.0,0.0,0.0,0.0,0.0,0.0,0.0,0.0,1.0213,1.0562,0.0,1.1883,1.2916,1.3518,1.385,1.4294,1.4311,1.3828,1.3171,1.293,1.3022,1.2484,1.206,1.1738,1.0824,1.0289,1.0033,0.997,0.9965,1.0024,1.0328,0.9951,0.9291,0.9479,0.9405,0.9248,0.9336,0.9253,0.8999,0.8113,0.7492,0.7139,0.7139,0.7054,0.6966,0.67,0.6612,0.6432,0.5725,0.5636,0.5547,0.4835,0.4478,0.4119,0.3583,0.3227,0.305,0.2693,0.2424,0.2154,0.1794,0.1345,0.1076,0.1348,0.0359,-0.0269,0.018,-0.0538,-0.1345,-0.1884,-0.1974,-0.2154,-0.2243,-0.2424,-0.2603,-0.296,-0.3673,-0.4387,-0.5008,-0.528,-0.5636,-0.5991,-0.6432,-0.6786,-0.7051,-0.7845,-0.8468,-0.8911,-0.9406,-0.9858,-1.0274,-1.0391,-1.0616,-0.28,-0.1705,0.0,-0.017,0.173,0.0,0.5018,0.0,0.5599,0.0,0.0,0.0,0.0,0.0,0.0,0.0,0.0,0.0,0.0,0.8417,0.0,0.0,0.0,0.0,0.0,0.8949,0.8907,0.9606,0.9872,0.0,0.0,1.2061,1.2762,1.3366,1.4014,1.4146,1.3659,1.3184,1.2766,1.2398,1.1854,1.1332,1.0835,1.0579,1.0135,0.9506,0.9814,0.9712,0.9318,0.98,0.9607,0.8856,0.8674,0.8603,0.8632,0.9078,0.8995,0.8564,0.7937,0.7404,0.7139,0.7139,0.7143,0.6966,0.6337,0.6071,0.5894,0.5186,0.5099,0.5102,0.4478,0.421,0.4034,0.3587,0.3227,0.3047,0.2691,0.2333,0.1974,0.1705,0.0987,0.0448,0.0449,-0.0628,-0.1166,-0.0629,-0.1077,-0.1705,-0.2064,-0.2243,-0.2334,-0.2513,-0.2693,-0.296,-0.3583,-0.4121,-0.4656,-0.5099,-0.546,-0.5816,-0.6083,-0.6432,-0.6871,-0.7228,-0.7845,-0.8468,-0.9087,-0.9402,-0.9808,-1.0391,-1.0428,-1.0718]}]]